[[{"header":{"parameterUnit":"m.s-1","parameterCategory":1,"la1":31.0,"la2":29.5877,"lo1":-88.7671,"lo2":-86.6584,"dx":0.0162,"dy":0.0185,"nx":115,"ny":88,"refTime":"2022-12-31T12:00:00:Z","depth":0,"parameterNumber":2,"parameterNumberName":"U-component_of_WINDS"},"data":[0.0,0.0,0.0,0.0,0.0,0.0,0.0,0.0,0.0,0.0,0.0,0.0,0.0,0.0,0.0,0.0,0.0,0.0,0.0,0.0,0.0,0.0,0.0,0.0,0.0,0.0,0.0,0.0,0.0,0.0,0.0,0.0,0.0,0.0,0.0,0.0,0.0,0.0,0.0,0.0,0.0,0.0,0.0,0.0,0.0,0.0,0.0,0.0,0.0,0.0,0.0,0.0,0.0,0.0,0.0,0.0,0.0,0.0,0.0,0.0,0.0,0.0,0.0,0.0,0.0,0.0,0.0,0.0,0.0,0.0,0.0,0.0,0.0,0.0,0.0,0.0,0.0,0.0,0.0,0.0,0.0,0.0,0.0,0.0,0.0,0.0,0.0,0.0,0.0,0.0,0.0,0.0,0.0,0.0,0.0,0.0,0.0,0.0,0.0,0.0,0.0,0.0,0.0,0.0,0.0,0.0,0.0,0.0,0.0,0.0,0.0,0.0,0.0,0.0,0.0,0.0,0.0,0.0,0.0,0.0,0.0,0.0,0.0,0.0,0.0,0.0,0.0,0.0,0.0,0.0,0.0,0.0,0.0,0.0,0.0,0.0,0.0,0.0,0.0,0.0,0.0,0.0,0.0,0.0,0.0,0.0,0.0,0.0,0.0,0.0,0.0,0.0,0.0,0.0,0.0,0.0,0.0,0.0,0.0,0.0,0.0,0.0,0.0,0.0,0.0,0.0,0.0,0.0,0.0,0.0,0.0,0.0,0.0,0.0,0.0,0.0,0.0,0.0,0.0,0.0,0.0,0.0,0.0,0.0,0.0,0.0,0.0,0.0,0.0,0.0,0.0,0.0,0.0,0.0,0.0,0.0,0.0,0.0,0.0,0.0,0.0,0.0,0.0,0.0,0.0,0.0,0.0,0.0,0.0,0.0,0.0,0.0,0.0,0.0,0.0,0.0,0.0,0.0,0.0,0.0,0.0,0.0,0.0,0.0,0.0,0.0,0.0,0.0,0.0,0.0,0.0,0.0,0.0,0.0,0.0,0.0,0.0,0.0,0.0,0.0,0.0,0.0,0.0,0.0,0.0,0.0,0.0,0.0,0.0,0.0,0.0,0.0,0.0,0.0,0.0,0.0,0.0,0.0,0.0,0.0,0.0,0.0,0.0,0.0,0.0,0.0,0.0,0.0,0.0,0.0,0.0,0.0,0.0,0.0,0.0,0.0,0.0,0.0,0.0,0.0,0.0,0.0,0.0,0.0,0.0,0.0,0.0,0.0,0.0,0.0,0.0,0.0,0.0,0.0,0.0,0.0,0.0,0.0,0.0,0.0,0.0,0.0,0.0,0.0,0.0,0.0,0.0,0.0,0.0,0.0,0.0,0.0,0.0,0.0,0.0,0.0,0.0,0.0,0.0,0.0,0.0,0.0,0.0,0.0,0.0,0.0,0.0,0.0,0.0,0.0,0.0,0.0,0.0,0.0,0.0,0.0,0.0,0.0,0.0,0.0,0.0,0.0,0.0,0.0,0.0,0.0,0.0,0.0,0.0,0.0,0.0,0.0,0.0,0.0,0.0,0.0,0.0,0.0,0.0,0.0,0.0,0.0,0.0,0.0,0.0,0.0,0.0,0.0,0.0,0.0,0.0,0.0,0.0,0.0,0.0,0.0,0.0,0.0,0.0,0.0,0.0,0.0,0.0,0.0,0.0,0.0,0.0,0.0,0.0,0.0,0.0,0.0,0.0,0.0,0.0,0.0,0.0,0.0,0.0,0.0,0.0,0.0,0.0,0.0,0.0,0.0,0.0,0.0,0.0,0.0,0.0,0.0,0.0,0.0,0.0,0.0,0.0,0.0,0.0,0.0,0.0,0.0,0.0,0.0,0.0,0.0,0.0,0.0,0.0,0.0,0.0,0.0,0.0,0.0,0.0,0.0,0.0,0.0,0.0,0.0,0.0,0.0,0.0,0.0,0.0,0.0,0.0,0.0,0.0,0.0,0.0,0.0,0.0,0.0,0.0,0.0,0.0,0.0,0.0,0.0,0.0,0.0,0.0,0.0,0.0,0.0,0.0,0.0,0.0,0.0,0.0,0.0,0.0,0.0,0.0,0.0,0.0,0.0,0.0,0.0,0.0,0.0,0.0,0.0,0.0,0.0,0.0,0.0,0.0,0.0,0.0,0.0,0.0,0.0,0.0,0.0,0.0,0.0,0.0,0.0,0.0,0.0,0.0,0.0,0.0,0.0,0.0,0.0,0.0,0.0,0.0,0.0,0.0,0.0,0.0,0.0,0.0,0.0,0.0,0.0,0.0,0.0,0.0,0.0,0.0,0.0,0.0,0.0,0.0,0.0,0.0,0.0,0.0,0.0,0.0,0.0,0.0,0.0,0.0,0.0,0.0,0.0,0.0,0.0,0.0,0.0,0.0,0.0,0.0,0.0,0.0,0.0,0.0,0.0,0.0,0.0,0.0,0.0,0.0,0.0,0.0,0.0,0.0,0.0,0.0,0.0,0.0,0.0,0.0,0.0,0.0,0.0,0.0,0.0,0.0,0.0,0.0,0.0,0.0,0.0,0.0,0.0,0.0,0.0,0.0,0.0,0.0,0.0,0.0,0.0,0.0,0.0,0.0,0.0,0.0,0.0,0.0,0.0,0.0,0.0,0.0,0.0,0.0,0.0,0.0,0.0,0.0,0.0,0.0,0.0,0.0,0.0,0.0,0.0,0.0,0.0,0.0,0.0,0.0,0.0,0.0,0.0,0.0,0.0,0.0,0.0,0.0,0.0,0.0,0.0,0.0,0.0,0.0,0.0,0.0,0.0,0.0,0.0,0.0,0.0,0.0,0.0,0.0,0.0,0.0,0.0,0.0,0.0,0.0,0.0,0.0,0.0,0.0,0.0,0.0,0.0,0.0,0.0,0.0,0.0,0.0,0.0,0.0,0.0,0.0,0.0,0.0,0.0,0.0,0.0,0.0,0.0,0.0,0.0,0.0,0.0,0.0,0.0,0.0,0.0,0.0,0.0,0.0,0.0,0.0,0.0,0.0,0.0,0.0,0.0,0.0,0.0,0.0,0.0,0.0,0.0,0.0,0.0,0.0,0.0,0.0,0.0,0.0,0.0,0.0,0.0,0.0,0.0,0.0,0.0,0.0,0.0,0.0,0.0,0.0,0.0,0.0,0.0,0.0,0.0,0.0,0.0,0.0,0.0,0.0,0.0,0.0,0.0,0.0,0.0,0.0,0.0,0.0,0.0,0.0,0.0,0.0,0.0,0.0,0.0,0.0,0.0,0.0,0.0,0.0,0.0,0.0,0.0,0.0,0.0,0.0,0.0,0.0,0.0,0.0,0.0,0.0,0.0,0.0,0.0,0.0,0.0,0.0,0.0,0.0,0.0,0.0,0.0,0.0,0.0,0.0,0.0,0.0,0.0,0.0,0.0,0.0,0.0,0.0,0.0,0.0,0.0,0.0,0.0,0.0,0.0,0.0,0.0,0.0,0.0,0.0,0.0,0.0,0.0,0.0,0.0,0.0,0.0,0.0,0.0,0.0,0.0,0.0,0.0,0.0,0.0,0.0,0.0,0.0,0.0,0.0,0.0,0.0,0.0,0.0,0.0,0.0,0.0,0.0,0.0,0.0,0.0,0.0,0.0,0.0,0.0,0.0,0.0,0.0,0.0,0.0,0.0,0.0,0.0,0.0,0.0,0.0,0.0,0.0,0.0,0.0,0.0,0.0,0.0,0.0,0.0,0.0,0.0,0.0,0.0,0.0,0.0,0.0,0.0,0.0,0.0,0.0,0.0,0.0,0.0,0.0,0.0,0.0,0.0,0.0,0.0,0.0,0.0,0.0,0.0,0.0,0.0,0.0,0.0,0.0,0.0,0.0,0.0,0.0,0.0,0.0,0.0,0.0,0.0,0.0,0.0,0.0,0.0,0.0,0.0,0.0,0.0,0.0,0.0,0.0,0.0,0.0,0.0,0.0,0.0,0.0,0.0,0.0,0.0,0.0,0.0,0.0,0.0,0.0,0.0,0.0,0.0,0.0,0.0,0.0,0.0,0.0,0.0,0.0,0.0,0.0,0.0,0.0,0.0,0.0,0.0,0.0,0.0,0.0,0.0,0.0,0.0,0.0,0.0,0.0,0.0,0.0,0.0,0.0,0.0,0.0,0.0,0.0,0.0,0.0,0.0,0.0,0.0,0.0,0.0,0.0,0.0,0.0,0.0,0.0,0.0,0.0,0.0,0.0,0.0,0.0,0.0,-4.7028,0.0,0.0,0.0,-4.6349,0.0,0.0,0.0,0.0,0.0,0.0,0.0,0.0,0.0,0.0,0.0,0.0,0.0,0.0,0.0,0.0,0.0,0.0,0.0,0.0,0.0,0.0,0.0,0.0,0.0,0.0,0.0,0.0,0.0,0.0,0.0,0.0,0.0,0.0,0.0,0.0,0.0,0.0,0.0,0.0,0.0,0.0,0.0,0.0,0.0,0.0,0.0,0.0,0.0,0.0,0.0,0.0,0.0,0.0,0.0,0.0,0.0,0.0,0.0,0.0,0.0,0.0,0.0,0.0,0.0,0.0,0.0,0.0,0.0,0.0,0.0,0.0,0.0,0.0,0.0,0.0,0.0,0.0,0.0,0.0,0.0,0.0,0.0,0.0,0.0,0.0,0.0,0.0,0.0,0.0,0.0,0.0,0.0,0.0,0.0,0.0,0.0,0.0,0.0,0.0,0.0,0.0,0.0,0.0,0.0,0.0,0.0,0.0,0.0,0.0,-4.6963,-4.6176,-4.7352,-4.7412,-4.6108,0.0,0.0,0.0,0.0,0.0,0.0,0.0,0.0,0.0,0.0,0.0,0.0,0.0,0.0,0.0,0.0,0.0,0.0,0.0,0.0,0.0,0.0,0.0,0.0,0.0,0.0,0.0,0.0,0.0,0.0,0.0,0.0,0.0,0.0,0.0,0.0,0.0,0.0,0.0,0.0,0.0,0.0,0.0,0.0,0.0,0.0,0.0,0.0,0.0,0.0,0.0,0.0,0.0,0.0,0.0,0.0,0.0,0.0,0.0,0.0,0.0,0.0,0.0,0.0,0.0,0.0,0.0,0.0,0.0,0.0,0.0,0.0,0.0,0.0,0.0,0.0,0.0,0.0,0.0,0.0,0.0,0.0,0.0,0.0,0.0,0.0,0.0,0.0,0.0,0.0,0.0,0.0,0.0,0.0,0.0,0.0,0.0,0.0,0.0,0.0,0.0,0.0,0.0,0.0,0.0,0.0,0.0,0.0,0.0,0.0,0.0,0.0,-4.757,-4.7617,-4.6313,0.0,0.0,0.0,0.0,0.0,0.0,0.0,0.0,0.0,0.0,0.0,0.0,0.0,0.0,0.0,0.0,0.0,0.0,0.0,0.0,0.0,0.0,0.0,0.0,0.0,0.0,0.0,0.0,0.0,0.0,0.0,0.0,0.0,0.0,0.0,0.0,0.0,0.0,0.0,0.0,0.0,0.0,0.0,0.0,0.0,0.0,0.0,0.0,0.0,0.0,0.0,0.0,0.0,0.0,0.0,0.0,0.0,0.0,0.0,0.0,0.0,0.0,0.0,0.0,0.0,0.0,0.0,0.0,0.0,0.0,0.0,0.0,0.0,0.0,0.0,0.0,0.0,0.0,0.0,0.0,0.0,0.0,0.0,0.0,0.0,0.0,0.0,0.0,0.0,0.0,0.0,0.0,0.0,0.0,0.0,0.0,0.0,0.0,0.0,0.0,0.0,0.0,0.0,0.0,0.0,0.0,0.0,0.0,0.0,0.0,-4.6267,-4.7002,-4.7164,0.0,-4.6982,0.0,0.0,0.0,0.0,0.0,0.0,0.0,0.0,0.0,0.0,0.0,0.0,0.0,0.0,0.0,0.0,0.0,0.0,0.0,0.0,0.0,0.0,0.0,0.0,0.0,0.0,0.0,0.0,0.0,0.0,0.0,0.0,0.0,0.0,0.0,0.0,0.0,0.0,0.0,0.0,0.0,0.0,0.0,0.0,0.0,0.0,0.0,0.0,0.0,0.0,0.0,0.0,0.0,0.0,0.0,0.0,0.0,0.0,0.0,0.0,0.0,0.0,0.0,0.0,0.0,0.0,0.0,0.0,0.0,0.0,0.0,0.0,0.0,0.0,0.0,0.0,0.0,0.0,0.0,0.0,0.0,0.0,0.0,0.0,0.0,0.0,0.0,0.0,0.0,0.0,0.0,0.0,0.0,0.0,0.0,0.0,0.0,0.0,0.0,0.0,0.0,0.0,0.0,0.0,0.0,0.0,0.0,0.0,0.0,0.0,-4.6194,-4.7083,-4.7076,-4.7076,0.0,0.0,0.0,0.0,0.0,0.0,0.0,0.0,0.0,0.0,0.0,0.0,0.0,0.0,0.0,0.0,0.0,0.0,0.0,0.0,0.0,0.0,0.0,0.0,0.0,0.0,0.0,0.0,0.0,0.0,0.0,0.0,0.0,0.0,0.0,0.0,0.0,0.0,0.0,0.0,0.0,0.0,0.0,0.0,0.0,0.0,0.0,0.0,0.0,0.0,0.0,0.0,0.0,0.0,0.0,0.0,0.0,0.0,0.0,0.0,0.0,0.0,0.0,0.0,0.0,0.0,0.0,0.0,0.0,0.0,0.0,0.0,0.0,0.0,0.0,0.0,0.0,0.0,0.0,0.0,0.0,0.0,0.0,0.0,0.0,0.0,0.0,0.0,0.0,0.0,0.0,0.0,0.0,0.0,0.0,0.0,0.0,0.0,0.0,0.0,0.0,0.0,0.0,0.0,0.0,0.0,0.0,0.0,0.0,0.0,-4.631,-4.6581,-4.7386,-4.7463,-4.7347,-4.7115,0.0,0.0,0.0,0.0,0.0,0.0,0.0,0.0,0.0,0.0,0.0,0.0,0.0,0.0,0.0,0.0,0.0,0.0,0.0,0.0,0.0,0.0,0.0,0.0,0.0,0.0,0.0,0.0,0.0,0.0,0.0,0.0,0.0,0.0,0.0,0.0,0.0,0.0,0.0,0.0,0.0,0.0,0.0,0.0,0.0,0.0,0.0,0.0,0.0,0.0,0.0,0.0,0.0,0.0,0.0,0.0,0.0,0.0,0.0,0.0,0.0,0.0,0.0,0.0,0.0,0.0,0.0,0.0,0.0,0.0,0.0,0.0,0.0,0.0,0.0,0.0,0.0,0.0,0.0,0.0,0.0,0.0,0.0,0.0,0.0,0.0,0.0,0.0,0.0,0.0,0.0,0.0,0.0,0.0,0.0,0.0,0.0,0.0,0.0,0.0,0.0,0.0,0.0,0.0,0.0,0.0,0.0,0.0,-4.8159,-4.7463,-4.7463,-4.8314,-4.8353,-4.7966,0.0,0.0,0.0,0.0,0.0,0.0,0.0,0.0,0.0,0.0,0.0,0.0,0.0,0.0,0.0,0.0,0.0,0.0,0.0,0.0,0.0,0.0,0.0,0.0,0.0,0.0,0.0,0.0,0.0,0.0,0.0,0.0,0.0,0.0,0.0,0.0,0.0,0.0,0.0,0.0,0.0,0.0,0.0,0.0,0.0,0.0,0.0,0.0,0.0,0.0,0.0,0.0,0.0,0.0,0.0,0.0,0.0,0.0,0.0,0.0,0.0,0.0,0.0,0.0,0.0,0.0,0.0,0.0,0.0,0.0,0.0,0.0,0.0,0.0,0.0,0.0,0.0,0.0,0.0,0.0,0.0,0.0,0.0,0.0,0.0,0.0,0.0,0.0,0.0,0.0,0.0,0.0,0.0,0.0,0.0,0.0,0.0,0.0,0.0,0.0,0.0,0.0,0.0,0.0,0.0,0.0,0.0,0.0,0.0,-4.754,-4.8353,-4.8894,-4.9204,-4.8701,-4.8237,0.0,0.0,0.0,0.0,0.0,0.0,0.0,0.0,0.0,0.0,0.0,0.0,0.0,0.0,0.0,0.0,0.0,0.0,0.0,0.0,0.0,0.0,0.0,0.0,0.0,0.0,0.0,0.0,0.0,0.0,0.0,0.0,0.0,0.0,0.0,0.0,0.0,0.0,0.0,0.0,0.0,0.0,0.0,0.0,0.0,0.0,0.0,0.0,0.0,0.0,0.0,0.0,0.0,0.0,0.0,0.0,0.0,0.0,0.0,0.0,0.0,0.0,0.0,0.0,0.0,0.0,0.0,0.0,0.0,0.0,0.0,0.0,0.0,0.0,0.0,0.0,0.0,0.0,0.0,0.0,0.0,0.0,0.0,0.0,0.0,0.0,0.0,0.0,0.0,0.0,0.0,0.0,0.0,0.0,0.0,0.0,0.0,0.0,0.0,0.0,0.0,0.0,0.0,0.0,0.0,0.0,0.0,0.0,0.0,-4.7927,-4.9629,-5.0364,-5.0047,-4.9281,-4.8546,0.0,0.0,0.0,0.0,0.0,0.0,0.0,0.0,0.0,0.0,0.0,0.0,0.0,0.0,0.0,0.0,0.0,0.0,0.0,0.0,0.0,0.0,0.0,0.0,0.0,0.0,0.0,0.0,0.0,0.0,0.0,0.0,0.0,0.0,0.0,0.0,0.0,0.0,0.0,0.0,0.0,0.0,0.0,0.0,0.0,0.0,0.0,0.0,0.0,0.0,0.0,0.0,0.0,0.0,0.0,0.0,0.0,0.0,0.0,0.0,0.0,0.0,0.0,0.0,0.0,0.0,0.0,0.0,0.0,0.0,0.0,0.0,0.0,0.0,0.0,0.0,0.0,0.0,0.0,0.0,0.0,0.0,0.0,0.0,0.0,0.0,0.0,0.0,0.0,0.0,0.0,0.0,0.0,0.0,0.0,0.0,0.0,0.0,0.0,0.0,0.0,0.0,0.0,0.0,0.0,0.0,0.0,0.0,-4.7115,-4.9591,-5.1293,-5.1757,-5.0937,-5.0132,-4.8894,0.0,0.0,0.0,0.0,0.0,0.0,0.0,0.0,0.0,0.0,0.0,0.0,0.0,0.0,0.0,0.0,0.0,0.0,0.0,0.0,0.0,0.0,0.0,0.0,0.0,0.0,0.0,0.0,0.0,0.0,0.0,0.0,0.0,0.0,0.0,0.0,0.0,0.0,0.0,0.0,0.0,0.0,0.0,0.0,0.0,0.0,0.0,0.0,0.0,0.0,0.0,0.0,0.0,0.0,0.0,0.0,0.0,0.0,0.0,0.0,0.0,0.0,0.0,0.0,0.0,0.0,0.0,0.0,0.0,0.0,0.0,0.0,0.0,0.0,0.0,0.0,0.0,0.0,0.0,0.0,0.0,0.0,0.0,0.0,0.0,0.0,0.0,0.0,0.0,0.0,0.0,0.0,0.0,0.0,0.0,0.0,0.0,0.0,0.0,0.0,0.0,0.0,0.0,0.0,0.0,0.0,0.0,0.0,0.0,-4.9707,-5.1912,-5.2685,-5.1834,-5.0983,-5.0008,0.0,0.0,0.0,0.0,0.0,0.0,0.0,0.0,0.0,0.0,0.0,0.0,0.0,0.0,0.0,0.0,0.0,0.0,0.0,0.0,0.0,0.0,0.0,0.0,0.0,0.0,0.0,0.0,0.0,0.0,0.0,0.0,0.0,0.0,0.0,0.0,0.0,0.0,0.0,0.0,0.0,0.0,0.0,0.0,0.0,0.0,0.0,0.0,0.0,0.0,0.0,0.0,0.0,0.0,0.0,0.0,0.0,0.0,0.0,0.0,0.0,0.0,0.0,0.0,0.0,0.0,0.0,0.0,0.0,0.0,0.0,0.0,0.0,0.0,0.0,0.0,0.0,0.0,0.0,0.0,0.0,0.0,0.0,0.0,0.0,0.0,0.0,0.0,0.0,0.0,0.0,0.0,0.0,0.0,0.0,0.0,0.0,0.0,0.0,0.0,0.0,0.0,0.0,0.0,0.0,0.0,0.0,0.0,0.0,-5.0712,-5.2801,-5.3575,-5.2724,-5.1525,-5.0666,-5.0132,0.0,0.0,0.0,0.0,0.0,0.0,0.0,0.0,0.0,0.0,0.0,0.0,0.0,0.0,0.0,0.0,0.0,0.0,0.0,0.0,0.0,0.0,0.0,0.0,0.0,0.0,0.0,0.0,0.0,0.0,0.0,0.0,0.0,0.0,0.0,0.0,0.0,0.0,0.0,0.0,0.0,0.0,0.0,0.0,0.0,0.0,0.0,0.0,0.0,0.0,0.0,0.0,0.0,0.0,0.0,0.0,0.0,0.0,0.0,0.0,0.0,0.0,0.0,0.0,0.0,0.0,0.0,0.0,0.0,0.0,0.0,0.0,0.0,0.0,0.0,0.0,0.0,0.0,0.0,0.0,0.0,0.0,0.0,0.0,0.0,0.0,0.0,0.0,0.0,0.0,0.0,0.0,0.0,0.0,0.0,0.0,0.0,0.0,0.0,0.0,0.0,0.0,0.0,0.0,0.0,0.0,0.0,0.0,-5.219,-5.3807,-5.4233,-5.342,-5.1834,-5.0975,0.0,0.0,0.0,0.0,0.0,0.0,0.0,0.0,0.0,0.0,0.0,0.0,0.0,0.0,0.0,0.0,0.0,0.0,0.0,0.0,0.0,0.0,0.0,0.0,0.0,0.0,0.0,0.0,0.0,0.0,0.0,0.0,0.0,0.0,0.0,0.0,0.0,0.0,0.0,0.0,0.0,0.0,0.0,0.0,0.0,0.0,0.0,0.0,0.0,0.0,0.0,0.0,0.0,0.0,0.0,0.0,0.0,0.0,0.0,0.0,0.0,0.0,0.0,0.0,0.0,0.0,0.0,0.0,0.0,0.0,0.0,0.0,0.0,0.0,0.0,0.0,0.0,0.0,0.0,0.0,0.0,0.0,0.0,0.0,0.0,0.0,0.0,0.0,0.0,0.0,0.0,0.0,0.0,0.0,0.0,0.0,0.0,0.0,0.0,0.0,0.0,0.0,0.0,0.0,0.0,0.0,0.0,0.0,0.0,-5.219,-5.2655,-5.2763,-5.2539,-5.2105,-5.1563,0.0,0.0,0.0,0.0,0.0,0.0,0.0,0.0,0.0,0.0,0.0,0.0,0.0,0.0,0.0,0.0,0.0,0.0,0.0,0.0,0.0,0.0,0.0,0.0,0.0,0.0,0.0,0.0,0.0,0.0,0.0,0.0,0.0,0.0,0.0,0.0,0.0,0.0,0.0,0.0,0.0,0.0,0.0,0.0,0.0,0.0,0.0,0.0,0.0,0.0,0.0,0.0,0.0,0.0,0.0,0.0,0.0,0.0,0.0,0.0,0.0,0.0,0.0,0.0,0.0,0.0,0.0,0.0,0.0,0.0,0.0,0.0,0.0,0.0,0.0,0.0,0.0,0.0,0.0,0.0,0.0,0.0,0.0,0.0,0.0,0.0,0.0,0.0,0.0,0.0,0.0,0.0,0.0,0.0,0.0,0.0,0.0,0.0,0.0,0.0,0.0,0.0,0.0,0.0,0.0,0.0,0.0,0.0,-5.1873,-5.2724,-5.2384,-5.2028,-5.1641,-5.1989,-5.195,0.0,0.0,0.0,0.0,0.0,0.0,0.0,0.0,0.0,0.0,0.0,0.0,0.0,0.0,0.0,0.0,0.0,0.0,0.0,0.0,0.0,0.0,0.0,0.0,0.0,0.0,0.0,0.0,0.0,0.0,0.0,0.0,0.0,0.0,0.0,0.0,0.0,0.0,0.0,0.0,0.0,0.0,0.0,0.0,0.0,0.0,0.0,0.0,0.0,0.0,0.0,0.0,0.0,0.0,0.0,0.0,0.0,0.0,0.0,0.0,0.0,0.0,0.0,0.0,0.0,0.0,0.0,0.0,0.0,0.0,0.0,0.0,0.0,0.0,0.0,0.0,0.0,0.0,0.0,0.0,0.0,0.0,0.0,0.0,0.0,0.0,0.0,0.0,0.0,0.0,0.0,0.0,0.0,0.0,0.0,0.0,0.0,0.0,0.0,0.0,0.0,0.0,0.0,0.0,0.0,0.0,0.0,0.0,-5.2724,-5.3459,-5.2732,-5.1912,-5.1091,-5.1796,-5.2152,0.0,0.0,0.0,0.0,0.0,0.0,0.0,0.0,0.0,0.0,0.0,0.0,0.0,0.0,0.0,0.0,0.0,0.0,0.0,0.0,0.0,0.0,0.0,0.0,0.0,0.0,0.0,0.0,0.0,0.0,0.0,0.0,0.0,0.0,0.0,0.0,0.0,0.0,0.0,0.0,0.0,0.0,0.0,0.0,0.0,0.0,0.0,0.0,0.0,0.0,0.0,0.0,0.0,0.0,0.0,0.0,0.0,0.0,0.0,0.0,0.0,0.0,0.0,0.0,0.0,0.0,0.0,0.0,0.0,0.0,0.0,0.0,0.0,0.0,0.0,0.0,0.0,0.0,0.0,0.0,0.0,0.0,0.0,0.0,0.0,0.0,0.0,0.0,0.0,0.0,0.0,0.0,0.0,0.0,0.0,0.0,0.0,0.0,0.0,0.0,0.0,0.0,0.0,0.0,0.0,0.0,0.0,0.0,-5.3304,-5.3498,-5.3304,-5.2801,-5.195,-5.2105,-5.1873,0.0,0.0,0.0,0.0,0.0,0.0,0.0,0.0,0.0,0.0,0.0,0.0,0.0,0.0,0.0,0.0,0.0,0.0,0.0,0.0,0.0,0.0,0.0,0.0,0.0,0.0,0.0,0.0,0.0,0.0,0.0,0.0,0.0,0.0,0.0,0.0,0.0,0.0,0.0,0.0,0.0,0.0,0.0,0.0,0.0,0.0,0.0,0.0,-5.1819,0.0,0.0,0.0,0.0,0.0,0.0,0.0,0.0,0.0,0.0,0.0,0.0,0.0,0.0,0.0,0.0,0.0,0.0,0.0,0.0,0.0,0.0,0.0,0.0,0.0,0.0,0.0,0.0,0.0,0.0,0.0,0.0,0.0,0.0,0.0,0.0,0.0,0.0,0.0,0.0,0.0,0.0,0.0,0.0,0.0,0.0,0.0,0.0,0.0,0.0,0.0,0.0,0.0,0.0,0.0,0.0,0.0,0.0,0.0,-5.3923,-5.3536,-5.3923,-5.3498,-5.2306,-5.2616,-5.2376,0.0,0.0,0.0,0.0,0.0,0.0,0.0,0.0,0.0,0.0,0.0,0.0,0.0,0.0,0.0,0.0,0.0,0.0,0.0,0.0,0.0,0.0,0.0,0.0,0.0,0.0,0.0,0.0,0.0,0.0,0.0,0.0,0.0,0.0,0.0,0.0,0.0,0.0,0.0,0.0,0.0,0.0,0.0,0.0,0.0,0.0,0.0,0.0,0.0,0.0,0.0,0.0,0.0,0.0,0.0,0.0,0.0,0.0,0.0,0.0,0.0,0.0,0.0,0.0,0.0,0.0,0.0,0.0,0.0,0.0,0.0,0.0,0.0,0.0,0.0,0.0,0.0,0.0,0.0,0.0,0.0,0.0,0.0,0.0,0.0,0.0,0.0,0.0,0.0,0.0,0.0,0.0,0.0,0.0,0.0,0.0,0.0,0.0,0.0,0.0,0.0,0.0,0.0,0.0,0.0,0.0,0.0,-5.3382,-5.4619,-5.3962,-5.4619,-5.4271,-5.2848,-5.3382,-5.3343,-5.2655,0.0,0.0,0.0,0.0,0.0,0.0,0.0,0.0,0.0,0.0,0.0,0.0,0.0,0.0,0.0,0.0,0.0,0.0,0.0,0.0,0.0,0.0,0.0,0.0,0.0,0.0,0.0,0.0,0.0,0.0,0.0,0.0,0.0,0.0,0.0,0.0,0.0,0.0,-5.1193,-5.1684,0.0,0.0,0.0,0.0,0.0,0.0,0.0,0.0,-5.1587,0.0,0.0,0.0,0.0,0.0,0.0,0.0,0.0,0.0,0.0,0.0,0.0,0.0,0.0,0.0,0.0,0.0,0.0,0.0,0.0,0.0,0.0,0.0,0.0,0.0,0.0,0.0,0.0,0.0,0.0,0.0,0.0,0.0,0.0,0.0,0.0,0.0,0.0,0.0,0.0,0.0,0.0,0.0,0.0,0.0,0.0,0.0,0.0,0.0,0.0,0.0,0.0,0.0,0.0,0.0,0.0,-5.2879,-5.4813,-5.5741,-5.5625,-5.5741,-5.5664,-5.5393,-5.4851,-5.4503,-5.431,0.0,0.0,0.0,0.0,0.0,0.0,0.0,0.0,0.0,0.0,0.0,0.0,0.0,0.0,0.0,0.0,0.0,0.0,0.0,0.0,0.0,0.0,0.0,0.0,0.0,0.0,0.0,0.0,0.0,0.0,0.0,0.0,0.0,0.0,0.0,0.0,0.0,0.0,0.0,-5.2895,-5.2972,0.0,0.0,0.0,0.0,0.0,0.0,0.0,0.0,-5.2472,0.0,0.0,0.0,0.0,0.0,0.0,0.0,0.0,0.0,0.0,0.0,0.0,0.0,0.0,0.0,0.0,0.0,0.0,0.0,0.0,0.0,0.0,0.0,0.0,0.0,0.0,0.0,0.0,0.0,0.0,0.0,0.0,0.0,0.0,0.0,0.0,0.0,0.0,0.0,0.0,0.0,0.0,0.0,0.0,0.0,0.0,0.0,0.0,0.0,0.0,0.0,0.0,0.0,0.0,0.0,-5.2803,-5.485,-5.5932,-5.5932,-5.5959,-5.6007,-5.5968,-5.5221,-5.4813,0.0,0.0,0.0,0.0,0.0,0.0,0.0,0.0,0.0,0.0,0.0,0.0,0.0,0.0,0.0,0.0,0.0,0.0,0.0,0.0,0.0,0.0,0.0,0.0,0.0,0.0,0.0,0.0,0.0,0.0,0.0,0.0,0.0,0.0,0.0,0.0,0.0,0.0,0.0,0.0,-5.3203,-5.3356,-5.3818,0.0,0.0,0.0,0.0,0.0,0.0,-5.2626,-5.2779,0.0,0.0,0.0,0.0,0.0,0.0,0.0,0.0,0.0,0.0,0.0,0.0,0.0,0.0,0.0,0.0,0.0,0.0,0.0,0.0,0.0,0.0,0.0,0.0,0.0,0.0,0.0,0.0,0.0,0.0,0.0,0.0,0.0,0.0,0.0,0.0,0.0,0.0,0.0,0.0,0.0,0.0,0.0,0.0,0.0,0.0,0.0,0.0,0.0,0.0,0.0,0.0,0.0,0.0,0.0,-5.2886,-5.4853,-5.6088,-5.6358,-5.629,-5.6309,-5.6463,-5.5689,-5.5213,0.0,0.0,0.0,0.0,0.0,0.0,0.0,0.0,0.0,0.0,0.0,0.0,0.0,0.0,0.0,0.0,0.0,0.0,0.0,0.0,0.0,0.0,0.0,0.0,0.0,0.0,0.0,0.0,0.0,0.0,0.0,0.0,0.0,0.0,0.0,0.0,0.0,0.0,0.0,0.0,0.0,-5.3664,-5.4164,-5.5818,0.0,0.0,0.0,0.0,-5.2779,-5.301,0.0,0.0,0.0,0.0,0.0,0.0,0.0,0.0,0.0,0.0,0.0,0.0,0.0,0.0,0.0,0.0,0.0,0.0,0.0,0.0,0.0,0.0,0.0,0.0,0.0,0.0,0.0,0.0,0.0,0.0,0.0,0.0,0.0,0.0,0.0,0.0,0.0,0.0,0.0,0.0,0.0,0.0,0.0,0.0,0.0,0.0,0.0,0.0,0.0,0.0,0.0,0.0,0.0,0.0,0.0,0.0,-5.5355,-5.5741,-5.6628,-5.7978,-5.7371,-5.7332,-5.8104,-5.7342,-5.6599,0.0,0.0,0.0,0.0,0.0,0.0,0.0,0.0,0.0,0.0,0.0,0.0,0.0,0.0,0.0,0.0,0.0,0.0,0.0,0.0,0.0,0.0,0.0,0.0,0.0,0.0,0.0,0.0,0.0,0.0,0.0,0.0,0.0,0.0,0.0,0.0,0.0,0.0,0.0,0.0,0.0,-5.4087,-5.3433,-5.5434,-5.6676,0.0,0.0,-5.6252,-5.4472,-5.428,0.0,0.0,0.0,0.0,0.0,0.0,0.0,0.0,0.0,0.0,0.0,0.0,0.0,0.0,0.0,0.0,0.0,0.0,0.0,0.0,0.0,0.0,0.0,0.0,0.0,0.0,0.0,0.0,0.0,0.0,0.0,0.0,0.0,0.0,0.0,0.0,0.0,0.0,0.0,0.0,0.0,0.0,0.0,0.0,0.0,0.0,0.0,0.0,0.0,0.0,0.0,0.0,0.0,0.0,0.0,-5.3205,-5.5699,-5.6277,-5.7125,-5.828,-5.7955,-5.7976,-5.8322,-5.7582,-5.6792,0.0,0.0,0.0,0.0,0.0,0.0,0.0,0.0,0.0,0.0,0.0,0.0,0.0,0.0,0.0,0.0,0.0,0.0,0.0,0.0,0.0,0.0,0.0,0.0,0.0,0.0,0.0,0.0,0.0,0.0,0.0,0.0,0.0,0.0,0.0,0.0,0.0,0.0,0.0,0.0,0.0,0.0,-5.5395,-5.7088,0.0,0.0,0.0,-5.7819,-5.6175,0.0,0.0,0.0,0.0,0.0,0.0,0.0,0.0,0.0,0.0,0.0,0.0,0.0,0.0,0.0,0.0,0.0,0.0,0.0,0.0,0.0,0.0,0.0,0.0,0.0,0.0,0.0,0.0,0.0,0.0,0.0,0.0,0.0,0.0,0.0,0.0,0.0,0.0,0.0,0.0,0.0,0.0,0.0,0.0,0.0,0.0,0.0,0.0,0.0,0.0,0.0,0.0,0.0,0.0,0.0,0.0,0.0,-5.555,-5.6527,-5.7511,-5.855,-5.8346,-5.8373,-5.8746,-5.7582,0.0,0.0,0.0,0.0,0.0,0.0,0.0,0.0,0.0,0.0,0.0,0.0,0.0,0.0,0.0,0.0,0.0,0.0,0.0,0.0,0.0,0.0,0.0,0.0,0.0,0.0,0.0,-4.4098,0.0,0.0,0.0,0.0,0.0,0.0,0.0,0.0,0.0,0.0,0.0,0.0,0.0,0.0,-5.683,-5.728,-5.8742,-5.9896,0.0,0.0,-5.955,-5.7896,-5.8011,-5.8011,0.0,0.0,0.0,0.0,0.0,0.0,0.0,0.0,0.0,0.0,0.0,0.0,0.0,0.0,0.0,0.0,0.0,0.0,0.0,0.0,0.0,0.0,0.0,0.0,0.0,0.0,0.0,0.0,0.0,0.0,0.0,0.0,0.0,0.0,0.0,0.0,0.0,0.0,0.0,0.0,0.0,0.0,0.0,0.0,0.0,0.0,0.0,0.0,0.0,0.0,0.0,0.0,0.0,0.0,-5.358,-5.5301,-5.6449,-5.778,-5.9308,-5.8362,-5.8576,-6.0067,-5.7525,-5.6269,0.0,0.0,0.0,0.0,0.0,0.0,0.0,0.0,0.0,0.0,0.0,0.0,0.0,0.0,0.0,0.0,0.0,0.0,0.0,0.0,0.0,0.0,0.0,0.0,0.0,0.0,0.0,0.0,0.0,0.0,0.0,0.0,0.0,0.0,0.0,0.0,0.0,0.0,0.0,0.0,0.0,-5.6395,-5.7973,-5.9665,-6.0973,0.0,-6.1908,-6.132,-5.9627,-5.8781,-5.8011,-5.7176,0.0,0.0,0.0,0.0,0.0,0.0,0.0,0.0,0.0,0.0,0.0,0.0,0.0,0.0,0.0,0.0,0.0,0.0,0.0,0.0,0.0,0.0,0.0,0.0,0.0,0.0,0.0,0.0,0.0,0.0,0.0,0.0,0.0,0.0,0.0,0.0,0.0,0.0,0.0,0.0,0.0,0.0,0.0,0.0,0.0,0.0,0.0,0.0,0.0,0.0,0.0,0.0,0.0,-5.4068,-5.5689,-5.6692,-5.7967,-5.954,-5.9703,-5.9832,-5.9946,-5.8872,-5.7885,0.0,0.0,0.0,0.0,0.0,0.0,0.0,0.0,0.0,0.0,0.0,0.0,0.0,0.0,0.0,0.0,0.0,0.0,0.0,0.0,0.0,0.0,0.0,0.0,0.0,0.0,0.0,0.0,-4.6475,-4.6921,-4.7218,0.0,0.0,0.0,0.0,0.0,0.0,0.0,0.0,0.0,0.0,-5.8704,-5.8357,-6.0204,0.0,0.0,-6.2397,-6.205,-6.1858,-6.1166,-6.0512,-6.0215,-5.9407,0.0,0.0,0.0,0.0,0.0,0.0,0.0,0.0,0.0,0.0,0.0,0.0,0.0,0.0,0.0,0.0,0.0,0.0,0.0,0.0,0.0,0.0,0.0,0.0,0.0,0.0,0.0,-4.5656,0.0,0.0,0.0,0.0,0.0,0.0,0.0,0.0,0.0,0.0,0.0,0.0,0.0,0.0,0.0,0.0,0.0,0.0,0.0,0.0,0.0,0.0,0.0,0.0,-5.4185,-5.5832,-5.7056,-5.8467,-6.0042,-6.0585,-6.0798,-6.0629,-5.9618,-5.8507,-5.7477,0.0,0.0,0.0,0.0,0.0,0.0,0.0,0.0,0.0,0.0,0.0,0.0,0.0,0.0,0.0,0.0,0.0,0.0,0.0,0.0,0.0,0.0,0.0,0.0,0.0,0.0,0.0,-4.7813,-4.8519,-4.8779,0.0,0.0,0.0,0.0,0.0,0.0,0.0,0.0,0.0,0.0,-6.0473,-5.9588,-6.1396,-6.3051,-6.3628,-6.3205,-6.2935,-6.3243,-6.2627,-6.2101,-6.2101,0.0,0.0,0.0,0.0,0.0,0.0,0.0,0.0,0.0,0.0,0.0,0.0,0.0,0.0,0.0,0.0,0.0,0.0,0.0,0.0,0.0,0.0,0.0,0.0,0.0,0.0,0.0,-4.7959,0.0,0.0,-4.6597,0.0,0.0,0.0,0.0,0.0,0.0,0.0,0.0,0.0,0.0,0.0,0.0,0.0,0.0,0.0,0.0,0.0,0.0,0.0,0.0,0.0,0.0,-5.3921,-5.5535,-5.7477,-5.9268,-6.0897,-6.0677,-6.128,-6.2595,-5.9448,-5.7709,-5.7959,0.0,0.0,0.0,0.0,0.0,0.0,0.0,0.0,0.0,0.0,0.0,0.0,0.0,0.0,0.0,0.0,0.0,0.0,0.0,0.0,0.0,0.0,0.0,0.0,0.0,0.0,-4.7701,-4.9113,-5.0376,0.0,0.0,0.0,0.0,0.0,0.0,0.0,0.0,0.0,-5.7981,-5.9704,-6.1089,-6.187,-6.3474,-6.4512,-6.4589,-6.4589,-6.4282,-6.3538,-6.2704,-6.2101,0.0,0.0,0.0,0.0,0.0,0.0,0.0,0.0,0.0,0.0,0.0,0.0,0.0,0.0,0.0,0.0,0.0,0.0,0.0,0.0,0.0,0.0,0.0,0.0,0.0,0.0,0.0,-4.9667,-4.9625,0.0,0.0,0.0,0.0,0.0,0.0,0.0,0.0,0.0,-5.1904,0.0,-5.1911,-5.3047,0.0,0.0,0.0,0.0,0.0,0.0,0.0,0.0,0.0,0.0,0.0,0.0,-5.4913,-5.6032,-5.7734,-5.9437,-6.1082,-6.1537,-6.2034,-6.254,-6.1385,-6.0024,-5.851,0.0,0.0,0.0,-5.2192,0.0,0.0,0.0,0.0,0.0,0.0,0.0,0.0,0.0,0.0,0.0,0.0,0.0,0.0,0.0,0.0,0.0,0.0,0.0,0.0,0.0,-5.0673,0.0,0.0,0.0,0.0,0.0,0.0,0.0,0.0,0.0,0.0,-5.5684,-5.7338,-5.8578,-6.0442,-6.1923,-6.2732,-6.4296,-6.5526,0.0,0.0,-6.6319,0.0,0.0,0.0,0.0,0.0,0.0,0.0,0.0,0.0,0.0,-6.1646,-6.0802,-5.8575,-5.8153,-5.8203,-5.8212,0.0,0.0,0.0,0.0,0.0,0.0,0.0,0.0,0.0,0.0,0.0,0.0,0.0,0.0,-5.1423,-5.1483,-5.0963,0.0,0.0,0.0,0.0,0.0,0.0,0.0,0.0,-5.346,-5.3982,-5.3346,-5.4703,-5.5013,-5.4293,-5.3558,-5.2823,0.0,0.0,0.0,0.0,0.0,0.0,0.0,0.0,-5.5726,-5.71,-5.8438,-5.9924,-6.1558,-6.2413,-6.2822,-6.2822,-6.2264,-6.1076,-5.9181,-5.7583,-5.6729,0.0,0.0,0.0,0.0,0.0,0.0,0.0,0.0,0.0,0.0,0.0,0.0,0.0,0.0,0.0,0.0,0.0,0.0,0.0,0.0,0.0,0.0,0.0,-5.2308,0.0,0.0,0.0,0.0,0.0,0.0,0.0,0.0,0.0,-5.5075,-5.6688,-5.8213,-5.9235,-6.1524,-6.3321,-6.3936,0.0,0.0,0.0,0.0,0.0,0.0,0.0,-6.6792,-6.6159,-6.5866,-6.515,-6.3395,-6.3075,-6.319,-6.3431,0.0,0.0,-6.0252,-5.9727,-5.966,-5.9676,-5.9676,-5.9662,-5.9557,-5.9637,-6.015,0.0,0.0,0.0,0.0,-5.2965,0.0,0.0,0.0,-5.3018,-5.3277,0.0,-5.2769,0.0,0.0,0.0,0.0,-5.1042,-5.2548,0.0,0.0,-5.416,-5.4533,-5.4591,-5.5449,-5.5897,-5.5897,-5.5225,-5.5266,-5.5842,-5.2897,-5.1768,0.0,0.0,0.0,0.0,0.0,-5.632,-5.8624,-5.9531,-6.0757,-6.2339,-6.3193,-6.3602,-6.3542,-6.2079,-6.089,-5.9998,-5.8475,-5.7583,-5.7509,-5.5243,0.0,0.0,0.0,0.0,0.0,0.0,0.0,0.0,0.0,0.0,0.0,0.0,0.0,0.0,0.0,0.0,0.0,0.0,0.0,0.0,-5.1491,0.0,0.0,0.0,0.0,0.0,0.0,0.0,0.0,0.0,-5.6973,-5.678,-5.8014,-5.9234,-6.0036,0.0,0.0,0.0,0.0,-6.8133,-6.8118,-6.8133,-6.8133,-6.8148,-6.7458,-6.6897,-6.6897,0.0,0.0,-6.5427,-6.5388,-6.5038,-6.4329,-6.3802,-6.3432,-6.3131,-6.2559,-6.2319,-6.2319,-6.2243,-6.2281,-6.1913,-6.1873,-6.2385,-5.7149,0.0,0.0,0.0,0.0,-5.4457,-5.488,-5.5581,-5.5556,-5.595,-5.6553,-5.5161,0.0,0.0,0.0,0.0,0.0,0.0,-5.4913,-5.4913,-5.5177,-5.5272,-5.5309,-5.5551,-5.5956,-5.6507,-5.5779,-5.5837,-5.6536,-5.5165,-5.5036,-5.6,0.0,0.0,0.0,0.0,-5.8029,-5.8772,-6.0667,-6.193,-6.2413,-6.3171,-6.3602,-6.3602,-6.2599,-6.1967,-6.1707,-6.011,-5.8937,-5.8364,-5.7138,0.0,0.0,0.0,0.0,0.0,0.0,0.0,0.0,0.0,0.0,0.0,0.0,0.0,0.0,0.0,0.0,0.0,0.0,0.0,-5.3014,-5.3569,-5.4235,0.0,0.0,0.0,0.0,0.0,0.0,0.0,0.0,0.0,-5.9235,-5.9636,-6.0501,0.0,0.0,-6.4972,-6.6219,-6.6805,-6.7127,-6.7127,-6.7164,0.0,-6.7593,-6.7463,-6.72,-6.6797,-6.529,-6.4191,-6.4462,-6.4029,-6.3764,-6.4048,-6.4011,-6.3917,-6.3746,-6.271,-6.1957,-6.1917,-6.1935,-6.1935,-6.1843,-6.1916,-6.2233,-5.9749,-5.7742,-5.6624,-5.6192,-5.6231,-5.5851,-5.6156,-5.6962,-5.6882,-5.7363,-5.8072,-5.6781,-5.6308,-5.6399,-5.4998,0.0,0.0,0.0,-5.5633,-5.5633,-5.6271,-5.6528,-5.6602,-5.7189,-5.774,-5.818,-5.7455,-5.7514,-5.8286,-5.7626,-5.7965,-5.9181,0.0,-5.7283,-5.8438,-5.8958,-5.9515,-6.0221,-6.1633,-6.2562,-6.2874,-6.3379,-6.3602,-6.3602,-6.3119,-6.2859,-6.2859,-6.1596,-6.0645,-6.0163,-5.8772,-5.7546,0.0,0.0,0.0,0.0,0.0,0.0,0.0,0.0,0.0,0.0,0.0,-4.9893,-4.9893,0.0,0.0,0.0,-5.3199,-5.3701,-5.4627,-5.5104,0.0,0.0,0.0,0.0,0.0,0.0,0.0,-5.7523,-5.8377,-5.9361,-6.0832,-6.1666,-6.2554,-6.3578,-6.4711,-6.5741,-6.6541,0.0,-6.7054,-6.6736,-6.6681,-6.6819,-6.7052,-6.6842,-6.6422,-6.579,-6.4628,-6.3861,-6.4044,-6.3663,-6.3551,-6.4001,-6.4233,-6.4353,-6.4353,-6.3621,-6.2886,-6.2504,-6.2395,-6.2375,-6.2251,-6.2317,-6.2606,-6.2311,-6.1902,-5.9569,-5.8497,-5.8311,-5.745,-5.7308,-5.7646,-5.7662,-5.8078,-5.8662,-5.7889,-5.7691,-5.7922,-5.6905,0.0,-5.589,-5.5941,-5.6037,-5.6051,-5.7519,-5.818,-5.8253,-5.9685,-6.0419,-6.0456,-5.9779,-5.9886,-6.0585,-5.9978,-6.049,-6.1952,-5.922,-5.8513,-5.9993,-6.0067,-6.0809,-6.2331,-6.2428,-6.2836,-6.3602,-6.3602,-6.3602,-6.3602,-6.3602,-6.3602,-6.3602,-6.2874,-6.245,-6.2339,-6.0221,-5.8958,-5.8735,0.0,0.0,0.0,0.0,0.0,0.0,0.0,0.0,0.0,0.0,0.0,0.0,0.0,0.0,-5.4053,-5.5463,0.0,-5.6101,-5.6138,0.0,0.0,0.0,-5.4933,-5.4791,-5.5506,-5.6272,-5.7005,0.0,0.0,-6.1704,-6.3759,-6.4781,-6.3711,-6.5561,-6.6914,-6.6555,-6.7048,-6.7278,-6.6395,-6.6287,-6.6287,-6.6199,-6.5827,-6.5226,-6.451,-6.4186,-6.4278,-6.4254,-6.4233,-6.4179,-6.4233,-6.451,-6.4735,-6.4735,-6.4955,-6.4977,-6.3799,-6.3668,-6.353,-6.3186,-6.339,-6.3576,-6.4262,-6.3818,-6.245,-6.1427,-6.0773,-6.0529,-6.0492,-6.0567,-6.0567,-6.068,-6.0792,-5.9681,-5.876,-5.8002,-5.8334,-5.8419,-5.834,-5.8988,-5.9245,-5.9281,-5.9648,-5.9832,-5.9869,-6.0236,-6.0713,-6.1227,-6.0517,-6.0577,-6.1312,-6.0564,-6.1077,-6.2621,-6.2006,-6.1597,-6.1491,-6.1491,-6.1675,-6.2082,-6.2789,-6.3288,-6.3579,-6.3602,-6.3602,-6.3602,-6.3602,-6.3602,-6.3602,-6.3416,-6.3022,-6.245,-6.1819,-6.0927,-5.9664,-5.9048,0.0,0.0,0.0,0.0,0.0,0.0,0.0,0.0,0.0,-5.3199,-5.3085,0.0,-5.6413,0.0,-5.6528,-5.6491,-5.6013,-5.6467,0.0,0.0,-5.7376,-5.7332,-5.722,-5.7344,-5.802,-5.9391,-6.0236,-6.1153,-6.2365,-6.3613,-6.4288,-6.4008,-6.4991,-6.5716,-6.5644,-6.5226,-6.493,-6.4733,-6.424,-6.3854,-6.4294,-6.4903,-6.5153,-6.4621,-6.5061,-6.5371,-6.5066,-6.5029,-6.4992,-6.5029,-6.5102,-6.5149,-6.5175,-6.5243,-6.5217,-6.494,-6.4855,-6.483,-6.4739,-6.4779,-6.483,-6.5357,-6.5027,-6.4439,-6.3844,-6.3119,-6.1692,-6.1188,-6.1338,-6.1317,-6.1419,-6.1541,-6.091,-6.0131,-5.9382,-5.9825,-5.9909,-5.9758,-6.0199,-6.0419,-6.0419,-6.075,-6.0933,-6.0933,-6.13,-6.1704,-6.2108,-6.2071,-6.2291,-6.2695,-6.2622,-6.3087,-6.4007,-6.4044,-6.3812,-6.3481,-6.3566,-6.3761,-6.4131,-6.4348,-6.454,-6.4693,-6.4716,-6.4902,-6.5236,-6.4879,-6.4902,-6.5236,-6.4939,-6.4531,-6.4085,-6.3676,-6.2874,-6.1508,-6.0803,-6.0002,0.0,0.0,0.0,0.0,0.0,0.0,0.0,0.0,0.0,0.0,0.0,-5.7845,-5.812,-5.809,-5.8054,-5.7988,-5.8017,-5.823,-5.8603,-5.864,-5.8617,-5.8547,-5.8547,-5.9024,-6.0272,-6.1043,-6.1814,-6.2732,-6.3906,-6.4494,-6.4163,-6.4494,-6.4751,-6.4714,-6.4347,-6.398,-6.3576,-6.3429,-6.3615,-6.4192,-6.486,-6.525,-6.5064,-6.5361,-6.5558,-6.5353,-6.5338,-6.5338,-6.5338,-6.5595,-6.5852,-6.5852,-6.6145,-6.6439,-6.6769,-6.6623,-6.6145,-6.5485,-6.5338,-6.5338,-6.6184,-6.5854,-6.5829,-6.558,-6.5081,-6.2254,-6.1245,-6.156,-6.1448,-6.1571,-6.1905,-6.1926,-6.1794,-6.156,-6.156,-6.1371,-6.1043,-6.1043,-6.1043,-6.108,-6.1741,-6.2071,-6.2108,-6.2768,-6.311,-6.3172,-6.387,-6.4237,-6.4273,-6.4971,-6.5375,-6.5448,-6.5448,-6.5558,-6.5742,-6.5716,-6.6026,-6.6616,-6.5965,-6.5777,-6.6067,-6.6067,-6.6402,-6.7009,-6.6304,-6.6267,-6.7009,-6.6229,-6.5858,-6.6007,-6.5227,-6.4341,-6.3544,-6.2211,-6.0981,0.0,-5.9183,0.0,0.0,0.0,0.0,0.0,0.0,0.0,0.0,-5.798,-5.894,-5.9788,-5.9862,-6.0075,-6.0549,-5.9923,-5.9472,-5.9355,-5.9331,-5.9368,-5.9331,-5.9441,-5.9795,-6.0493,-6.1887,-6.2805,-6.2879,-6.4101,-6.4677,-6.4016,-6.4053,-6.4163,-6.4127,-6.409,-6.3833,-6.3062,-6.3686,-6.4482,-6.5033,-6.5364,-6.55,-6.5474,-6.5658,-6.5668,-6.5888,-6.5888,-6.5852,-6.6072,-6.6659,-6.7026,-6.6953,-6.7577,-6.8164,-6.8605,-6.8201,-6.7393,-6.6292,-6.5852,-6.5595,-6.7308,-6.6666,-6.6438,-6.5941,-6.5264,-6.464,-6.4434,-6.4437,-6.38,-6.3555,-6.3628,-6.3628,-6.3947,-6.4474,-6.4474,-6.446,-6.4383,-6.4383,-6.4383,-6.4383,-6.453,-6.4604,-6.4604,-6.4751,-6.4824,-6.4861,-6.5007,-6.5081,-6.5081,-6.5228,-6.5632,-6.6256,-6.6256,-6.6953,-6.8091,0.0,0.0,0.0,-6.5029,-6.504,-6.579,-6.5888,-6.5962,-6.6049,-6.5199,0.0,-6.5817,-6.4523,-6.4375,-6.5595,-6.4929,0.0,-6.4216,0.0,0.0,0.0,0.0,0.0,-6.0143,0.0,0.0,0.0,-6.0722,-5.9692,-5.7295,-5.8846,-6.0344,-6.1116,-6.1226,-6.1005,-6.048,-6.0296,-6.0223,-6.0162,-6.0162,-6.0199,-6.0199,-6.075,-6.1227,-6.1374,-6.2218,-6.2805,-6.2842,-6.311,-6.3282,-6.3209,-6.3649,-6.4053,-6.4127,-6.4127,-6.4053,-6.3943,-6.4567,-6.5118,-6.5301,-6.5925,-6.6366,-6.6329,-6.6843,-6.743,-6.7981,-6.8164,-6.8458,-6.8898,-6.9302,-6.9339,-6.9339,-6.9559,-6.9376,-6.8972,-6.8752,-6.8605,-6.8274,-6.7687,-6.721,-6.7874,-6.7377,-6.7221,-6.6922,0.0,-6.6476,-6.6476,-6.6402,-6.5228,-6.4714,-6.4714,-6.4677,-6.4934,-6.5338,-6.5338,-6.5338,-6.5338,-6.5338,-6.5338,-6.5338,-6.5338,-6.5338,-6.5338,-6.5338,-6.5338,-6.5338,-6.5705,-6.5888,-6.5925,-6.6292,-6.6696,-6.7063,-6.71,-6.7504,-6.8238,-6.71,-6.6187,-6.5506,-6.5114,-6.5177,-6.5706,-6.573,-6.5952,-6.6285,-6.5509,0.0,0.0,0.0,0.0,0.0,0.0,0.0,0.0,-6.4353,-6.3775,-6.2487,-6.2389,-6.2045,-6.1308,-6.1494,-6.1667,-6.1691,-6.201,-6.1361,-5.9412,-6.07,-6.1594,-6.1594,-6.1961,-6.2034,-6.163,-6.1227,-6.1153,-6.152,-6.1594,-6.1594,-6.163,-6.1924,-6.2181,-6.2218,-6.2548,-6.2805,-6.2805,-6.3209,-6.3429,-6.3466,-6.4163,-6.4714,-6.4714,-6.4677,-6.4787,-6.5191,-6.5595,-6.6182,-6.6953,-6.7357,-6.7871,-6.8238,-6.8605,-6.9009,-6.9412,-6.9486,-6.9633,-7.0036,-7.011,-7.0,-6.9596,-6.9522,-6.9376,-6.8972,-6.8605,-6.8495,-6.8752,-6.8274,-6.7687,-6.8158,-6.7952,-6.7889,-6.7847,-6.7687,-6.7687,-6.7687,-6.7577,-6.6145,0.0,0.0,-6.5521,-6.5595,-6.5705,-6.5742,-6.5742,-6.5742,-6.5742,-6.5742,-6.5742,-6.5742,-6.5742,-6.5742,-6.5742,-6.5705,-6.5778,-6.6402,-6.6696,-6.6733,-6.7357,-6.7687,-6.7687,-6.7687,-6.764,-6.743,-6.6843,-6.6161,-6.5492,-6.5481,-6.563,-6.5866,-6.5755,-6.5977,-6.6641,-6.5841,-6.5804,-6.6554,-6.5669,-6.53,-6.5595,-6.5484,-6.509,-6.4328,-6.4266,-6.3812,-6.2879,-6.2805,-6.2511,-6.1887,-6.2438,-6.2511,-6.1851,-6.2438,-6.2511,-6.1851,-6.2438,-6.2548,-6.1851,-6.2438,-6.2805,-6.2805,-6.2218,-6.2071,-6.2768,-6.2805,-6.2805,-6.2805,-6.2805,-6.2842,-6.2989,-6.3062,-6.3135,-6.3319,-6.387,-6.431,-6.442,-6.5007,-6.5632,-6.5668,-6.5632,-6.5778,-6.6476,-6.6843,-6.743,-6.8495,-6.8972,-6.9376,-6.9779,-7.0,-7.0146,-7.0257,-7.0293,-7.0367,-7.0624,-7.0513,-7.033,-6.9743,-6.9779,-6.9486,-6.9376,-6.8825,-6.8458,-6.8898,-6.8605,-6.8091,-6.8208,-6.8081,-6.7941,-6.782,-6.7687,-6.7687,-6.7687,-6.764,-6.6733,-6.6329,-6.6329,-6.6329,-6.6733,-6.7357,-6.7357,-6.7357,-6.7357,-6.7357,-6.7357,-6.7357,-6.7357,-6.7357,-6.7357,-6.7357,-6.7357,-6.7357,-6.7467,-6.7504,-6.754,-6.7614,-6.7687,-6.7687,-6.7687,-6.7383,-6.6733,-6.6549,-6.6109,-6.5364,-6.543,-6.5863,-6.6526,-6.59,-6.5568,-6.5642,-6.4805,-6.4692,-6.5463,-6.4067,-6.3883,-6.5243,-6.4692,-6.4251,-6.4141,-6.4177,-6.3748,-6.2879,-6.2805,-6.2768,-6.2658,-6.2732,-6.2768,-6.2658,-6.2707,-6.2768,-6.2658,-6.2732,-6.2743,-6.2658,-6.2743,-6.2805,-6.2805,-6.2732,-6.2707,-6.2817,-6.2842,-6.2842,-6.2915,-6.2915,-6.3172,-6.3833,-6.3906,-6.42,-6.4714,-6.5007,-6.5118,-6.5264,-6.5925,-6.6586,-6.71,-6.6769,-6.6696,-6.7393,-6.8128,-6.8605,-6.9082,-6.9522,-7.0,-7.0073,-7.0257,-7.0587,-7.1174,-7.1248,-7.1431,-7.1982,-7.1982,-7.1945,-7.1798,-7.1982,-7.1505,-7.0917,-7.055,-7.0403,-7.0036,-6.9743,-6.9265,-6.8183,-6.8004,-6.7952,-6.782,-6.7687,-6.7687,-6.7687,-6.7687,-6.776,-6.7797,-6.7871,-6.8274,-6.8421,-6.8348,-6.8348,-6.8091,-6.7687,-6.7687,-6.7687,-6.7687,-6.7687,-6.7687,-6.7687,-6.7687,-6.7687,-6.7687,-6.7687,-6.7687,-6.7687,-6.7687,-6.7687,-6.7687,-6.7687,-6.7504,-6.7173,-6.7136,-6.6733,-6.5962,-6.5132,-6.4926,-6.5257,-6.4485,-6.4019,-6.4019,-6.3601,-6.3576,-6.3918,-6.3649,-6.387,-6.464,-6.4714,-6.4751,-6.4751,-6.4751,-6.4567,-6.42,-6.4138,-6.4163,-6.4163,-6.4567,-6.4824,-6.4824,-6.5228,-6.5264,-6.4824,-6.4016,-6.3319,-6.2853,-6.3209,-6.3503,-6.3503,-6.3503,-6.3686,-6.4127,-6.4138,-6.4163,-6.4138,-6.4138,-6.4347,-6.4677,-6.4751,-6.4897,-6.5264,-6.5705,-6.5962,-6.6035,-6.6953,-6.8054,-6.8788,-6.8274,-6.7907,-6.8311,-6.8678,-6.9302,-7.0,-7.0477,-7.1064,-7.1872,-7.2055,-7.2202,-7.2569,-7.2606,-7.2569,-7.2496,-7.2532,-7.2312,-7.2018,-7.1835,-7.1651,-7.1431,-7.0917,-7.0624,-7.0624,-7.044,-6.9853,-6.8158,-6.7915,-6.7889,-6.782,-6.7714,-6.7687,-6.7687,-6.776,-6.8531,-6.8898,-6.9009,-6.9559,-6.9376,-6.8678,-6.8641,-6.8274,-6.7724,-6.7687,-6.7687,-6.7687,-6.7687,-6.7687,-6.7687,-6.7687,-6.7687,-6.7687,-6.7687,-6.7687,-6.7687,-6.7687,-6.7687,-6.7687,-6.7687,-6.7687,-6.7687,-6.7687,-6.7357,-6.6733,-6.5375,-6.453,-6.4347,-6.3539,-6.3172,-6.3356,-6.3392,-6.333,-6.3392,-6.4016,-6.4383,-6.4383,-6.4971,-6.5338,-6.5338,-6.5338,-6.5338,-6.5338,-6.5338,-6.5338,-6.5338,-6.5888,-6.6256,-6.6256,-6.6806,-6.688,-6.6219,-6.5118,-6.4127,-6.3576,-6.4016,-6.4347,-6.4347,-6.4383,-6.464,-6.5228,-6.5338,-6.5228,-6.5301,-6.5338,-6.5411,-6.5521,-6.5595,-6.5705,-6.6145,-6.6659,-6.7063,-6.7283,-6.8164,-6.9082,-6.9412,-6.8972,-6.8752,-6.9155,-6.9302,-7.0036,-7.1358,-7.1953,-7.2642,-7.3854,-7.3707,-7.3523,-7.3523,-7.3523,-7.323,-7.2642,-7.2532,-7.2459,-7.1982,-7.1945,-7.2092,-7.2239,-7.2018,-7.1615,-7.2129,-7.1872,-7.0844,-6.8234,-6.807,-6.7941,-6.782,-6.7714,-6.7687,-6.7687,-6.7797,-6.8568,-6.8898,-6.8862,-6.9009,-6.8605,-6.7871,-6.7834,-6.7797,-6.7687,-6.7687,-6.7687,-6.7687,-6.7687,-6.7687,-6.7687,-6.7687,-6.7687,-6.7687,-6.7687,-6.7687,-6.7687,-6.7687,-6.7687,-6.7687,-6.7687,-6.7687,-6.7687,-6.7687,-6.765,-6.754,-6.6733,-6.5925,-6.5191,-6.4383,-6.4347,-6.5081,-6.5081,-6.5081,-6.4971,-6.5154,-6.5191,-6.5191,-6.5301,-6.5338,-6.5338,-6.5338,-6.5338,-6.5375,-6.5338,-6.5338,-6.5338,-6.5349,-6.5558,-6.5411,-6.5705,-6.5778,-6.5632,-6.5411,-6.5191,-6.5154,-6.5228,-6.5154,-6.5191,-6.5191,-6.5264,-6.5485,-6.5521,-6.5338,-6.5485,-6.5338,-6.5595,-6.6329,-6.6586,-6.6916,-6.8128,-6.8458,-6.8568,-6.8568,-6.8678,-6.8862,-6.8641,-6.8348,-6.8715,-6.9779,-7.0587,-7.1321,-7.2275,-7.367,-7.4147,-7.4551,-7.4147,-7.3891,-7.3744,-7.3303,-7.2606,-7.3083,-7.2716,-7.2863,-7.3266,-7.3487,-7.367,-7.4074,-7.4147,-7.4368,-7.4551,-7.4258,-7.323,-6.8234,-6.807,-6.7941,-6.7847,-6.7714,-6.7687,-6.7687,-6.776,-6.8568,-6.8641,-6.8274,-6.8678,-6.8715,-6.8421,-6.8421,-6.8164,-6.7714,-6.7687,-6.7687,-6.7687,-6.7687,-6.7687,-6.7687,-6.7687,-6.7687,-6.7687,-6.7687,-6.7687,-6.7687,-6.7687,-6.7687,-6.776,-6.8128,-6.8164,-6.7797,-6.8164,-6.7944,-6.699,-6.6236,-6.5907,-6.5909,-6.5228,-6.4971,-6.5264,-6.5338,-6.5338,-6.5375,-6.5742,-6.5999,-6.6035,-6.6439,-6.6696,-6.6733,-6.6696,-6.6733,-6.6733,-6.6696,-6.6696,-6.6733,-6.7136,-6.743,-6.743,-6.7871,-6.8128,-6.8128,-6.8128,-6.8128,-6.7944,-6.6439,-6.5485,-6.5962,-6.5999,-6.6182,-6.6659,-6.7136,-6.7393,-6.743,-6.7834,-6.8274,-6.8605,-6.8605,-6.8788,-6.9339,-6.9192,-6.9155,-6.9376,-6.9265,-6.9082,-6.9559,-6.9449,-6.9816,-7.1101,-7.1835,-7.2092,-7.2569,-7.3413,-7.4111,-7.4221,-7.4331,-7.4404,-7.4331,-7.4221,-7.3927,-7.3891,-7.3817,-7.3891,-7.4331,-7.4441,-7.4625,-7.5322,-7.5579,-7.5506,-7.4999,-7.4888,-7.4147,-6.8208,-6.807,-6.7889,-6.7794,-6.7687,-6.7687,-6.7687,-6.776,-6.8311,-6.8238,-6.776,-6.8348,-6.8568,-6.8568,-6.8568,-6.8238,-6.7724,-6.7687,-6.7687,-6.7687,-6.7687,-6.7687,-6.7687,-6.7687,-6.7687,-6.7687,-6.7687,-6.7687,-6.7724,-6.7944,-6.8017,-6.8128,-6.8641,-6.8605,-6.81,-6.8284,-6.7735,-6.6619,-6.583,-6.5714,-6.6114,-6.5696,-6.5569,-6.5909,-6.5962,-6.5962,-6.5962,-6.6512,-6.6726,-6.6564,-6.714,-6.7423,-6.7474,-6.7445,-6.764,-6.7999,-6.8064,-6.8147,-6.8348,-6.8898,-6.9229,-6.9265,-6.9779,-7.0,-6.9816,-6.9779,-6.9669,-6.9155,-6.732,-6.6402,-6.732,-6.7504,-6.776,-6.8311,-6.8935,-6.9229,-6.9229,-6.9779,-7.0,-7.011,-6.9853,-7.011,-7.0073,-6.9816,-6.9816,-6.9926,-6.9816,-6.9743,-7.066,-7.044,-7.055,-7.1908,-7.2129,-7.2386,-7.2753,-7.3634,-7.3964,-7.4404,-7.4955,-7.5212,-7.5249,-7.5212,-7.4992,-7.4625,-7.4882,-7.5065,-7.5212,-7.5285,-7.5469,-7.6166,-7.6497,-7.6387,-7.5946,-7.5622,-7.5586,-6.8095,-6.8081,-6.782,-6.7714,-6.7687,-6.7687,-6.7687,-6.7714,-6.7787,-6.7724,-6.7714,-6.776,-6.776,-6.7797,-6.7834,-6.7724,-6.7687,-6.7687,-6.7687,-6.7687,-6.7687,-6.7687,-6.7687,-6.7687,-6.7687,-6.7687,-6.7687,-6.7724,-6.7797,-6.8495,-6.8862,-6.8834,-6.888,-6.8871,-6.844,-6.744,-6.6809,-6.6569,-6.593,-6.5649,-6.5681,-6.5645,-6.6229,-6.7323,-6.7513,-6.7423,-6.7523,-6.7614,-6.7369,-6.6729,-6.6801,-6.6825,-6.6817,-6.6825,-6.7397,-6.8578,-6.8814,-6.912,-6.9575,-6.9705,-6.9806,-6.9935,-6.9916,-6.9816,-6.9265,-6.9192,-6.8898,-6.7981,-6.8017,-6.8385,-6.9559,-6.9376,-6.9449,-6.9596,-6.9853,-6.9926,-6.9963,-6.9935,-7.0073,-7.0155,-7.0265,-7.0339,-7.0229,-7.077,-7.0632,-7.0449,-7.0669,-7.0926,-7.0412,-7.022,-7.066,-7.1321,-7.1725,-7.1945,-7.334,-7.4147,-7.4955,-7.5322,-7.5395,-7.5946,-7.6019,-7.5983,-7.5579,-7.5322,-7.5322,-7.5542,-7.5909,-7.6203,-7.6423,-7.6937,-7.7561,-7.7488,-7.6686,-7.7017,-7.6943,-6.803,-6.7847,-6.7741,-6.7687,-6.7687,-6.7687,-6.7687,-6.7687,-6.7687,-6.7687,-6.7687,-6.7687,-6.7687,-6.7687,-6.7687,-6.7687,-6.7687,-6.7687,-6.7687,-6.7687,-6.7687,-6.7687,-6.7687,-6.7687,-6.7687,-6.7687,-6.7687,-6.7981,-6.8531,-6.9265,-6.9181,-6.8473,-6.8772,-6.8341,-6.7053,-6.6808,-6.654,-6.6048,-6.5729,-6.5916,-6.6281,-6.6412,-6.6894,-6.7693,-6.7353,-6.7353,-6.7827,-6.8288,-6.8011,-6.6828,-6.7198,-6.7023,-6.6185,-6.6053,-6.6221,-6.6729,-6.6796,-6.6957,-6.7209,-6.7739,-6.8211,-6.8677,-6.9172,-6.966,-6.9659,-6.9669,-6.9522,-6.9449,-7.0257,-7.1064,-7.0954,-6.9853,-6.8568,-6.8641,-6.8999,-6.942,-6.9282,-6.9555,-6.9973,-7.0485,-7.1055,-7.1479,-7.1311,-7.1238,-7.1011,-7.0595,-7.0383,-7.0441,-7.071,-7.0739,-7.1244,-7.243,-7.2863,-7.323,-7.4221,-7.4661,-7.5035,-7.5322,-7.5579,-7.5946,-7.613,-7.6276,-7.6019,-7.6313,-7.624,-7.624,-7.6717,-7.7157,-7.731,-7.7157,-7.7855,-7.8112,-7.7347,-7.731,-7.731,-6.7952,-6.7714,-6.7687,-6.7687,-6.7687,-6.7687,-6.7687,-6.7687,-6.7687,-6.7687,-6.7687,-6.7687,-6.7687,-6.7687,-6.7687,-6.7687,-6.7687,-6.7687,-6.7687,-6.7687,-6.7687,-6.7687,-6.7687,-6.7687,-6.7861,-6.8091,-6.8348,-6.8669,-6.8958,-6.9725,-6.9332,-6.8069,-6.8471,-6.782,-6.63,-6.6109,-6.5871,-6.5599,-6.5478,-6.5724,-6.639,-6.6565,-6.6914,-6.7447,-6.7093,-6.7157,-6.7881,-6.8371,-6.8124,-6.7105,-6.7293,-6.7121,-6.6206,-6.6246,-6.6524,-6.6727,-6.6796,-6.6894,-6.716,-6.7852,-6.853,-6.9037,-6.9999,-7.0734,-7.0926,-7.1101,-7.1109,-7.1191,-7.1676,-7.2446,-7.1984,-7.0381,-6.9338,-6.9898,-7.0429,-7.0674,-7.071,-7.1128,-7.1619,-7.213,-7.2453,-7.2606,-7.2436,-7.1815,-7.142,-7.1185,-7.0741,-7.0829,-7.1319,-7.1809,-7.2233,-7.345,-7.3854,-7.4331,-7.5028,-7.5395,-7.5506,-7.5726,-7.613,-7.635,-7.646,-7.657,-7.6754,-7.7157,-7.731,-7.731,-7.753,-7.8007,-7.7897,-7.7567,-7.8038,-7.8589,-7.7928,-7.731,-7.731,-6.7952,-6.7714,-6.7687,-6.766,-6.7687,-6.7542,-6.7596,-6.7569,-6.7633,-6.7569,-6.7542,-6.7687,-6.7687,-6.7687,-6.7687,-6.7687,-6.7714,-6.776,-6.776,-6.7714,-6.7687,-6.7724,-6.7797,-6.7834,-6.8238,-6.8908,-6.9678,-6.966,-6.9165,-6.972,-6.9341,-6.8186,-6.7873,-6.7347,-6.6667,-6.5436,-6.5092,-6.5443,-6.5252,-6.5299,-6.5845,-6.6128,-6.6547,-6.7065,-6.7104,-6.7324,-6.789,-6.8024,-6.7756,-6.7024,-6.6989,-6.6942,-6.691,-6.7311,-6.8166,-6.8491,-6.8847,-6.9281,-6.9772,-7.0168,-7.0188,-7.0554,-7.2292,-7.2267,-7.1749,-7.2512,-7.2695,-7.2034,-7.2277,-7.2423,-7.2303,-7.2164,-7.2473,-7.4279,-7.3802,-7.3772,-7.4132,-7.4602,-7.4749,-7.4359,-7.3763,-7.3507,-7.3264,-7.2486,-7.1885,-7.1891,-7.1981,-7.2108,-7.2393,-7.2951,-7.3538,-7.3927,-7.4515,-7.5212,-7.5726,-7.613,-7.6166,-7.6276,-7.6754,-7.7053,-7.7121,-7.7194,-7.7194,-7.7457,-7.764,-7.7677,-7.8259,-7.8662,-7.8809,-7.8662,-7.9029,-7.8919,-7.8259,-7.7635,-7.7347,-6.7915,-6.766,-6.7174,-6.7294,-6.7552,-6.6671,-6.6523,-6.7004,-6.7032,-6.7004,-6.7089,-6.7488,-6.7687,-6.7687,-6.7687,-6.7687,-6.7724,-6.8201,-6.8238,-6.7797,-6.7724,-6.8054,-6.8458,-6.8531,-6.8935,-6.9659,-7.0018,-7.0078,-6.9803,-6.9573,-6.8766,-6.7514,-6.6775,-6.6075,-6.544,-6.4907,-6.5075,-6.5766,-6.6167,-6.6428,-6.6704,-6.7152,-6.7497,-6.7704,-6.7738,-6.7838,-6.8052,-6.8534,-6.8179,-6.7055,-6.7469,-6.7291,-6.655,-6.6462,-6.672,-6.6875,-6.6727,-6.6727,-6.6957,-6.718,-6.7582,-6.7976,-6.8823,-6.9419,-6.9788,-7.1031,-7.158,-7.1508,-7.2652,-7.3696,-7.3811,-7.4691,-7.4608,-7.3094,-7.282,-7.3076,-7.3295,-7.3354,-7.3333,-7.3406,-7.3219,-7.311,-7.2938,-7.2362,-7.2247,-7.2517,-7.2585,-7.2787,-7.3463,-7.3903,-7.4537,-7.5074,-7.5605,-7.6099,-7.6827,-7.7341,-7.7488,-7.7268,-7.7414,-7.7598,-7.7671,-7.7524,-7.7494,-7.7677,-7.7892,-7.8259,-7.8846,-7.936,-7.9617,-7.9323,-7.925,-7.8846,-7.8332,-7.7965,-7.7671,-6.7731,-6.7569,-6.6707,-6.6888,-6.7583,-6.6495,-6.6455,-6.705,-6.7184,-6.7117,-6.7275,-6.7576,-6.7753,-6.7753,-6.7789,-6.7934,-6.8244,-6.8718,-6.8645,-6.8328,-6.8513,-6.8862,-6.932,-6.9352,-6.9404,-6.9683,-6.9798,-6.9669,-6.9349,-6.8694,-6.7727,-6.6602,-6.6072,-6.5501,-6.481,-6.5014,-6.5531,-6.6255,-6.6661,-6.7001,-6.731,-6.7679,-6.7879,-6.7879,-6.7879,-6.7879,-6.7919,-6.8323,-6.8231,-6.758,-6.7822,-6.7503,-6.6661,-6.6578,-6.647,-6.647,-6.6352,-6.6308,-6.6239,-6.6695,-6.6639,-6.7203,-6.8062,-6.8996,-6.9846,-7.0998,-7.1699,-7.2247,-7.3652,-7.4742,-7.4861,-7.577,-7.5552,-7.3915,-7.3837,-7.3655,-7.3697,-7.3997,-7.4292,-7.447,-7.4433,-7.426,-7.4083,-7.3478,-7.3184,-7.3523,-7.3406,-7.3329,-7.4106,-7.4556,-7.5369,-7.6152,-7.6752,-7.7358,-7.8117,-7.8516,-7.8772,-7.8442,-7.8075,-7.8075,-7.8075,-7.7598,-7.7384,-7.7818,-7.8075,-7.8552,-7.9103,-8.0314,-8.0828,-8.0241,-7.9507,-7.9286,-7.8919,-7.8332,-7.7965,-6.7249,-6.7405,-6.6125,-6.637,-6.7517,-6.6828,-6.6894,-6.7703,-6.7774,-6.7703,-6.7739,-6.7796,-6.7868,-6.7873,-6.7858,-6.8183,-6.8811,-6.8976,-6.9012,-6.9129,-6.9529,-6.9937,-6.9814,-7.0072,-7.0023,-6.9575,-6.9477,-6.9008,-6.8618,-6.7552,-6.6602,-6.6073,-6.584,-6.5569,-6.5221,-6.5635,-6.6324,-6.6867,-6.6922,-6.7187,-6.7696,-6.7604,-6.7516,-6.755,-6.7557,-6.7557,-6.7557,-6.7638,-6.7799,-6.7965,-6.7856,-6.7708,-6.769,-6.7597,-6.7379,-6.7352,-6.7441,-6.7339,-6.7535,-6.7615,-6.8046,-6.8123,-6.9252,-7.1091,-7.1268,-7.1943,-7.283,-7.3456,-7.4619,-7.5255,-7.5231,-7.5841,-7.6128,-7.6306,-7.596,-7.6162,-7.6628,-7.6486,-7.6203,-7.6312,-7.657,-7.6399,-7.5967,-7.5182,-7.4826,-7.4826,-7.4526,-7.4587,-7.4942,-7.5621,-7.625,-7.6998,-7.7751,-7.7987,-7.8589,-7.8662,-7.8846,-7.8662,-7.8332,-7.8222,-7.8075,-7.7598,-7.753,-7.7965,-7.8295,-7.8772,-7.9543,-8.0718,-8.1085,-8.0424,-8.0021,-7.991,-7.936,-7.8552,-7.8038,-6.6277,-6.6064,-6.5237,-6.5731,-6.68,-6.5794,-6.6003,-6.706,-6.72,-6.7271,-6.727,-6.7714,-6.7919,-6.7914,-6.7917,-6.8046,-6.8356,-6.8818,-6.9069,-6.9209,-6.9911,-6.9865,-6.9777,-7.0541,-7.092,-7.0608,-6.9997,-6.9907,-6.952,-6.73,-6.6396,-6.6595,-6.5613,-6.5566,-6.6255,-6.6566,-6.7005,-6.7507,-6.753,-6.7479,-6.7488,-6.7516,-6.7475,-6.7475,-6.7475,-6.751,-6.751,-6.7475,-6.7516,-6.7638,-6.7597,-6.7591,-6.7591,-6.7578,-6.7605,-6.7605,-6.7414,-6.7297,-6.7339,-6.7346,-6.7319,-6.7353,-6.8445,-6.9035,-6.9858,-7.1126,-7.211,-7.2992,-7.4249,-7.5119,-7.5226,-7.5825,-7.6242,-7.6275,-7.6481,-7.6515,-7.6442,-7.6409,-7.6409,-7.6373,-7.594,-7.5762,-7.5581,-7.5185,-7.4757,-7.5225,-7.5584,-7.5868,-7.6261,-7.6938,-7.7644,-7.8098,-7.8597,-7.861,-7.8736,-7.8772,-7.8772,-7.8662,-7.8405,-7.8112,-7.7855,-7.7384,-7.7745,-7.8259,-7.8369,-7.8736,-7.9837,-8.0975,-8.0718,-8.0461,-8.0277,-7.9984,-7.9029,-7.8222,-7.7965,-6.5689,-6.5625,-6.4601,-6.5198,-6.6632,-6.5638,-6.6038,-6.7208,-6.7422,-6.7422,-6.7499,-6.7829,-6.7974,-6.801,-6.7974,-6.8188,-6.8469,-6.8928,-6.9106,-6.9141,-6.9281,-6.96,-7.0005,-7.0593,-7.0461,-7.0371,-6.9423,-6.8894,-6.847,-6.6791,-6.6381,-6.6595,-6.5983,-6.5998,-6.6568,-6.7084,-6.7319,-6.761,-6.7597,-6.751,-6.7387,-6.7229,-6.7188,-6.7188,-6.7222,-6.729,-6.7596,-6.7664,-6.7611,-6.7564,-6.7667,-6.783,-6.7864,-6.8046,-6.814,-6.8174,-6.8048,-6.804,-6.7964,-6.7836,-6.7793,-6.7827,-6.8233,-6.8973,-6.9928,-7.0746,-7.1276,-7.3061,-7.4078,-7.4655,-7.5188,-7.5821,-7.6242,-7.6311,-7.6601,-7.6637,-7.6348,-7.6309,-7.6275,-7.6239,-7.6203,-7.613,-7.613,-7.5913,-7.6167,-7.6601,-7.7144,-7.7253,-7.7432,-7.8216,-7.8638,-7.8731,-7.8821,-7.8693,-7.8925,-7.9066,-7.8699,-7.8516,-7.8148,-7.7892,-7.7708,-7.731,-7.753,-7.7965,-7.8332,-7.8846,-7.9764,-8.0534,-8.0608,-8.0388,-8.0277,-8.0131,-7.9433,-7.8736,-7.8369,-6.527,-6.5565,-6.4217,-6.4836,-6.6386,-6.6147,-6.657,-6.7778,-6.799,-6.8024,-6.8024,-6.8054,-6.8077,-6.8083,-6.8085,-6.8447,-6.8982,-6.8912,-6.8982,-6.8833,-6.8711,-6.9093,-7.0465,-6.9814,-6.9495,-6.9279,-6.7845,-6.7712,-6.7617,-6.6716,-6.639,-6.6743,-6.6773,-6.6587,-6.677,-6.7277,-6.7578,-6.7674,-6.7789,-6.7732,-6.7649,-6.7523,-6.7438,-6.7438,-6.7404,-6.7642,-6.7938,-6.8039,-6.8006,-6.7735,-6.8148,-6.837,-6.8464,-6.8827,-6.9021,-6.8987,-6.8885,-6.8953,-6.9011,-6.8876,-6.8977,-6.8944,-6.8944,-6.9722,-7.0661,-7.0677,-7.1145,-7.2931,-7.3726,-7.444,-7.5279,-7.5949,-7.6239,-7.6348,-7.6891,-7.6927,-7.6529,-7.642,-7.6529,-7.6565,-7.7217,-7.7543,-7.7796,-7.8195,-7.8557,-7.7253,-7.776,-7.7869,-7.7865,-7.8182,-7.8459,-7.8552,-7.8573,-7.856,-7.894,-7.936,-7.8809,-7.8369,-7.7818,-7.7494,-7.7494,-7.731,-7.731,-7.7494,-7.7892,-7.8405,-7.9176,-7.9727,-8.0167,-8.0608,-8.0681,-8.0755,-8.0608,-7.991,-7.9433,-6.4463,-6.4287,-6.3965,-6.4339,-6.5169,-6.5676,-6.6393,-6.7256,-6.7842,-6.8049,-6.8083,-6.8083,-6.8083,-6.8083,-6.8083,-6.8201,-6.8362,-6.8401,-6.8323,-6.8284,-6.8241,-6.8632,-6.9528,-6.9237,-6.9205,-6.9101,-6.8917,-6.8922,-6.8821,-6.7591,-6.7126,-6.7926,-6.7079,-6.6696,-6.7311,-6.7885,-6.8281,-6.8258,-6.8574,-6.8685,-6.8599,-6.8513,-6.8436,-6.847,-6.8504,-6.8639,-6.8774,-6.8842,-6.8818,-6.8759,-6.8904,-6.903,-6.8996,-6.9122,-6.9248,-6.9282,-6.9214,-6.9147,-6.9147,-6.9248,-6.9113,-6.9248,-6.9316,-6.949,-7.0293,-7.0413,-7.0772,-7.1919,-7.3008,-7.4396,-7.5747,-7.6167,-7.6275,-7.6348,-7.6529,-7.6601,-7.6529,-7.7362,-7.7796,-7.8014,-7.8122,-7.8412,-7.8412,-7.8448,-7.8484,-7.8014,-7.805,-7.8231,-7.8225,-7.8216,-7.8238,-7.8256,-7.8204,-7.8185,-7.8353,-7.8662,-7.8332,-7.8038,-7.7604,-7.753,-7.7494,-7.7524,-7.7598,-7.7494,-7.7384,-7.8112,-7.9066,-7.9507,-8.0057,-8.0571,-8.1012,-8.0938,-8.0791,-8.0498,-8.0534,-6.4252,-6.4037,-6.3963,-6.4198,-6.4703,-6.5186,-6.5945,-6.6911,-6.7394,-6.7773,-6.8049,-6.8083,-6.8083,-6.8083,-6.8083,-6.8083,-6.8083,-6.8083,-6.8083,-6.8123,-6.8083,-6.8284,-6.8555,-6.8787,-6.8938,-6.9419,-6.8825,-6.8975,-6.8947,-6.8435,-6.7942,-6.8443,-6.7601,-6.7713,-6.8055,-6.8315,-6.8396,-6.8685,-6.9015,-6.9166,-6.9079,-6.9079,-6.9079,-6.9079,-6.9113,-6.9214,-6.9553,-6.962,-6.9789,-7.0026,-7.0128,-6.9958,-6.9755,-6.9925,-7.0094,-7.0128,-7.0161,-7.0128,-7.0161,-7.0128,-7.0161,-7.0094,-7.0128,-7.0605,-7.092,-7.0978,-7.1602,-7.268,-7.3681,-7.4454,-7.6036,-7.6275,-7.6275,-7.6384,-7.6637,-7.6818,-7.6927,-7.7326,-7.7579,-7.7651,-7.776,-7.7977,-7.8159,-7.8521,-7.8593,-7.8267,-7.8404,-7.8513,-7.8037,-7.7989,-7.7936,-7.7916,-7.7824,-7.7804,-7.7793,-7.7818,-7.7671,-7.753,-7.742,-7.7708,-7.8002,-7.8002,-7.8002,-7.7965,-7.8002,-7.8516,-7.9323,-7.9685,-8.0094,-8.0645,-8.1012,-8.0938,-8.1048,-8.1269,-8.1379,-6.4358,-6.4216,-6.3965,-6.4164,-6.4534,-6.4669,-6.5531,-6.6704,-6.6945,-6.7463,-6.798,-6.8083,-6.8083,-6.8049,-6.7911,-6.7911,-6.7704,-6.7669,-6.7497,-6.7497,-6.7497,-6.764,-6.7782,-6.793,-6.8534,-6.9708,-6.8635,-6.8401,-6.89,-6.8749,-6.8451,-6.8443,-6.8423,-6.8542,-6.8779,-6.8709,-6.8888,-6.9526,-6.9693,-6.9654,-6.962,-6.9586,-6.962,-6.962,-6.9654,-6.9891,-7.0263,-7.0398,-7.0601,-7.1244,-7.1312,-7.0973,-7.0703,-7.0872,-7.1312,-7.1244,-7.1142,-7.1075,-7.1041,-7.1142,-7.1176,-7.1312,-7.1244,-7.1522,-7.1805,-7.163,-7.215,-7.316,-7.3991,-7.4492,-7.6002,-7.6275,-7.6275,-7.6384,-7.6927,-7.7253,-7.7181,-7.671,-7.6637,-7.7072,-7.776,-7.8122,-7.8195,-7.8412,-7.8521,-7.8591,-7.8693,-7.8576,-7.8062,-7.7724,-7.7632,-7.7614,-7.7558,-7.7578,-7.7567,-7.7671,-7.7384,-7.7745,-7.7671,-7.8112,-7.8552,-7.8699,-7.8772,-7.8772,-7.8919,-7.936,-7.9727,-8.0131,-8.0571,-8.0975,-8.1269,-8.1452,-8.1746,-8.2113,-8.2039,-6.4393,-6.4358,-6.4037,-6.396,-6.4131,-6.4502,-6.5186,-6.6083,-6.6669,-6.7394,-6.8014,-6.8083,-6.8083,-6.7945,-6.7394,-6.6876,-6.6566,-6.6497,-6.6428,-6.6428,-6.6462,-6.6592,-6.7025,-6.7089,-6.7769,-6.842,-6.8206,-6.8478,-6.9089,-6.8828,-6.8746,-6.8967,-6.8999,-6.9134,-6.9486,-6.9578,-7.0183,-7.0831,-7.0803,-7.0703,-7.0836,-7.0747,-7.0792,-7.0792,-7.0758,-7.0838,-7.0973,-7.1109,-7.1176,-7.1312,-7.1312,-7.1244,-7.1109,-7.121,-7.1278,-7.1312,-7.1312,-7.1312,-7.1312,-7.1312,-7.1312,-7.1312,-7.1312,-7.1312,-7.1457,-7.1491,-7.182,-7.2398,-7.3562,-7.4567,-7.6106,-7.6275,-7.6275,-7.6348,-7.642,-7.6601,-7.6529,-7.6492,-7.6746,-7.7434,-7.8014,-7.8231,-7.8014,-7.7905,-7.7903,-7.7865,-7.7858,-7.7774,-7.7364,-7.7207,-7.719,-7.7239,-7.7291,-7.7316,-7.7347,-7.7494,-7.7567,-7.8295,-7.8516,-7.8846,-7.925,-7.9507,-7.958,-7.98,-7.9837,-8.0021,-8.0351,-8.0718,-8.1085,-8.1562,-8.1819,-8.2003,-8.2113,-8.2186,-8.2186,-6.4358,-6.4252,-6.4001,-6.382,-6.3816,-6.4016,-6.4565,-6.5324,-6.6083,-6.6842,-6.7463,-6.7876,-6.7842,-6.7532,-6.7221,-6.66,-6.6014,-6.5876,-6.5876,-6.5876,-6.5834,-6.6097,-6.6598,-6.6548,-6.7428,-6.8193,-6.8323,-6.8559,-6.9457,-6.9089,-6.9115,-6.9645,-6.9764,-7.0136,-7.0744,-7.0857,-7.156,-7.216,-7.1842,-7.1546,-7.182,-7.1556,-7.1501,-7.1776,-7.1501,-7.1312,-7.1312,-7.1312,-7.1312,-7.1312,-7.1312,-7.1312,-7.1312,-7.1312,-7.1312,-7.1312,-7.1312,-7.1312,-7.1312,-7.1312,-7.1312,-7.1312,-7.1312,-7.1312,-7.1312,-7.1356,-7.1644,-7.27,-7.4072,-7.5406,-7.6242,-7.6275,-7.6275,-7.6275,-7.6275,-7.6275,-7.6275,-7.6275,-7.6818,-7.747,-7.7289,-7.7217,-7.7217,-7.7178,-7.7248,-7.7173,-7.7129,-7.7007,-7.681,-7.6902,-7.7029,-7.7302,-7.7499,-7.7719,-7.7855,-7.8002,-7.8259,-7.8919,-7.9323,-7.9653,-8.0021,-8.0314,-8.0755,-8.1085,-8.1048,-8.0755,-8.1158,-8.1599,-8.1893,-8.2076,-8.2076,-8.2113,-8.215,-8.2186,-8.2186,-6.4358,-6.4216,-6.3965,-6.3783,-6.3673,-6.36,-6.4014,-6.4772,-6.5566,-6.6324,-6.7014,-6.7532,-6.7532,-6.7014,-6.6566,-6.6083,-6.5462,-6.5359,-6.529,-6.5324,-6.5417,-6.5783,-6.6171,-6.6616,-6.7123,-6.8258,-6.8289,-6.8642,-6.9311,-6.9202,-6.9621,-7.0111,-7.0466,-7.1239,-7.2092,-7.2105,-7.2839,-7.287,-7.244,-7.196,-7.2185,-7.196,-7.1786,-7.2406,-7.1873,-7.1501,-7.1312,-7.159,-7.1457,-7.1401,-7.1312,-7.1312,-7.1312,-7.1312,-7.1312,-7.1312,-7.1312,-7.1312,-7.1312,-7.1312,-7.1312,-7.1312,-7.1312,-7.1312,-7.1401,-7.1634,-7.2176,-7.3721,-7.4973,-7.5933,-7.6208,-7.6275,-7.6275,-7.6275,-7.6275,-7.6275,-7.6275,-7.6275,-7.6275,-7.6529,-7.6275,-7.6454,-7.6741,-7.6707,-7.6813,-7.6981,-7.6901,-7.7065,-7.6902,-7.7061,-7.7192,-7.7542,-7.7824,-7.8222,-7.8479,-7.8809,-7.9213,-7.9837,-8.0131,-8.0351,-8.0791,-8.1232,-8.1599,-8.1819,-8.1636,-8.1452,-8.1966,-8.2186,-8.215,-8.215,-8.2186,-8.2186,-8.2186,-8.2186,-8.2186,-6.4393,-6.4323,-6.4037,-6.3891,-6.382,-6.3673,-6.4014,-6.4738,-6.5531,-6.629,-6.698,-6.7083,-6.7118,-6.66,-6.5497,-6.4634,-6.4152,-6.4083,-6.4186,-6.4321,-6.4659,-6.5122,-6.5499,-6.604,-6.693,-6.799,-6.8093,-6.8635,-6.9161,-6.9235,-6.9693,-7.0431,-7.1131,-7.1906,-7.29,-7.3116,-7.3615,-7.3641,-7.2832,-7.2448,-7.2498,-7.2448,-7.2448,-7.249,-7.2321,-7.2004,-7.159,-7.182,-7.1873,-7.1356,-7.1312,-7.1312,-7.1312,-7.1312,-7.1312,-7.1312,-7.1312,-7.1312,-7.1312,-7.1312,-7.1312,-7.1312,-7.1312,-7.1312,-7.1412,-7.196,-7.2658,-7.3641,-7.4752,-7.562,-7.6174,-7.6275,-7.6275,-7.6275,-7.6275,-7.6275,-7.6275,-7.6275,-7.6275,-7.6275,-7.6275,-7.6412,-7.6657,-7.6518,-7.6412,-7.6578,-7.6741,-7.687,-7.7107,-7.7302,-7.7578,-7.7934,-7.8442,-7.8846,-7.9286,-7.958,-8.0057,-8.0718,-8.0901,-8.1048,-8.1379,-8.1746,-8.2003,-8.215,-8.1966,-8.2003,-8.2333,-8.2406,-8.226,-8.2194,-8.2201,-8.2231,-8.2186,-8.2223,-8.2333,-6.4393,-6.4358,-6.4037,-6.3927,-6.3891,-6.3673,-6.4014,-6.4772,-6.5531,-6.629,-6.6876,-6.698,-6.6566,-6.5635,-6.4531,-6.3945,-6.3634,-6.36,-6.3801,-6.3965,-6.4332,-6.482,-6.5573,-6.5929,-6.6609,-6.7724,-6.8014,-6.8132,-6.8781,-6.9543,-7.0291,-7.0991,-7.1801,-7.2877,-7.3628,-7.3818,-7.4114,-7.4149,-7.376,-7.3281,-7.3241,-7.3241,-7.3241,-7.32,-7.2749,-7.2321,-7.2056,-7.1732,-7.1732,-7.1312,-7.1312,-7.1312,-7.1312,-7.1312,-7.1312,-7.1312,-7.1312,-7.1312,-7.1312,-7.1312,-7.1312,-7.1312,-7.1312,-7.1312,-7.1457,-7.2013,-7.2832,-7.3721,-7.4602,-7.5406,-7.6106,-7.6275,-7.6275,-7.6275,-7.6275,-7.6275,-7.6275,-7.6275,-7.6275,-7.6275,-7.6309,-7.6445,-7.6548,-7.6445,-7.6478,-7.6643,-7.6842,-7.6939,-7.7353,-7.7804,-7.805,-7.8405,-7.8993,-7.958,-8.0057,-8.0498,-8.0865,-8.1379,-8.1599,-8.1746,-8.1893,-8.2186,-8.2406,-8.248,-8.237,-8.248,-8.27,-8.2484,-8.2157,-8.2168,-8.2251,-8.2145,-8.2108,-8.2708,-8.2781,-6.4358,-6.4323,-6.4037,-6.3891,-6.3783,-6.3673,-6.4014,-6.4772,-6.5566,-6.629,-6.6773,-6.6738,-6.5842,-6.46,-6.391,-6.3669,-6.36,-6.3563,-6.3899,-6.4191,-6.4512,-6.5034,-6.5759,-6.6113,-6.6807,-6.7975,-6.765,-6.7816,-6.8453,-6.9254,-7.0333,-7.1249,-7.2107,-7.3261,-7.4204,-7.4416,-7.4452,-7.4416,-7.4529,-7.4378,-7.4187,-7.4111,-7.3956,-7.3681,-7.32,-7.2707,-7.2448,-7.2013,-7.1688,-7.1644,-7.1401,-7.1312,-7.1312,-7.1312,-7.1312,-7.1312,-7.1312,-7.1312,-7.1312,-7.1312,-7.1312,-7.1312,-7.1312,-7.1312,-7.1401,-7.2047,-7.2832,-7.3721,-7.4602,-7.5406,-7.6072,-7.6275,-7.6275,-7.6275,-7.6275,-7.6275,-7.6275,-7.6275,-7.6275,-7.6275,-7.6309,-7.6412,-7.6478,-7.6445,-7.6512,-7.6708,-7.6874,-7.7075,-7.7673,-7.8343,-7.8925,-7.9323,-7.9727,-8.0388,-8.0938,-8.1379,-8.1782,-8.1929,-8.215,-8.2223,-8.226,-8.2517,-8.2847,-8.281,-8.281,-8.2884,-8.3067,-8.2561,-8.2088,-8.2165,-8.2175,-8.2018,-8.213,-8.2769,-8.3151,-6.4323,-6.418,-6.3965,-6.3783,-6.3637,-6.36,-6.4014,-6.4841,-6.5566,-6.6255,-6.6738,-6.6255,-6.5221,-6.4014,-6.3703,-6.36,-6.36,-6.3414,-6.3851,-6.4389,-6.4923,-6.5471,-6.6092,-6.667,-6.7216,-6.769,-6.7544,-6.7585,-6.8017,-6.89,-6.9756,-7.0459,-7.1817,-7.2945,-7.3899,-7.4378,-7.4527,-7.4677,-7.501,-7.5263,-7.4936,-7.4715,-7.4452,-7.3917,-7.3641,-7.3322,-7.254,-7.2236,-7.2099,-7.209,-7.1634,-7.1312,-7.1312,-7.1312,-7.1312,-7.1312,-7.1312,-7.1312,-7.1312,-7.1312,-7.1312,-7.1312,-7.1312,-7.1312,-7.1356,-7.1969,-7.2832,-7.3562,-7.4302,-7.5263,-7.5864,-7.6275,-7.6275,-7.6275,-7.6275,-7.6275,-7.6275,-7.6275,-7.6275,-7.6275,-7.6378,-7.6478,-7.6792,-7.6829,-7.6971,-7.717,-7.7664,-7.7902,-7.8505,-7.9181,-7.991,-8.0388,-8.0681,-8.1195,-8.1819,-8.2113,-8.2039,-8.215,-8.237,-8.237,-8.237,-8.2737,-8.3434,-8.3471,-8.3544,-8.3471,-8.3218,-8.2667,-8.23,-8.219,-8.2201,-8.2333,-8.2417,-8.2879,-8.3121,-6.4109,-6.382,-6.3747,-6.3747,-6.3747,-6.3637,-6.4289,-6.5359,-6.5773,-6.6014,-6.629,-6.5945,-6.5048,-6.3945,-6.36,-6.3526,-6.3483,-6.3889,-6.4247,-6.4771,-6.5363,-6.595,-6.6471,-6.6777,-6.7063,-6.7331,-6.7311,-6.7574,-6.7978,-6.8766,-6.9501,-7.0404,-7.1421,-7.2624,-7.3553,-7.4187,-7.4529,-7.501,-7.4936,-7.4752,-7.5118,-7.4527,-7.4111,-7.3838,-7.316,-7.2914,-7.2448,-7.2004,-7.1864,-7.1732,-7.1457,-7.1356,-7.1312,-7.1312,-7.1312,-7.1312,-7.1312,-7.1312,-7.1312,-7.1312,-7.1312,-7.1312,-7.1312,-7.1312,-7.1312,-7.1644,-7.2185,-7.2949,-7.3838,-7.4752,-7.5406,-7.5967,-7.6275,-7.6275,-7.6275,-7.6275,-7.6309,-7.6309,-7.6378,-7.6412,-7.6478,-7.6578,-7.6963,-7.7312,-7.749,-7.7737,-7.8199,-7.8766,-7.937,-7.9947,-8.0645,-8.1085,-8.1342,-8.1525,-8.2113,-8.2186,-8.2186,-8.2406,-8.2627,-8.2774,-8.292,-8.3618,-8.4168,-8.4242,-8.4168,-8.3948,-8.3544,-8.281,-8.2341,-8.1992,-8.2421,-8.3038,-8.3084,-8.2986,-8.2941,-6.3892,-6.36,-6.36,-6.3673,-6.3818,-6.3915,-6.4669,-6.5773,-6.6152,-6.6048,-6.5876,-6.5635,-6.4841,-6.3876,-6.36,-6.3695,-6.3786,-6.4115,-6.4669,-6.5153,-6.5705,-6.626,-6.6617,-6.688,-6.699,-6.7184,-6.759,-6.7938,-6.8353,-6.8842,-6.9504,-7.0163,-7.0781,-7.1919,-7.3067,-7.3799,-7.4416,-7.4936,-7.4677,-7.4033,-7.4565,-7.4149,-7.3562,-7.3402,-7.2832,-7.2617,-7.2279,-7.1873,-7.1644,-7.16,-7.1546,-7.1312,-7.1312,-7.1312,-7.1312,-7.1312,-7.1312,-7.1312,-7.1312,-7.1312,-7.1312,-7.1312,-7.1312,-7.1312,-7.1312,-7.1356,-7.183,-7.2955,-7.3602,-7.4226,-7.5191,-7.6038,-7.6275,-7.6275,-7.6275,-7.6275,-7.6345,-7.6378,-7.6445,-7.6512,-7.6647,-7.6854,-7.7819,-7.8345,-7.8739,-7.8991,-7.9352,-7.9815,-8.014,-8.0718,-8.1269,-8.1599,-8.1782,-8.1966,-8.2186,-8.2223,-8.2333,-8.2847,-8.3067,-8.3434,-8.3765,-8.4462,-8.4939,-8.5049,-8.4866,-8.4462,-8.3911,-8.3324,-8.2468,-8.1615,-8.2327,-8.3214,-8.2961,-8.2755,-8.2648,-6.3818,-6.36,-6.3634,-6.3634,-6.3844,-6.4393,-6.5152,-6.6014,-6.66,-6.6462,-6.5704,-6.5117,-6.4393,-6.3738,-6.3703,-6.3899,-6.4153,-6.4307,-6.4863,-6.5644,-6.5921,-6.6245,-6.6576,-6.688,-6.7117,-6.7726,-6.8098,-6.847,-6.9079,-6.9214,-6.9654,-7.0195,-7.0765,-7.1336,-7.254,-7.3402,-7.3838,-7.3878,-7.3838,-7.3799,-7.3878,-7.3681,-7.3078,-7.2832,-7.2448,-7.227,-7.2056,-7.1688,-7.1546,-7.183,-7.1501,-7.1356,-7.1312,-7.1312,-7.1312,-7.1312,-7.1312,-7.1312,-7.1312,-7.1312,-7.1312,-7.1312,-7.1312,-7.1312,-7.1312,-7.1412,-7.1864,-7.2955,-7.3641,-7.4529,-7.5478,-7.6278,-7.6275,-7.6275,-7.6275,-7.6309,-7.6345,-7.6445,-7.6548,-7.6934,-7.7028,-7.7267,-7.8524,-7.9458,-7.9993,-8.0319,-8.0645,-8.0901,-8.1048,-8.1305,-8.1782,-8.1893,-8.2039,-8.2076,-8.2186,-8.2296,-8.2517,-8.3067,-8.3654,-8.4168,-8.4646,-8.527,-8.5637,-8.582,-8.549,-8.5013,-8.4462,-8.3875,-8.2794,-8.1892,-8.2538,-8.3104,-8.2777,-8.2557,-8.2418,-6.406,-6.4324,-6.4324,-6.4634,-6.5014,-6.4772,-6.5428,-6.6531,-6.6773,-6.629,-6.5255,-6.4772,-6.4289,-6.391,-6.408,-6.4274,-6.4346,-6.5431,-6.5982,-6.5786,-6.6177,-6.6508,-6.6779,-6.6948,-6.7252,-6.7895,-6.8368,-6.9079,-6.9823,-6.9823,-7.0263,-7.0804,-7.1446,-7.1947,-7.2636,-7.3281,-7.3799,-7.3681,-7.3362,-7.316,-7.3562,-7.2825,-7.2313,-7.2406,-7.2047,-7.182,-7.1786,-7.1367,-7.1546,-7.1776,-7.1356,-7.1312,-7.1312,-7.1312,-7.1312,-7.1312,-7.1312,-7.1312,-7.1312,-7.1312,-7.1312,-7.1312,-7.1312,-7.1312,-7.1312,-7.1312,-7.196,-7.2825,-7.3562,-7.4416,-7.5191,-7.5967,-7.6242,-7.6275,-7.6275,-7.6275,-7.6345,-7.6515,-7.6719,-7.7429,-7.7705,-7.8634,-7.9783,-8.0328,-8.0796,-8.1158,-8.1415,-8.1562,-8.1709,-8.1782,-8.2076,-8.2076,-8.215,-8.215,-8.226,-8.2663,-8.3067,-8.3618,-8.4425,-8.5196,-8.5673,-8.604,-8.6297,-8.6481,-8.6004,-8.5527,-8.4682,-8.3838,-8.2884,-8.2406,-8.27,-8.2774,-8.2517,-8.237,-8.2264,-6.4366,-6.4703,-6.4979,-6.5566,-6.6117,-6.5704,-6.6117,-6.6842,-6.6704,-6.5876,-6.4841,-6.4462,-6.4048,-6.391,-6.4212,-6.4679,-6.4566,-6.5579,-6.6337,-6.611,-6.6542,-6.6745,-6.6846,-6.7117,-6.7726,-6.8335,-6.9079,-6.9857,-7.0567,-7.0567,-7.1007,-7.1729,-7.2677,-7.2775,-7.2957,-7.3015,-7.3268,-7.3005,-7.2617,-7.227,-7.2398,-7.2047,-7.16,-7.1776,-7.1644,-7.1356,-7.1312,-7.1312,-7.1312,-7.1312,-7.1312,-7.1312,-7.1312,-7.1312,-7.1312,-7.1312,-7.1312,-7.1312,-7.1312,-7.1312,-7.1312,-7.1312,-7.1312,-7.1312,-7.1312,-7.1312,-7.2047,-7.279,-7.3442,-7.4416,-7.5371,-7.607,-7.6242,-7.6275,-7.6275,-7.6275,-7.6487,-7.6657,-7.7255,-7.7964,-7.8816,-7.9856,-8.0723,-8.1163,-8.1562,-8.1856,-8.215,-8.2186,-8.2223,-8.2296,-8.2333,-8.2333,-8.2553,-8.2737,-8.2994,-8.3434,-8.3801,-8.4205,-8.4976,-8.5857,-8.6297,-8.6591,-8.6848,-8.6995,-8.6554,-8.5857,-8.4719,-8.3765,-8.292,-8.2406,-8.2296,-8.2296,-8.2186,-8.226,-8.2296,-6.4738,-6.4876,-6.56,-6.6324,-6.6945,-6.6876,-6.6911,-6.6876,-6.6152,-6.5393,-6.46,-6.391,-6.3738,-6.3839,-6.4274,-6.4766,-6.5283,-6.5868,-6.6309,-6.6584,-6.6779,-6.6846,-6.7151,-6.7523,-6.8233,-6.9045,-6.9755,-7.0331,-7.1176,-7.1345,-7.1718,-7.27,-7.3785,-7.3762,-7.3399,-7.2935,-7.2843,-7.2416,-7.196,-7.1688,-7.1644,-7.1501,-7.1367,-7.1491,-7.1458,-7.1413,-7.1413,-7.1413,-7.1413,-7.1379,-7.1312,-7.1312,-7.1312,-7.1312,-7.1312,-7.1312,-7.1312,-7.1312,-7.1312,-7.1312,-7.1312,-7.1312,-7.1312,-7.1312,-7.1312,-7.1356,-7.209,-7.299,-7.376,-7.4864,-7.5898,-7.607,-7.6275,-7.6275,-7.6275,-7.6417,-7.6666,-7.7123,-7.783,-7.861,-7.9531,-8.0429,-8.1126,-8.1672,-8.1929,-8.2039,-8.2223,-8.2406,-8.248,-8.2553,-8.259,-8.2663,-8.292,-8.3398,-8.3765,-8.4168,-8.4572,-8.4939,-8.549,-8.6224,-8.6664,-8.6921,-8.6995,-8.6995,-8.6921,-8.6224,-8.4866,-8.3911,-8.3141,-8.27,-8.2406,-8.2296,-8.2296,-8.248,-8.259,-6.5359,-6.6324,-6.66,-6.7118,-6.7669,-6.7221,-6.6704,-6.6152,-6.5393,-6.46,-6.391,-6.3703,-6.391,-6.4427,-6.4958,-6.5446,-6.5966,-6.648,-6.6716,-6.6862,-6.6896,-6.7151,-6.7489,-6.7938,-6.875,-6.9519,-7.0161,-7.0635,-7.1312,-7.1718,-7.2846,-7.4106,-7.4491,-7.4548,-7.431,-7.3742,-7.2756,-7.193,-7.1514,-7.1356,-7.1312,-7.1312,-7.1312,-7.1379,-7.1718,-7.165,-7.1447,-7.1751,-7.1718,-7.1379,-7.1312,-7.1312,-7.1312,-7.1312,-7.1312,-7.1312,-7.1312,-7.1312,-7.1312,-7.1312,-7.1312,-7.1312,-7.1312,-7.1312,-7.1312,-7.1501,-7.209,-7.299,-7.376,-7.4679,-7.5654,-7.6106,-7.635,-7.6492,-7.6599,-7.6847,-7.7168,-7.7877,-7.8654,-7.9767,-8.069,-8.1053,-8.1709,-8.1856,-8.2076,-8.215,-8.2333,-8.259,-8.2774,-8.2847,-8.303,-8.3141,-8.3618,-8.4168,-8.4535,-8.4939,-8.5306,-8.5747,-8.6187,-8.6518,-8.6775,-8.6995,-8.6995,-8.6848,-8.6554,-8.5857,-8.4829,-8.4095,-8.3691,-8.303,-8.27,-8.2553,-8.248,-8.2847,-8.3104,-6.6117,-6.698,-6.7325,-6.7704,-6.7876,-6.698,-6.6255,-6.5773,-6.5048,-6.4289,-6.3669,-6.391,-6.4289,-6.4735,-6.5431,-6.5983,-6.6274,-6.6704,-6.6862,-6.6862,-6.7146,-6.7463,-6.7904,-6.8566,-6.9347,-7.0032,-7.0534,-7.0939,-7.1515,-7.244,-7.3583,-7.4525,-7.4848,-7.5114,-7.49,-7.399,-7.288,-7.2101,-7.1548,-7.1345,-7.1312,-7.1312,-7.1312,-7.1413,-7.1853,-7.165,-7.1447,-7.1887,-7.1684,-7.1379,-7.1312,-7.1312,-7.1312,-7.1312,-7.1312,-7.1312,-7.1312,-7.1312,-7.1312,-7.1312,-7.1312,-7.1312,-7.1345,-7.1312,-7.1312,-7.1367,-7.2133,-7.2908,-7.3562,-7.4264,-7.5263,-7.6108,-7.6427,-7.6746,-7.7031,-7.735,-7.7989,-7.8738,-7.9811,-8.0996,-8.1607,-8.1897,-8.215,-8.2186,-8.237,-8.2663,-8.2957,-8.3251,-8.3361,-8.3361,-8.3618,-8.3838,-8.4462,-8.5086,-8.538,-8.5637,-8.6004,-8.6334,-8.6554,-8.6848,-8.7031,-8.7031,-8.7031,-8.6591,-8.604,-8.5453,-8.5013,-8.4829,-8.4425,-8.3875,-8.3838,-8.4278,-8.4205,-8.3838,-8.3985,-6.7014,-6.7152,-6.7886,-6.8206,-6.7994,-6.68,-6.6142,-6.5887,-6.5313,-6.451,-6.4094,-6.447,-6.4999,-6.5702,-6.629,-6.6563,-6.6816,-6.7087,-6.7154,-6.6972,-6.7769,-6.822,-6.8766,-6.9514,-7.0158,-7.0517,-7.0838,-7.1278,-7.1785,-7.2766,-7.3963,-7.4661,-7.527,-7.5411,-7.47,-7.3988,-7.3037,-7.2293,-7.165,-7.1312,-7.1312,-7.1312,-7.1312,-7.1312,-7.1447,-7.1447,-7.1379,-7.1379,-7.1379,-7.1345,-7.1312,-7.1312,-7.1312,-7.1312,-7.1312,-7.1481,-7.1548,-7.1718,-7.1785,-7.1853,-7.165,-7.1582,-7.1413,-7.1413,-7.1413,-7.1312,-7.1917,-7.27,-7.3362,-7.4187,-7.5119,-7.6326,-7.6958,-7.7352,-7.7743,-7.828,-7.9102,-7.9852,-8.0817,-8.1754,-8.1897,-8.2186,-8.226,-8.2296,-8.2737,-8.3177,-8.3581,-8.3875,-8.4168,-8.4132,-8.4278,-8.4646,-8.5306,-8.5857,-8.6004,-8.6297,-8.6664,-8.6958,-8.6995,-8.6995,-8.7031,-8.7031,-8.7031,-8.6885,-8.6738,-8.5967,-8.549,-8.5637,-8.5747,-8.5343,-8.549,-8.6261,-8.6151,-8.5563,-8.5013,-6.7325,-6.792,-6.8638,-6.8938,-6.8803,-6.7905,-6.713,-6.6668,-6.6423,-6.5931,-6.5373,-6.5583,-6.6462,-6.7658,-6.7352,-6.7496,-6.7865,-6.7604,-6.7696,-6.8011,-6.8611,-6.9187,-6.9735,-7.067,-7.1037,-7.1104,-7.1312,-7.1684,-7.236,-7.3477,-7.439,-7.4661,-7.5236,-7.5202,-7.4492,-7.3747,-7.3037,-7.2394,-7.1751,-7.1345,-7.1312,-7.1312,-7.1312,-7.1481,-7.1616,-7.165,-7.165,-7.1819,-7.165,-7.1481,-7.1345,-7.1312,-7.1312,-7.1312,-7.1616,-7.1988,-7.2157,-7.236,-7.2597,-7.2631,-7.2462,-7.2191,-7.2022,-7.1718,-7.1548,-7.1379,-7.1644,-7.2448,-7.3316,-7.422,-7.5187,-7.6406,-7.7598,-7.8028,-7.8459,-7.9321,-8.018,-8.1004,-8.1827,-8.2007,-8.215,-8.226,-8.2333,-8.2663,-8.3067,-8.3581,-8.4095,-8.4535,-8.5123,-8.5306,-8.527,-8.56,-8.6187,-8.6628,-8.6701,-8.6701,-8.6958,-8.7031,-8.6995,-8.7031,-8.7068,-8.7215,-8.7362,-8.7729,-8.7619,-8.6848,-8.6628,-8.7362,-8.7325,-8.6848,-8.7215,-8.8023,-8.8133,-8.7692,-8.6775,-6.8124,-6.9054,-6.9528,-6.946,-6.907,-6.8348,-6.7749,-6.7438,-6.7322,-6.7522,-6.7703,-6.7541,-6.7967,-6.9164,-6.861,-6.8527,-6.8868,-6.8254,-6.8605,-6.9072,-6.9532,-7.0094,-7.0897,-7.1837,-7.1641,-7.1606,-7.1819,-7.2225,-7.3003,-7.3849,-7.4593,-7.4661,-7.5033,-7.4864,-7.4119,-7.3409,-7.2834,-7.2394,-7.165,-7.1379,-7.1312,-7.1312,-7.1312,-7.1515,-7.1548,-7.1616,-7.1616,-7.1751,-7.1616,-7.1413,-7.1312,-7.1616,-7.1718,-7.1853,-7.2225,-7.2665,-7.2935,-7.3071,-7.3375,-7.3477,-7.324,-7.28,-7.2428,-7.209,-7.1447,-7.1312,-7.1312,-7.2167,-7.3798,-7.4784,-7.5642,-7.6805,-7.8334,-7.9184,-7.9643,-8.0283,-8.0967,-8.1685,-8.2076,-8.2113,-8.2296,-8.248,-8.2663,-8.2994,-8.3544,-8.4646,-8.5086,-8.538,-8.593,-8.6114,-8.6187,-8.6297,-8.6701,-8.6958,-8.6885,-8.6885,-8.6995,-8.7031,-8.7105,-8.7325,-8.7545,-8.7582,-8.7729,-8.828,-8.8353,-8.7692,-8.7766,-8.8573,-8.872,-8.8243,-8.8904,-8.9784,-8.9711,-8.9528,-8.872,-6.8823,-7.0047,-7.0364,-7.0007,-6.9256,-6.8675,-6.8424,-6.8349,-6.8373,-6.911,-7.0071,-6.9753,-6.9501,-6.9584,-6.9635,-6.9672,-6.9492,-6.9052,-6.9472,-7.0185,-7.065,-7.1147,-7.1995,-7.3009,-7.2731,-7.2407,-7.2417,-7.2947,-7.368,-7.4458,-7.4864,-7.4661,-7.4424,-7.4187,-7.3409,-7.2834,-7.236,-7.2056,-7.1616,-7.1345,-7.1312,-7.1312,-7.1312,-7.1312,-7.1312,-7.1312,-7.1312,-7.1312,-7.1312,-7.1312,-7.1345,-7.1718,-7.2056,-7.2259,-7.2902,-7.3308,-7.3646,-7.3747,-7.395,-7.4052,-7.3544,-7.3037,-7.2732,-7.236,-7.1785,-7.1526,-7.156,-7.2181,-7.3871,-7.5183,-7.6057,-7.7414,-7.8922,-8.0226,-8.0649,-8.1037,-8.1648,-8.2186,-8.226,-8.226,-8.2553,-8.281,-8.3214,-8.3544,-8.4315,-8.5416,-8.604,-8.6444,-8.6664,-8.6554,-8.6481,-8.6518,-8.6701,-8.6885,-8.6995,-8.7068,-8.7105,-8.7399,-8.7545,-8.7802,-8.8059,-8.828,-8.861,-8.9124,-8.9014,-8.8757,-8.8977,-8.9674,-8.9638,-8.9601,-9.0152,-9.0776,-9.0702,-9.0519,-9.0335,-6.8466,-6.9358,-7.0622,-7.073,-7.0102,-7.0417,-7.035,-6.9942,-7.0383,-7.0893,-7.1107,-7.1603,-7.1678,-7.1587,-7.077,-7.0509,-7.0337,-6.992,-7.0452,-7.1268,-7.1944,-7.2211,-7.2686,-7.3546,-7.3891,-7.3564,-7.3175,-7.3658,-7.4119,-7.4897,-7.5134,-7.4559,-7.4492,-7.3916,-7.2732,-7.2293,-7.2056,-7.1751,-7.1548,-7.1312,-7.1312,-7.1312,-7.1312,-7.1312,-7.1312,-7.1312,-7.1312,-7.1312,-7.1312,-7.1312,-7.1413,-7.1853,-7.2293,-7.2699,-7.3341,-7.4086,-7.439,-7.4627,-7.4762,-7.4864,-7.4458,-7.395,-7.3713,-7.3341,-7.2812,-7.2372,-7.2327,-7.2087,-7.3591,-7.502,-7.6172,-7.8059,-7.968,-8.0591,-8.1253,-8.1611,-8.2076,-8.237,-8.2517,-8.281,-8.3177,-8.3654,-8.4242,-8.4646,-8.5123,-8.6004,-8.6444,-8.6811,-8.6885,-8.6848,-8.6775,-8.6811,-8.6811,-8.6885,-8.7031,-8.7178,-8.7288,-8.7655,-8.8096,-8.8573,-8.894,-8.9088,-8.9455,-9.0041,-9.0372,-9.0298,-9.0629,-9.0629,-9.0886,-9.0922,-9.1216,-9.1583,-9.1546,-9.14,-9.1069]},{"header":{"parameterUnit":"m.s-1","parameterCategory":1,"la1":31.0,"la2":29.5877,"lo1":-88.7671,"lo2":-86.6584,"dx":0.0162,"dy":0.0185,"nx":115,"ny":88,"refTime":"2022-12-31T12:00:00:Z","depth":0,"parameterNumber":3,"parameterNumberName":"V-component_of_WINDS"},"data":[0.0,0.0,0.0,0.0,0.0,0.0,0.0,0.0,0.0,0.0,0.0,0.0,0.0,0.0,0.0,0.0,0.0,0.0,0.0,0.0,0.0,0.0,0.0,0.0,0.0,0.0,0.0,0.0,0.0,0.0,0.0,0.0,0.0,0.0,0.0,0.0,0.0,0.0,0.0,0.0,0.0,0.0,0.0,0.0,0.0,0.0,0.0,0.0,0.0,0.0,0.0,0.0,0.0,0.0,0.0,0.0,0.0,0.0,0.0,0.0,0.0,0.0,0.0,0.0,0.0,0.0,0.0,0.0,0.0,0.0,0.0,0.0,0.0,0.0,0.0,0.0,0.0,0.0,0.0,0.0,0.0,0.0,0.0,0.0,0.0,0.0,0.0,0.0,0.0,0.0,0.0,0.0,0.0,0.0,0.0,0.0,0.0,0.0,0.0,0.0,0.0,0.0,0.0,0.0,0.0,0.0,0.0,0.0,0.0,0.0,0.0,0.0,0.0,0.0,0.0,0.0,0.0,0.0,0.0,0.0,0.0,0.0,0.0,0.0,0.0,0.0,0.0,0.0,0.0,0.0,0.0,0.0,0.0,0.0,0.0,0.0,0.0,0.0,0.0,0.0,0.0,0.0,0.0,0.0,0.0,0.0,0.0,0.0,0.0,0.0,0.0,0.0,0.0,0.0,0.0,0.0,0.0,0.0,0.0,0.0,0.0,0.0,0.0,0.0,0.0,0.0,0.0,0.0,0.0,0.0,0.0,0.0,0.0,0.0,0.0,0.0,0.0,0.0,0.0,0.0,0.0,0.0,0.0,0.0,0.0,0.0,0.0,0.0,0.0,0.0,0.0,0.0,0.0,0.0,0.0,0.0,0.0,0.0,0.0,0.0,0.0,0.0,0.0,0.0,0.0,0.0,0.0,0.0,0.0,0.0,0.0,0.0,0.0,0.0,0.0,0.0,0.0,0.0,0.0,0.0,0.0,0.0,0.0,0.0,0.0,0.0,0.0,0.0,0.0,0.0,0.0,0.0,0.0,0.0,0.0,0.0,0.0,0.0,0.0,0.0,0.0,0.0,0.0,0.0,0.0,0.0,0.0,0.0,0.0,0.0,0.0,0.0,0.0,0.0,0.0,0.0,0.0,0.0,0.0,0.0,0.0,0.0,0.0,0.0,0.0,0.0,0.0,0.0,0.0,0.0,0.0,0.0,0.0,0.0,0.0,0.0,0.0,0.0,0.0,0.0,0.0,0.0,0.0,0.0,0.0,0.0,0.0,0.0,0.0,0.0,0.0,0.0,0.0,0.0,0.0,0.0,0.0,0.0,0.0,0.0,0.0,0.0,0.0,0.0,0.0,0.0,0.0,0.0,0.0,0.0,0.0,0.0,0.0,0.0,0.0,0.0,0.0,0.0,0.0,0.0,0.0,0.0,0.0,0.0,0.0,0.0,0.0,0.0,0.0,0.0,0.0,0.0,0.0,0.0,0.0,0.0,0.0,0.0,0.0,0.0,0.0,0.0,0.0,0.0,0.0,0.0,0.0,0.0,0.0,0.0,0.0,0.0,0.0,0.0,0.0,0.0,0.0,0.0,0.0,0.0,0.0,0.0,0.0,0.0,0.0,0.0,0.0,0.0,0.0,0.0,0.0,0.0,0.0,0.0,0.0,0.0,0.0,0.0,0.0,0.0,0.0,0.0,0.0,0.0,0.0,0.0,0.0,0.0,0.0,0.0,0.0,0.0,0.0,0.0,0.0,0.0,0.0,0.0,0.0,0.0,0.0,0.0,0.0,0.0,0.0,0.0,0.0,0.0,0.0,0.0,0.0,0.0,0.0,0.0,0.0,0.0,0.0,0.0,0.0,0.0,0.0,0.0,0.0,0.0,0.0,0.0,0.0,0.0,0.0,0.0,0.0,0.0,0.0,0.0,0.0,0.0,0.0,0.0,0.0,0.0,0.0,0.0,0.0,0.0,0.0,0.0,0.0,0.0,0.0,0.0,0.0,0.0,0.0,0.0,0.0,0.0,0.0,0.0,0.0,0.0,0.0,0.0,0.0,0.0,0.0,0.0,0.0,0.0,0.0,0.0,0.0,0.0,0.0,0.0,0.0,0.0,0.0,0.0,0.0,0.0,0.0,0.0,0.0,0.0,0.0,0.0,0.0,0.0,0.0,0.0,0.0,0.0,0.0,0.0,0.0,0.0,0.0,0.0,0.0,0.0,0.0,0.0,0.0,0.0,0.0,0.0,0.0,0.0,0.0,0.0,0.0,0.0,0.0,0.0,0.0,0.0,0.0,0.0,0.0,0.0,0.0,0.0,0.0,0.0,0.0,0.0,0.0,0.0,0.0,0.0,0.0,0.0,0.0,0.0,0.0,0.0,0.0,0.0,0.0,0.0,0.0,0.0,0.0,0.0,0.0,0.0,0.0,0.0,0.0,0.0,0.0,0.0,0.0,0.0,0.0,0.0,0.0,0.0,0.0,0.0,0.0,0.0,0.0,0.0,0.0,0.0,0.0,0.0,0.0,0.0,0.0,0.0,0.0,0.0,0.0,0.0,0.0,0.0,0.0,0.0,0.0,0.0,0.0,0.0,0.0,0.0,0.0,0.0,0.0,0.0,0.0,0.0,0.0,0.0,0.0,0.0,0.0,0.0,0.0,0.0,0.0,0.0,0.0,0.0,0.0,0.0,0.0,0.0,0.0,0.0,0.0,0.0,0.0,0.0,0.0,0.0,0.0,0.0,0.0,0.0,0.0,0.0,0.0,0.0,0.0,0.0,0.0,0.0,0.0,0.0,0.0,0.0,0.0,0.0,0.0,0.0,0.0,0.0,0.0,0.0,0.0,0.0,0.0,0.0,0.0,0.0,0.0,0.0,0.0,0.0,0.0,0.0,0.0,0.0,0.0,0.0,0.0,0.0,0.0,0.0,0.0,0.0,0.0,0.0,0.0,0.0,0.0,0.0,0.0,0.0,0.0,0.0,0.0,0.0,0.0,0.0,0.0,0.0,0.0,0.0,0.0,0.0,0.0,0.0,0.0,0.0,0.0,0.0,0.0,0.0,0.0,0.0,0.0,0.0,0.0,0.0,0.0,0.0,0.0,0.0,0.0,0.0,0.0,0.0,0.0,0.0,0.0,0.0,0.0,0.0,0.0,0.0,0.0,0.0,0.0,0.0,0.0,0.0,0.0,0.0,0.0,0.0,0.0,0.0,0.0,0.0,0.0,0.0,0.0,0.0,0.0,0.0,0.0,0.0,0.0,0.0,0.0,0.0,0.0,0.0,0.0,0.0,0.0,0.0,0.0,0.0,0.0,0.0,0.0,0.0,0.0,0.0,0.0,0.0,0.0,0.0,0.0,0.0,0.0,0.0,0.0,0.0,0.0,0.0,0.0,0.0,0.0,0.0,0.0,0.0,0.0,0.0,0.0,0.0,0.0,0.0,0.0,0.0,0.0,0.0,0.0,0.0,0.0,0.0,0.0,0.0,0.0,0.0,0.0,0.0,0.0,0.0,0.0,0.0,0.0,0.0,0.0,0.0,0.0,0.0,0.0,0.0,0.0,0.0,0.0,0.0,0.0,0.0,0.0,0.0,0.0,0.0,0.0,0.0,0.0,0.0,0.0,0.0,0.0,0.0,0.0,0.0,0.0,0.0,0.0,0.0,0.0,0.0,0.0,0.0,0.0,0.0,0.0,0.0,0.0,0.0,0.0,0.0,0.0,0.0,0.0,0.0,0.0,0.0,0.0,0.0,0.0,0.0,0.0,0.0,0.0,0.0,0.0,0.0,0.0,0.0,0.0,0.0,0.0,0.0,0.0,0.0,0.0,0.0,0.0,0.0,0.0,0.0,0.0,0.0,0.0,0.0,0.0,0.0,0.0,0.0,0.0,0.0,0.0,0.0,0.0,0.0,0.0,0.0,0.0,0.0,0.0,0.0,0.0,0.0,0.0,0.0,0.0,0.0,0.0,0.0,0.0,0.0,0.0,0.0,0.0,0.0,0.0,0.0,0.0,0.0,0.0,0.0,0.0,0.0,0.0,0.0,0.0,0.0,0.0,0.0,0.0,0.0,0.0,0.0,0.0,0.0,0.0,0.0,0.0,0.0,0.0,0.0,0.0,0.0,0.0,0.0,0.0,0.0,0.0,0.0,0.0,0.0,0.0,0.0,0.0,0.0,0.0,0.0,0.0,0.0,0.0,0.0,0.0,0.0,0.0,0.0,0.0,0.0,0.0,0.0,0.0,0.0,0.0,0.0,0.0,0.0,-0.2773,0.0,0.0,0.0,-0.2987,0.0,0.0,0.0,0.0,0.0,0.0,0.0,0.0,0.0,0.0,0.0,0.0,0.0,0.0,0.0,0.0,0.0,0.0,0.0,0.0,0.0,0.0,0.0,0.0,0.0,0.0,0.0,0.0,0.0,0.0,0.0,0.0,0.0,0.0,0.0,0.0,0.0,0.0,0.0,0.0,0.0,0.0,0.0,0.0,0.0,0.0,0.0,0.0,0.0,0.0,0.0,0.0,0.0,0.0,0.0,0.0,0.0,0.0,0.0,0.0,0.0,0.0,0.0,0.0,0.0,0.0,0.0,0.0,0.0,0.0,0.0,0.0,0.0,0.0,0.0,0.0,0.0,0.0,0.0,0.0,0.0,0.0,0.0,0.0,0.0,0.0,0.0,0.0,0.0,0.0,0.0,0.0,0.0,0.0,0.0,0.0,0.0,0.0,0.0,0.0,0.0,0.0,0.0,0.0,0.0,0.0,0.0,0.0,0.0,0.0,-0.3181,-0.3229,-0.3207,-0.3471,-0.4085,0.0,0.0,0.0,0.0,0.0,0.0,0.0,0.0,0.0,0.0,0.0,0.0,0.0,0.0,0.0,0.0,0.0,0.0,0.0,0.0,0.0,0.0,0.0,0.0,0.0,0.0,0.0,0.0,0.0,0.0,0.0,0.0,0.0,0.0,0.0,0.0,0.0,0.0,0.0,0.0,0.0,0.0,0.0,0.0,0.0,0.0,0.0,0.0,0.0,0.0,0.0,0.0,0.0,0.0,0.0,0.0,0.0,0.0,0.0,0.0,0.0,0.0,0.0,0.0,0.0,0.0,0.0,0.0,0.0,0.0,0.0,0.0,0.0,0.0,0.0,0.0,0.0,0.0,0.0,0.0,0.0,0.0,0.0,0.0,0.0,0.0,0.0,0.0,0.0,0.0,0.0,0.0,0.0,0.0,0.0,0.0,0.0,0.0,0.0,0.0,0.0,0.0,0.0,0.0,0.0,0.0,0.0,0.0,0.0,0.0,0.0,0.0,-0.3953,-0.4323,-0.5174,0.0,0.0,0.0,0.0,0.0,0.0,0.0,0.0,0.0,0.0,0.0,0.0,0.0,0.0,0.0,0.0,0.0,0.0,0.0,0.0,0.0,0.0,0.0,0.0,0.0,0.0,0.0,0.0,0.0,0.0,0.0,0.0,0.0,0.0,0.0,0.0,0.0,0.0,0.0,0.0,0.0,0.0,0.0,0.0,0.0,0.0,0.0,0.0,0.0,0.0,0.0,0.0,0.0,0.0,0.0,0.0,0.0,0.0,0.0,0.0,0.0,0.0,0.0,0.0,0.0,0.0,0.0,0.0,0.0,0.0,0.0,0.0,0.0,0.0,0.0,0.0,0.0,0.0,0.0,0.0,0.0,0.0,0.0,0.0,0.0,0.0,0.0,0.0,0.0,0.0,0.0,0.0,0.0,0.0,0.0,0.0,0.0,0.0,0.0,0.0,0.0,0.0,0.0,0.0,0.0,0.0,0.0,0.0,0.0,0.0,-0.6194,-0.6292,-0.6262,0.0,-0.6446,0.0,0.0,0.0,0.0,0.0,0.0,0.0,0.0,0.0,0.0,0.0,0.0,0.0,0.0,0.0,0.0,0.0,0.0,0.0,0.0,0.0,0.0,0.0,0.0,0.0,0.0,0.0,0.0,0.0,0.0,0.0,0.0,0.0,0.0,0.0,0.0,0.0,0.0,0.0,0.0,0.0,0.0,0.0,0.0,0.0,0.0,0.0,0.0,0.0,0.0,0.0,0.0,0.0,0.0,0.0,0.0,0.0,0.0,0.0,0.0,0.0,0.0,0.0,0.0,0.0,0.0,0.0,0.0,0.0,0.0,0.0,0.0,0.0,0.0,0.0,0.0,0.0,0.0,0.0,0.0,0.0,0.0,0.0,0.0,0.0,0.0,0.0,0.0,0.0,0.0,0.0,0.0,0.0,0.0,0.0,0.0,0.0,0.0,0.0,0.0,0.0,0.0,0.0,0.0,0.0,0.0,0.0,0.0,0.0,0.0,-0.6441,-0.6565,-0.6616,-0.6616,0.0,0.0,0.0,0.0,0.0,0.0,0.0,0.0,0.0,0.0,0.0,0.0,0.0,0.0,0.0,0.0,0.0,0.0,0.0,0.0,0.0,0.0,0.0,0.0,0.0,0.0,0.0,0.0,0.0,0.0,0.0,0.0,0.0,0.0,0.0,0.0,0.0,0.0,0.0,0.0,0.0,0.0,0.0,0.0,0.0,0.0,0.0,0.0,0.0,0.0,0.0,0.0,0.0,0.0,0.0,0.0,0.0,0.0,0.0,0.0,0.0,0.0,0.0,0.0,0.0,0.0,0.0,0.0,0.0,0.0,0.0,0.0,0.0,0.0,0.0,0.0,0.0,0.0,0.0,0.0,0.0,0.0,0.0,0.0,0.0,0.0,0.0,0.0,0.0,0.0,0.0,0.0,0.0,0.0,0.0,0.0,0.0,0.0,0.0,0.0,0.0,0.0,0.0,0.0,0.0,0.0,0.0,0.0,0.0,0.0,-0.6457,-0.6495,-0.666,-0.6671,-0.6654,-0.6622,0.0,0.0,0.0,0.0,0.0,0.0,0.0,0.0,0.0,0.0,0.0,0.0,0.0,0.0,0.0,0.0,0.0,0.0,0.0,0.0,0.0,0.0,0.0,0.0,0.0,0.0,0.0,0.0,0.0,0.0,0.0,0.0,0.0,0.0,0.0,0.0,0.0,0.0,0.0,0.0,0.0,0.0,0.0,0.0,0.0,0.0,0.0,0.0,0.0,0.0,0.0,0.0,0.0,0.0,0.0,0.0,0.0,0.0,0.0,0.0,0.0,0.0,0.0,0.0,0.0,0.0,0.0,0.0,0.0,0.0,0.0,0.0,0.0,0.0,0.0,0.0,0.0,0.0,0.0,0.0,0.0,0.0,0.0,0.0,0.0,0.0,0.0,0.0,0.0,0.0,0.0,0.0,0.0,0.0,0.0,0.0,0.0,0.0,0.0,0.0,0.0,0.0,0.0,0.0,0.0,0.0,0.0,0.0,-0.6768,-0.6671,-0.6671,-0.679,-0.6796,-0.6741,0.0,0.0,0.0,0.0,0.0,0.0,0.0,0.0,0.0,0.0,0.0,0.0,0.0,0.0,0.0,0.0,0.0,0.0,0.0,0.0,0.0,0.0,0.0,0.0,0.0,0.0,0.0,0.0,0.0,0.0,0.0,0.0,0.0,0.0,0.0,0.0,0.0,0.0,0.0,0.0,0.0,0.0,0.0,0.0,0.0,0.0,0.0,0.0,0.0,0.0,0.0,0.0,0.0,0.0,0.0,0.0,0.0,0.0,0.0,0.0,0.0,0.0,0.0,0.0,0.0,0.0,0.0,0.0,0.0,0.0,0.0,0.0,0.0,0.0,0.0,0.0,0.0,0.0,0.0,0.0,0.0,0.0,0.0,0.0,0.0,0.0,0.0,0.0,0.0,0.0,0.0,0.0,0.0,0.0,0.0,0.0,0.0,0.0,0.0,0.0,0.0,0.0,0.0,0.0,0.0,0.0,0.0,0.0,0.0,-0.6681,-0.6796,-0.6872,-0.6915,-0.6844,-0.6779,0.0,0.0,0.0,0.0,0.0,0.0,0.0,0.0,0.0,0.0,0.0,0.0,0.0,0.0,0.0,0.0,0.0,0.0,0.0,0.0,0.0,0.0,0.0,0.0,0.0,0.0,0.0,0.0,0.0,0.0,0.0,0.0,0.0,0.0,0.0,0.0,0.0,0.0,0.0,0.0,0.0,0.0,0.0,0.0,0.0,0.0,0.0,0.0,0.0,0.0,0.0,0.0,0.0,0.0,0.0,0.0,0.0,0.0,0.0,0.0,0.0,0.0,0.0,0.0,0.0,0.0,0.0,0.0,0.0,0.0,0.0,0.0,0.0,0.0,0.0,0.0,0.0,0.0,0.0,0.0,0.0,0.0,0.0,0.0,0.0,0.0,0.0,0.0,0.0,0.0,0.0,0.0,0.0,0.0,0.0,0.0,0.0,0.0,0.0,0.0,0.0,0.0,0.0,0.0,0.0,0.0,0.0,0.0,0.0,-0.6736,-0.6975,-0.7078,-0.7089,-0.6926,-0.6823,0.0,0.0,0.0,0.0,0.0,0.0,0.0,0.0,0.0,0.0,0.0,0.0,0.0,0.0,0.0,0.0,0.0,0.0,0.0,0.0,0.0,0.0,0.0,0.0,0.0,0.0,0.0,0.0,0.0,0.0,0.0,0.0,0.0,0.0,0.0,0.0,0.0,0.0,0.0,0.0,0.0,0.0,0.0,0.0,0.0,0.0,0.0,0.0,0.0,0.0,0.0,0.0,0.0,0.0,0.0,0.0,0.0,0.0,0.0,0.0,0.0,0.0,0.0,0.0,0.0,0.0,0.0,0.0,0.0,0.0,0.0,0.0,0.0,0.0,0.0,0.0,0.0,0.0,0.0,0.0,0.0,0.0,0.0,0.0,0.0,0.0,0.0,0.0,0.0,0.0,0.0,0.0,0.0,0.0,0.0,0.0,0.0,0.0,0.0,0.0,0.0,0.0,0.0,0.0,0.0,0.0,0.0,0.0,-0.6622,-0.697,-0.7209,-0.7274,-0.7215,-0.7046,-0.6872,0.0,0.0,0.0,0.0,0.0,0.0,0.0,0.0,0.0,0.0,0.0,0.0,0.0,0.0,0.0,0.0,0.0,0.0,0.0,0.0,0.0,0.0,0.0,0.0,0.0,0.0,0.0,0.0,0.0,0.0,0.0,0.0,0.0,0.0,0.0,0.0,0.0,0.0,0.0,0.0,0.0,0.0,0.0,0.0,0.0,0.0,0.0,0.0,0.0,0.0,0.0,0.0,0.0,0.0,0.0,0.0,0.0,0.0,0.0,0.0,0.0,0.0,0.0,0.0,0.0,0.0,0.0,0.0,0.0,0.0,0.0,0.0,0.0,0.0,0.0,0.0,0.0,0.0,0.0,0.0,0.0,0.0,0.0,0.0,0.0,0.0,0.0,0.0,0.0,0.0,0.0,0.0,0.0,0.0,0.0,0.0,0.0,0.0,0.0,0.0,0.0,0.0,0.0,0.0,0.0,0.0,0.0,0.0,0.0,-0.6986,-0.7296,-0.7404,-0.7285,-0.7165,-0.7084,0.0,0.0,0.0,0.0,0.0,0.0,0.0,0.0,0.0,0.0,0.0,0.0,0.0,0.0,0.0,0.0,0.0,0.0,0.0,0.0,0.0,0.0,0.0,0.0,0.0,0.0,0.0,0.0,0.0,0.0,0.0,0.0,0.0,0.0,0.0,0.0,0.0,0.0,0.0,0.0,0.0,0.0,0.0,0.0,0.0,0.0,0.0,0.0,0.0,0.0,0.0,0.0,0.0,0.0,0.0,0.0,0.0,0.0,0.0,0.0,0.0,0.0,0.0,0.0,0.0,0.0,0.0,0.0,0.0,0.0,0.0,0.0,0.0,0.0,0.0,0.0,0.0,0.0,0.0,0.0,0.0,0.0,0.0,0.0,0.0,0.0,0.0,0.0,0.0,0.0,0.0,0.0,0.0,0.0,0.0,0.0,0.0,0.0,0.0,0.0,0.0,0.0,0.0,0.0,0.0,0.0,0.0,0.0,0.0,-0.7127,-0.7421,-0.7529,-0.741,-0.7241,-0.7177,-0.7046,0.0,0.0,0.0,0.0,0.0,0.0,0.0,0.0,0.0,0.0,0.0,0.0,0.0,0.0,0.0,0.0,0.0,0.0,0.0,0.0,0.0,0.0,0.0,0.0,0.0,0.0,0.0,0.0,0.0,0.0,0.0,0.0,0.0,0.0,0.0,0.0,0.0,0.0,0.0,0.0,0.0,0.0,0.0,0.0,0.0,0.0,0.0,0.0,0.0,0.0,0.0,0.0,0.0,0.0,0.0,0.0,0.0,0.0,0.0,0.0,0.0,0.0,0.0,0.0,0.0,0.0,0.0,0.0,0.0,0.0,0.0,0.0,0.0,0.0,0.0,0.0,0.0,0.0,0.0,0.0,0.0,0.0,0.0,0.0,0.0,0.0,0.0,0.0,0.0,0.0,0.0,0.0,0.0,0.0,0.0,0.0,0.0,0.0,0.0,0.0,0.0,0.0,0.0,0.0,0.0,0.0,0.0,0.0,-0.7277,-0.7562,-0.7622,-0.7508,-0.7285,-0.7221,0.0,0.0,0.0,0.0,0.0,0.0,0.0,0.0,0.0,0.0,0.0,0.0,0.0,0.0,0.0,0.0,0.0,0.0,0.0,0.0,0.0,0.0,0.0,0.0,0.0,0.0,0.0,0.0,0.0,0.0,0.0,0.0,0.0,0.0,0.0,0.0,0.0,0.0,0.0,0.0,0.0,0.0,0.0,0.0,0.0,0.0,0.0,0.0,0.0,0.0,0.0,0.0,0.0,0.0,0.0,0.0,0.0,0.0,0.0,0.0,0.0,0.0,0.0,0.0,0.0,0.0,0.0,0.0,0.0,0.0,0.0,0.0,0.0,0.0,0.0,0.0,0.0,0.0,0.0,0.0,0.0,0.0,0.0,0.0,0.0,0.0,0.0,0.0,0.0,0.0,0.0,0.0,0.0,0.0,0.0,0.0,0.0,0.0,0.0,0.0,0.0,0.0,0.0,0.0,0.0,0.0,0.0,0.0,0.0,-0.7277,-0.7342,-0.7415,-0.7325,-0.7323,-0.7247,0.0,0.0,0.0,0.0,0.0,0.0,0.0,0.0,0.0,0.0,0.0,0.0,0.0,0.0,0.0,0.0,0.0,0.0,0.0,0.0,0.0,0.0,0.0,0.0,0.0,0.0,0.0,0.0,0.0,0.0,0.0,0.0,0.0,0.0,0.0,0.0,0.0,0.0,0.0,0.0,0.0,0.0,0.0,0.0,0.0,0.0,0.0,0.0,0.0,0.0,0.0,0.0,0.0,0.0,0.0,0.0,0.0,0.0,0.0,0.0,0.0,0.0,0.0,0.0,0.0,0.0,0.0,0.0,0.0,0.0,0.0,0.0,0.0,0.0,0.0,0.0,0.0,0.0,0.0,0.0,0.0,0.0,0.0,0.0,0.0,0.0,0.0,0.0,0.0,0.0,0.0,0.0,0.0,0.0,0.0,0.0,0.0,0.0,0.0,0.0,0.0,0.0,0.0,0.0,0.0,0.0,0.0,0.0,-0.729,-0.741,-0.7304,-0.7312,-0.7258,-0.7307,-0.7301,0.0,0.0,0.0,0.0,0.0,0.0,0.0,0.0,0.0,0.0,0.0,0.0,0.0,0.0,0.0,0.0,0.0,0.0,0.0,0.0,0.0,0.0,0.0,0.0,0.0,0.0,0.0,0.0,0.0,0.0,0.0,0.0,0.0,0.0,0.0,0.0,0.0,0.0,0.0,0.0,0.0,0.0,0.0,0.0,0.0,0.0,0.0,0.0,0.0,0.0,0.0,0.0,0.0,0.0,0.0,0.0,0.0,0.0,0.0,0.0,0.0,0.0,0.0,0.0,0.0,0.0,0.0,0.0,0.0,0.0,0.0,0.0,0.0,0.0,0.0,0.0,0.0,0.0,0.0,0.0,0.0,0.0,0.0,0.0,0.0,0.0,0.0,0.0,0.0,0.0,0.0,0.0,0.0,0.0,0.0,0.0,0.0,0.0,0.0,0.0,0.0,0.0,0.0,0.0,0.0,0.0,0.0,0.0,-0.741,-0.7513,-0.7352,-0.7296,-0.7237,-0.7279,-0.7271,0.0,0.0,0.0,0.0,0.0,0.0,0.0,0.0,0.0,0.0,0.0,0.0,0.0,0.0,0.0,0.0,0.0,0.0,0.0,0.0,0.0,0.0,0.0,0.0,0.0,0.0,0.0,0.0,0.0,0.0,0.0,0.0,0.0,0.0,0.0,0.0,0.0,0.0,0.0,0.0,0.0,0.0,0.0,0.0,0.0,0.0,0.0,0.0,0.0,0.0,0.0,0.0,0.0,0.0,0.0,0.0,0.0,0.0,0.0,0.0,0.0,0.0,0.0,0.0,0.0,0.0,0.0,0.0,0.0,0.0,0.0,0.0,0.0,0.0,0.0,0.0,0.0,0.0,0.0,0.0,0.0,0.0,0.0,0.0,0.0,0.0,0.0,0.0,0.0,0.0,0.0,0.0,0.0,0.0,0.0,0.0,0.0,0.0,0.0,0.0,0.0,0.0,0.0,0.0,0.0,0.0,0.0,0.0,-0.7491,-0.7519,-0.7491,-0.7421,-0.7301,-0.7323,-0.729,0.0,0.0,0.0,0.0,0.0,0.0,0.0,0.0,0.0,0.0,0.0,0.0,0.0,0.0,0.0,0.0,0.0,0.0,0.0,0.0,0.0,0.0,0.0,0.0,0.0,0.0,0.0,0.0,0.0,0.0,0.0,0.0,0.0,0.0,0.0,0.0,0.0,0.0,0.0,0.0,0.0,0.0,0.0,0.0,0.0,0.0,0.0,0.0,-0.8904,0.0,0.0,0.0,0.0,0.0,0.0,0.0,0.0,0.0,0.0,0.0,0.0,0.0,0.0,0.0,0.0,0.0,0.0,0.0,0.0,0.0,0.0,0.0,0.0,0.0,0.0,0.0,0.0,0.0,0.0,0.0,0.0,0.0,0.0,0.0,0.0,0.0,0.0,0.0,0.0,0.0,0.0,0.0,0.0,0.0,0.0,0.0,0.0,0.0,0.0,0.0,0.0,0.0,0.0,0.0,0.0,0.0,0.0,0.0,-0.7578,-0.7524,-0.7578,-0.7519,-0.7293,-0.7336,-0.7361,0.0,0.0,0.0,0.0,0.0,0.0,0.0,0.0,0.0,0.0,0.0,0.0,0.0,0.0,0.0,0.0,0.0,0.0,0.0,0.0,0.0,0.0,0.0,0.0,0.0,0.0,0.0,0.0,0.0,0.0,0.0,0.0,0.0,0.0,0.0,0.0,0.0,0.0,0.0,0.0,0.0,0.0,0.0,0.0,0.0,0.0,0.0,0.0,0.0,0.0,0.0,0.0,0.0,0.0,0.0,0.0,0.0,0.0,0.0,0.0,0.0,0.0,0.0,0.0,0.0,0.0,0.0,0.0,0.0,0.0,0.0,0.0,0.0,0.0,0.0,0.0,0.0,0.0,0.0,0.0,0.0,0.0,0.0,0.0,0.0,0.0,0.0,0.0,0.0,0.0,0.0,0.0,0.0,0.0,0.0,0.0,0.0,0.0,0.0,0.0,0.0,0.0,0.0,0.0,0.0,0.0,0.0,-0.7502,-0.7676,-0.7584,-0.7676,-0.7627,-0.7369,-0.7502,-0.7497,-0.7342,0.0,0.0,0.0,0.0,0.0,0.0,0.0,0.0,0.0,0.0,0.0,0.0,0.0,0.0,0.0,0.0,0.0,0.0,0.0,0.0,0.0,0.0,0.0,0.0,0.0,0.0,0.0,0.0,0.0,0.0,0.0,0.0,0.0,0.0,0.0,0.0,0.0,0.0,-0.8624,-0.8997,0.0,0.0,0.0,0.0,0.0,0.0,0.0,0.0,-0.9096,0.0,0.0,0.0,0.0,0.0,0.0,0.0,0.0,0.0,0.0,0.0,0.0,0.0,0.0,0.0,0.0,0.0,0.0,0.0,0.0,0.0,0.0,0.0,0.0,0.0,0.0,0.0,0.0,0.0,0.0,0.0,0.0,0.0,0.0,0.0,0.0,0.0,0.0,0.0,0.0,0.0,0.0,0.0,0.0,0.0,0.0,0.0,0.0,0.0,0.0,0.0,0.0,0.0,0.0,0.0,0.0,-0.7432,-0.7703,-0.7834,-0.7818,-0.7834,-0.7823,-0.7785,-0.7709,-0.766,-0.7633,0.0,0.0,0.0,0.0,0.0,0.0,0.0,0.0,0.0,0.0,0.0,0.0,0.0,0.0,0.0,0.0,0.0,0.0,0.0,0.0,0.0,0.0,0.0,0.0,0.0,0.0,0.0,0.0,0.0,0.0,0.0,0.0,0.0,0.0,0.0,0.0,0.0,0.0,0.0,-0.9327,-0.934,0.0,0.0,0.0,0.0,0.0,0.0,0.0,0.0,-0.9252,0.0,0.0,0.0,0.0,0.0,0.0,0.0,0.0,0.0,0.0,0.0,0.0,0.0,0.0,0.0,0.0,0.0,0.0,0.0,0.0,0.0,0.0,0.0,0.0,0.0,0.0,0.0,0.0,0.0,0.0,0.0,0.0,0.0,0.0,0.0,0.0,0.0,0.0,0.0,0.0,0.0,0.0,0.0,0.0,0.0,0.0,0.0,0.0,0.0,0.0,0.0,0.0,0.0,0.0,0.0,-0.795,-0.8259,-0.8421,-0.8421,-0.8238,-0.8183,-0.8177,-0.7884,-0.7703,0.0,0.0,0.0,0.0,0.0,0.0,0.0,0.0,0.0,0.0,0.0,0.0,0.0,0.0,0.0,0.0,0.0,0.0,0.0,0.0,0.0,0.0,0.0,0.0,0.0,0.0,0.0,0.0,0.0,0.0,0.0,0.0,0.0,0.0,0.0,0.0,0.0,0.0,0.0,0.0,-0.9381,-0.9408,-0.949,0.0,0.0,0.0,0.0,0.0,0.0,-0.9279,-0.9306,0.0,0.0,0.0,0.0,0.0,0.0,0.0,0.0,0.0,0.0,0.0,0.0,0.0,0.0,0.0,0.0,0.0,0.0,0.0,0.0,0.0,0.0,0.0,0.0,0.0,0.0,0.0,0.0,0.0,0.0,0.0,0.0,0.0,0.0,0.0,0.0,0.0,0.0,0.0,0.0,0.0,0.0,0.0,0.0,0.0,0.0,0.0,0.0,0.0,0.0,0.0,0.0,0.0,0.0,0.0,-0.8435,-0.8749,-0.8946,-0.8989,-0.8664,-0.8541,-0.8564,-0.8199,-0.7944,0.0,0.0,0.0,0.0,0.0,0.0,0.0,0.0,0.0,0.0,0.0,0.0,0.0,0.0,0.0,0.0,0.0,0.0,0.0,0.0,0.0,0.0,0.0,0.0,0.0,0.0,0.0,0.0,0.0,0.0,0.0,0.0,0.0,0.0,0.0,0.0,0.0,0.0,0.0,0.0,0.0,-0.9462,-0.9551,-0.9842,0.0,0.0,0.0,0.0,-0.9306,-0.9347,0.0,0.0,0.0,0.0,0.0,0.0,0.0,0.0,0.0,0.0,0.0,0.0,0.0,0.0,0.0,0.0,0.0,0.0,0.0,0.0,0.0,0.0,0.0,0.0,0.0,0.0,0.0,0.0,0.0,0.0,0.0,0.0,0.0,0.0,0.0,0.0,0.0,0.0,0.0,0.0,0.0,0.0,0.0,0.0,0.0,0.0,0.0,0.0,0.0,0.0,0.0,0.0,0.0,0.0,0.0,0.0,-0.8829,-0.8891,-0.9032,-0.9248,-0.9087,-0.9081,-0.9203,-0.9018,-0.8711,0.0,0.0,0.0,0.0,0.0,0.0,0.0,0.0,0.0,0.0,0.0,0.0,0.0,0.0,0.0,0.0,0.0,0.0,0.0,0.0,0.0,0.0,0.0,0.0,0.0,0.0,0.0,0.0,0.0,0.0,0.0,0.0,0.0,0.0,0.0,0.0,0.0,0.0,0.0,0.0,0.0,-0.9537,-0.9422,-0.9774,-0.993,0.0,0.0,-0.9856,-0.9605,-0.9571,0.0,0.0,0.0,0.0,0.0,0.0,0.0,0.0,0.0,0.0,0.0,0.0,0.0,0.0,0.0,0.0,0.0,0.0,0.0,0.0,0.0,0.0,0.0,0.0,0.0,0.0,0.0,0.0,0.0,0.0,0.0,0.0,0.0,0.0,0.0,0.0,0.0,0.0,0.0,0.0,0.0,0.0,0.0,0.0,0.0,0.0,0.0,0.0,0.0,0.0,0.0,0.0,0.0,0.0,0.0,-0.9142,-0.9383,-0.9481,-0.9623,-0.9818,-0.9633,-0.9507,-0.9564,-0.9249,-0.8995,0.0,0.0,0.0,0.0,0.0,0.0,0.0,0.0,0.0,0.0,0.0,0.0,0.0,0.0,0.0,0.0,0.0,0.0,0.0,0.0,0.0,0.0,0.0,0.0,0.0,0.0,0.0,0.0,0.0,0.0,0.0,0.0,0.0,0.0,0.0,0.0,0.0,0.0,0.0,0.0,0.0,0.0,-0.9768,-1.0066,0.0,0.0,0.0,-1.0195,-0.9842,0.0,0.0,0.0,0.0,0.0,0.0,0.0,0.0,0.0,0.0,0.0,0.0,0.0,0.0,0.0,0.0,0.0,0.0,0.0,0.0,0.0,0.0,0.0,0.0,0.0,0.0,0.0,0.0,0.0,0.0,0.0,0.0,0.0,0.0,0.0,0.0,0.0,0.0,0.0,0.0,0.0,0.0,0.0,0.0,0.0,0.0,0.0,0.0,0.0,0.0,0.0,0.0,0.0,0.0,0.0,0.0,0.0,-1.0233,-1.0095,-1.0141,-1.0324,-1.0354,-1.0424,-1.0557,-1.0412,0.0,0.0,0.0,0.0,0.0,0.0,0.0,0.0,0.0,0.0,0.0,0.0,0.0,0.0,0.0,0.0,0.0,0.0,0.0,0.0,0.0,0.0,0.0,0.0,0.0,0.0,0.0,-1.4328,0.0,0.0,0.0,0.0,0.0,0.0,0.0,0.0,0.0,0.0,0.0,0.0,0.0,0.0,-0.9957,-1.01,-1.0358,-1.0561,0.0,0.0,-1.05,-1.0209,-1.0229,-1.0229,0.0,0.0,0.0,0.0,0.0,0.0,0.0,0.0,0.0,0.0,0.0,0.0,0.0,0.0,0.0,0.0,0.0,0.0,0.0,0.0,0.0,0.0,0.0,0.0,0.0,0.0,0.0,0.0,0.0,0.0,0.0,0.0,0.0,0.0,0.0,0.0,0.0,0.0,0.0,0.0,0.0,0.0,0.0,0.0,0.0,0.0,0.0,0.0,0.0,0.0,0.0,0.0,0.0,0.0,-1.1145,-1.1503,-1.0526,-1.0188,-1.0524,-1.1543,-1.2251,-1.2562,-1.3215,-1.2926,0.0,0.0,0.0,0.0,0.0,0.0,0.0,0.0,0.0,0.0,0.0,0.0,0.0,0.0,0.0,0.0,0.0,0.0,0.0,0.0,0.0,0.0,0.0,0.0,0.0,0.0,0.0,0.0,0.0,0.0,0.0,0.0,0.0,0.0,0.0,0.0,0.0,0.0,0.0,0.0,0.0,-0.9944,-1.0222,-1.0521,-1.0751,0.0,-1.0847,-1.0812,-1.0514,-1.0365,-1.0229,-1.0017,0.0,0.0,0.0,0.0,0.0,0.0,0.0,0.0,0.0,0.0,0.0,0.0,0.0,0.0,0.0,0.0,0.0,0.0,0.0,0.0,0.0,0.0,0.0,0.0,0.0,0.0,0.0,0.0,0.0,0.0,0.0,0.0,0.0,0.0,0.0,0.0,0.0,0.0,0.0,0.0,0.0,0.0,0.0,0.0,0.0,0.0,0.0,0.0,0.0,0.0,0.0,0.0,0.0,-1.2731,-1.3177,-1.2828,-1.2851,-1.3336,-1.3852,-1.4157,-1.4184,-1.4474,-1.4231,0.0,0.0,0.0,0.0,0.0,0.0,0.0,0.0,0.0,0.0,0.0,0.0,0.0,0.0,0.0,0.0,0.0,0.0,0.0,0.0,0.0,0.0,0.0,0.0,0.0,0.0,0.0,0.0,-1.5101,-1.5246,-1.5342,0.0,0.0,0.0,0.0,0.0,0.0,0.0,0.0,0.0,0.0,-1.0351,-1.029,-1.0616,0.0,0.0,-1.1002,-1.0941,-1.0907,-1.0785,-1.067,-1.055,-1.0408,0.0,0.0,0.0,0.0,0.0,0.0,0.0,0.0,0.0,0.0,0.0,0.0,0.0,0.0,0.0,0.0,0.0,0.0,0.0,0.0,0.0,0.0,0.0,0.0,0.0,0.0,0.0,-0.8307,0.0,0.0,0.0,0.0,0.0,0.0,0.0,0.0,0.0,0.0,0.0,0.0,0.0,0.0,0.0,0.0,0.0,0.0,0.0,0.0,0.0,0.0,0.0,0.0,-1.4203,-1.4699,-1.449,-1.4645,-1.5109,-1.5668,-1.5936,-1.5962,-1.6114,-1.5882,-1.52,0.0,0.0,0.0,0.0,0.0,0.0,0.0,0.0,0.0,0.0,0.0,0.0,0.0,0.0,0.0,0.0,0.0,0.0,0.0,0.0,0.0,0.0,0.0,0.0,0.0,0.0,0.0,-1.5535,-1.5765,-1.5849,0.0,0.0,0.0,0.0,0.0,0.0,0.0,0.0,0.0,0.0,-1.0663,-1.0507,-1.0826,-1.1118,-1.1219,-1.1145,-1.1097,-1.1151,-1.1043,-1.088,-1.088,0.0,0.0,0.0,0.0,0.0,0.0,0.0,0.0,0.0,0.0,0.0,0.0,0.0,0.0,0.0,0.0,0.0,0.0,0.0,0.0,0.0,0.0,0.0,0.0,0.0,0.0,0.0,-0.9377,0.0,0.0,-0.9216,0.0,0.0,0.0,0.0,0.0,0.0,0.0,0.0,0.0,0.0,0.0,0.0,0.0,0.0,0.0,0.0,0.0,0.0,0.0,0.0,0.0,0.0,-1.5461,-1.5924,-1.52,-1.4983,-1.5395,-1.6685,-1.7572,-1.7949,-1.8388,-1.8057,-1.6825,0.0,0.0,0.0,0.0,0.0,0.0,0.0,0.0,0.0,0.0,0.0,0.0,0.0,0.0,0.0,0.0,0.0,0.0,0.0,0.0,0.0,0.0,0.0,0.0,0.0,0.0,-1.5499,-1.5958,-1.6368,0.0,0.0,0.0,0.0,0.0,0.0,0.0,0.0,0.0,-1.0615,-1.0527,-1.0772,-1.084,-1.1192,-1.1375,-1.1389,-1.1389,-1.1335,-1.1275,-1.1056,-1.088,0.0,0.0,0.0,0.0,0.0,0.0,0.0,0.0,0.0,0.0,0.0,0.0,0.0,0.0,0.0,0.0,0.0,0.0,0.0,0.0,0.0,0.0,0.0,0.0,0.0,0.0,0.0,-0.9598,-0.9815,0.0,0.0,0.0,0.0,0.0,0.0,0.0,0.0,0.0,-1.47,0.0,-1.6181,-1.6345,0.0,0.0,0.0,0.0,0.0,0.0,0.0,0.0,0.0,0.0,0.0,0.0,-1.7183,-1.7532,-1.7582,-1.7888,-1.8384,-1.9034,-1.9411,-1.9494,-1.9649,-1.9286,-1.8378,0.0,0.0,0.0,-1.6331,0.0,0.0,0.0,0.0,0.0,0.0,0.0,0.0,0.0,0.0,0.0,0.0,0.0,0.0,0.0,0.0,0.0,0.0,0.0,0.0,0.0,-1.6465,0.0,0.0,0.0,0.0,0.0,0.0,0.0,0.0,0.0,0.0,-1.4336,-1.3501,-1.2051,-1.1271,-1.0988,-1.1344,-1.1699,-1.1923,0.0,0.0,-1.2142,0.0,0.0,0.0,0.0,0.0,0.0,0.0,0.0,0.0,0.0,-1.1843,-1.1475,-1.1055,-1.0975,-1.0919,-1.0658,0.0,0.0,0.0,0.0,0.0,0.0,0.0,0.0,0.0,0.0,0.0,0.0,0.0,0.0,-1.0579,-1.1237,-1.1942,0.0,0.0,0.0,0.0,0.0,0.0,0.0,0.0,-1.6728,-1.715,-1.7591,-1.784,-1.8274,-1.8695,-1.8311,-1.7802,0.0,0.0,0.0,0.0,0.0,0.0,0.0,0.0,-1.8106,-1.8553,-1.8988,-1.947,-2.0002,-2.0279,-2.0412,-2.0412,-2.0231,-1.9845,-1.9229,-1.871,-1.8432,0.0,0.0,0.0,0.0,0.0,0.0,0.0,0.0,0.0,0.0,0.0,0.0,0.0,0.0,0.0,0.0,0.0,0.0,0.0,0.0,0.0,0.0,0.0,-1.6996,0.0,0.0,0.0,0.0,0.0,0.0,0.0,0.0,0.0,-1.6249,-1.5721,-1.4852,-1.3268,-1.2657,-1.2237,-1.2139,0.0,0.0,0.0,0.0,0.0,0.0,0.0,-1.2379,-1.2785,-1.2654,-1.2443,-1.2466,-1.2475,-1.2498,-1.2689,0.0,0.0,-1.1848,-1.2084,-1.2409,-1.2141,-1.2141,-1.2206,-1.2523,-1.2133,-1.1964,0.0,0.0,0.0,0.0,-1.0836,0.0,0.0,0.0,-1.0967,-1.1811,0.0,-1.3279,0.0,0.0,0.0,0.0,-1.8515,-1.9061,0.0,0.0,-1.9312,-1.9311,-1.9265,-1.9296,-1.9315,-1.9315,-1.8746,-1.8626,-1.8752,-1.7827,-1.7384,0.0,0.0,0.0,0.0,0.0,-1.83,-1.9048,-1.9415,-1.9814,-2.0255,-2.0533,-2.0665,-2.0723,-2.0171,-1.9784,-1.9495,-1.9,-1.871,-1.8686,-1.795,0.0,0.0,0.0,0.0,0.0,0.0,0.0,0.0,0.0,0.0,0.0,0.0,0.0,0.0,0.0,0.0,0.0,0.0,0.0,0.0,-1.673,0.0,0.0,0.0,0.0,0.0,0.0,0.0,0.0,0.0,-1.9063,-1.736,-1.7598,-1.7055,-1.4483,0.0,0.0,0.0,0.0,-1.3475,-1.355,-1.3475,-1.3475,-1.3401,-1.3265,-1.3079,-1.3079,0.0,0.0,-1.346,-1.3452,-1.3602,-1.3747,-1.5023,-1.5229,-1.2988,-1.3797,-1.4674,-1.4674,-1.4656,-1.5168,-1.63,-1.5355,-1.4905,-1.1822,0.0,0.0,0.0,0.0,-1.226,-1.1978,-1.1498,-1.1619,-1.202,-1.2732,-1.433,0.0,0.0,0.0,0.0,0.0,0.0,-1.9987,-1.9987,-1.9947,-1.9913,-1.9926,-1.9945,-2.009,-2.0288,-1.9889,-1.9842,-2.009,-1.94,-1.8816,-1.8398,0.0,0.0,0.0,0.0,-1.8855,-1.9096,-1.9712,-2.0122,-2.0279,-2.0602,-2.0665,-2.0665,-2.034,-2.0134,-2.005,-1.9531,-1.9221,-1.8963,-1.8565,0.0,0.0,0.0,0.0,0.0,0.0,0.0,0.0,0.0,0.0,0.0,0.0,0.0,0.0,0.0,0.0,0.0,0.0,0.0,-1.7225,-1.7664,-1.8015,0.0,0.0,0.0,0.0,0.0,0.0,0.0,0.0,0.0,-2.018,-1.909,-1.8281,0.0,0.0,-1.6803,-1.6971,-1.7044,-1.7048,-1.7048,-1.6902,0.0,-1.545,-1.4956,-1.4514,-1.397,-1.4474,-1.5411,-1.6746,-1.6857,-1.6788,-1.6937,-1.7377,-1.7426,-1.6857,-1.6803,-1.6891,-1.6591,-1.6523,-1.6523,-1.6716,-1.6446,-1.6312,-1.4,-1.3996,-1.4446,-1.4401,-1.4085,-1.4314,-1.3741,-1.2693,-1.2871,-1.3046,-1.3274,-1.4619,-1.5483,-1.6172,-1.8069,0.0,0.0,0.0,-2.018,-2.018,-2.0481,-2.0575,-2.0601,-2.0815,-2.1015,-2.1176,-2.077,-2.0721,-2.0999,-2.0407,-2.003,-1.973,0.0,-1.875,-1.8988,-1.9157,-1.9338,-1.9567,-2.0026,-2.0327,-2.0505,-2.0593,-2.0665,-2.0665,-2.0509,-2.0424,-2.0424,-2.0014,-1.9778,-1.9621,-1.9096,-1.8698,0.0,0.0,0.0,0.0,0.0,0.0,0.0,0.0,0.0,0.0,0.0,-1.6211,-1.6211,0.0,0.0,0.0,-1.7414,-1.7513,-1.7947,-1.8371,0.0,0.0,0.0,0.0,0.0,0.0,0.0,-2.0229,-2.0744,-2.124,-2.1766,-2.1158,-2.0476,-1.997,-1.9476,-1.9162,-1.8923,0.0,-1.8832,-1.8664,-1.8571,-1.8217,-1.7341,-1.6898,-1.6484,-1.5947,-1.6413,-1.7186,-1.8138,-1.833,-1.8298,-1.8428,-1.9027,-1.9445,-1.9445,-1.9831,-1.9828,-1.8812,-1.863,-1.8698,-1.9106,-1.8755,-1.847,-1.6478,-1.7094,-1.659,-1.636,-1.6445,-1.6474,-1.5826,-1.4707,-1.4644,-1.475,-1.483,-1.4702,-1.5458,-1.6951,-1.801,0.0,-2.0273,-2.0361,-2.0326,-2.0401,-2.0935,-2.1176,-2.1203,-2.1724,-2.1991,-2.2004,-2.1463,-2.128,-2.1529,-2.1019,-2.0976,-2.1408,-2.0102,-1.9507,-1.9638,-1.9662,-1.9905,-2.0403,-2.0359,-2.0493,-2.0665,-2.0665,-2.0665,-2.0665,-2.0665,-2.0665,-2.0665,-2.0505,-2.0291,-2.0255,-1.9567,-1.9157,-1.9084,0.0,0.0,0.0,0.0,0.0,0.0,0.0,0.0,0.0,0.0,0.0,0.0,0.0,0.0,-1.7693,-1.8155,0.0,-1.8839,-1.8852,0.0,0.0,0.0,-1.9116,-1.9402,-1.9724,-2.0134,-2.0748,0.0,0.0,-2.2458,-2.3207,-2.302,-2.1086,-2.146,-2.1339,-1.9715,-1.9702,-1.961,-1.9431,-1.9242,-1.9242,-1.8982,-1.872,-1.8549,-1.8498,-1.8633,-1.8735,-1.8957,-1.9027,-1.8935,-1.9027,-2.0262,-2.1346,-2.1346,-2.2525,-2.3169,-2.1192,-2.0841,-2.1257,-2.2375,-2.1672,-2.1118,-1.9341,-2.0505,-2.0668,-1.9515,-1.7498,-1.7499,-1.7346,-1.7082,-1.7082,-1.7113,-1.7145,-1.7891,-1.888,-2.0042,-2.0514,-2.0975,-2.1306,-2.147,-2.1563,-2.1577,-2.171,-2.1777,-2.179,-2.1924,-2.2098,-2.2285,-2.1951,-2.1899,-2.2164,-2.1819,-2.1779,-2.2099,-2.1729,-2.136,-2.0948,-2.0948,-2.1011,-2.115,-2.1009,-2.0869,-2.0735,-2.0665,-2.0665,-2.0665,-2.0665,-2.0665,-2.0665,-2.0605,-2.0553,-2.0291,-2.0086,-1.9796,-1.9386,-1.9257,0.0,0.0,0.0,0.0,0.0,0.0,0.0,0.0,0.0,-1.7414,-1.7633,0.0,-1.9013,0.0,-1.9879,-1.9866,-1.9219,-1.9581,0.0,0.0,-2.0177,-2.0302,-2.0615,-2.073,-2.1046,-2.1617,-2.1924,-2.2258,-2.2699,-2.3153,-2.324,-2.2745,-2.3014,-2.319,-2.2683,-2.2459,-2.2357,-2.221,-2.1963,-2.152,-2.0426,-1.9379,-1.9222,-2.0298,-2.0592,-2.1162,-2.2325,-2.255,-2.2537,-2.255,-2.2814,-2.3151,-2.308,-2.3585,-2.3656,-2.3156,-2.3046,-2.3117,-2.3483,-2.3258,-2.3117,-2.1078,-2.2074,-2.2345,-2.1672,-2.0509,-1.997,-1.9366,-1.8753,-1.882,-1.8485,-1.7937,-1.8549,-1.9465,-2.0592,-2.0746,-2.1215,-2.175,-2.1911,-2.1991,-2.1991,-2.2111,-2.2178,-2.2178,-2.2311,-2.2458,-2.2605,-2.2592,-2.2672,-2.2819,-2.2792,-2.2884,-2.2981,-2.2994,-2.2832,-2.248,-2.212,-2.2033,-2.216,-2.1765,-2.1438,-2.1098,-2.1028,-2.1088,-2.1197,-2.1159,-2.1088,-2.1197,-2.11,-2.0967,-2.0822,-2.069,-2.0505,-2.0282,-2.005,-1.9858,0.0,0.0,0.0,0.0,0.0,0.0,0.0,0.0,0.0,0.0,0.0,-1.9777,-2.0297,-2.05,-2.0487,-2.0321,-2.0474,-2.0692,-2.1041,-2.1054,-2.1118,-2.1309,-2.1309,-2.1483,-2.1937,-2.2218,-2.2498,-2.2832,-2.326,-2.3474,-2.3354,-2.3474,-2.3567,-2.3554,-2.342,-2.3287,-2.314,-2.3086,-2.2918,-2.2103,-2.1466,-2.128,-2.2086,-2.2426,-2.2814,-2.3625,-2.3781,-2.3781,-2.3781,-2.3875,-2.3968,-2.3968,-2.4075,-2.4182,-2.4302,-2.4249,-2.4075,-2.3834,-2.3781,-2.3781,-2.2065,-2.2675,-2.2747,-2.3223,-2.3688,-2.2659,-2.1538,-2.0374,-2.0337,-1.9709,-1.8631,-1.8564,-1.9261,-2.0374,-2.0374,-2.1057,-2.2218,-2.2218,-2.2218,-2.2231,-2.2472,-2.2592,-2.2605,-2.2846,-2.3048,-2.2993,-2.3247,-2.338,-2.3394,-2.3647,-2.3794,-2.3821,-2.3821,-2.3861,-2.3928,-2.319,-2.2896,-2.31,-2.2472,-2.1929,-2.1546,-2.1546,-2.1655,-2.1934,-2.1703,-2.1691,-2.1934,-2.1679,-2.1558,-2.1606,-2.1351,-2.1294,-2.1339,-2.0891,-2.0626,0.0,-2.0451,0.0,0.0,0.0,0.0,0.0,0.0,0.0,0.0,-2.0106,-2.0438,-2.0733,-2.0758,-2.0979,-2.1516,-2.1293,-2.1279,-2.1603,-2.1668,-2.1681,-2.1668,-2.1708,-2.1764,-2.2017,-2.2525,-2.2859,-2.2886,-2.341,-2.3541,-2.33,-2.3313,-2.3354,-2.334,-2.3327,-2.3233,-2.2953,-2.318,-2.339,-2.359,-2.371,-2.3678,-2.375,-2.3816,-2.3901,-2.3981,-2.3981,-2.3968,-2.4048,-2.4262,-2.4396,-2.4369,-2.4596,-2.481,-2.497,-2.4823,-2.4529,-2.4128,-2.3968,-2.3875,-2.3012,-2.2955,-2.3608,-2.3838,-2.3754,-2.3527,-2.3293,-2.3056,-2.2749,-2.2506,-2.2298,-2.2298,-2.2566,-2.3069,-2.3069,-2.3223,-2.3434,-2.3434,-2.3434,-2.3434,-2.3487,-2.3514,-2.3514,-2.3567,-2.3594,-2.3607,-2.3661,-2.3688,-2.3688,-2.3741,-2.3888,-2.4115,-2.4115,-2.4369,-2.4783,0.0,0.0,0.0,-2.255,-2.2157,-2.2013,-2.1966,-2.1991,-2.21,-2.2053,0.0,-2.2422,-2.1981,-2.1931,-2.2346,-2.212,0.0,-2.2033,0.0,0.0,0.0,0.0,0.0,-2.0782,0.0,0.0,0.0,-2.1727,-2.1358,-2.0289,-2.1056,-2.174,-2.2018,-2.2058,-2.1978,-2.1938,-2.1872,-2.1845,-2.1897,-2.1897,-2.1911,-2.1911,-2.2111,-2.2285,-2.2338,-2.2645,-2.2859,-2.2873,-2.3048,-2.3033,-2.3006,-2.3166,-2.3313,-2.334,-2.334,-2.3313,-2.3273,-2.35,-2.3701,-2.3768,-2.3995,-2.4155,-2.4142,-2.4329,-2.4543,-2.4743,-2.481,-2.4917,-2.5077,-2.5224,-2.5237,-2.5237,-2.5317,-2.5251,-2.5104,-2.5024,-2.497,-2.485,-2.4636,-2.4462,-2.3288,-2.3529,-2.397,-2.411,0.0,-2.4195,-2.4195,-2.4168,-2.3741,-2.3554,-2.3554,-2.3541,-2.3634,-2.3781,-2.3781,-2.3781,-2.3781,-2.3781,-2.3781,-2.3781,-2.3781,-2.3781,-2.3781,-2.3781,-2.3781,-2.3781,-2.3915,-2.3981,-2.3995,-2.4128,-2.4275,-2.4409,-2.4422,-2.4569,-2.4836,-2.4422,-2.3845,-2.3197,-2.2898,-2.2601,-2.2384,-2.2312,-2.2388,-2.2501,-2.2477,0.0,0.0,0.0,0.0,0.0,0.0,0.0,0.0,-2.2473,-2.2349,-2.2128,-2.217,-2.1971,-2.171,-2.2003,-2.2217,-2.2149,-2.2417,-2.2258,-2.1331,-2.2018,-2.2418,-2.2418,-2.2552,-2.2579,-2.2432,-2.2285,-2.2258,-2.2392,-2.2418,-2.2418,-2.2432,-2.2539,-2.2632,-2.2645,-2.2766,-2.2859,-2.2859,-2.3006,-2.3086,-2.31,-2.3354,-2.3554,-2.3554,-2.3541,-2.3581,-2.3728,-2.3875,-2.4088,-2.4369,-2.4516,-2.4703,-2.4836,-2.497,-2.5117,-2.5264,-2.5291,-2.5344,-2.5491,-2.5518,-2.5478,-2.5331,-2.5304,-2.5251,-2.5104,-2.497,-2.493,-2.5024,-2.485,-2.4636,-2.3302,-2.3896,-2.3957,-2.4193,-2.4636,-2.4636,-2.4636,-2.4596,-2.4075,0.0,0.0,-2.3848,-2.3875,-2.3915,-2.3928,-2.3928,-2.3928,-2.3928,-2.3928,-2.3928,-2.3928,-2.3928,-2.3928,-2.3928,-2.3915,-2.3941,-2.4168,-2.4275,-2.4289,-2.4516,-2.4636,-2.4636,-2.4636,-2.4536,-2.4543,-2.4329,-2.3917,-2.3353,-2.3268,-2.308,-2.276,-2.2722,-2.2798,-2.3028,-2.2832,-2.2819,-2.316,-2.2852,-2.2724,-2.2826,-2.2788,-2.2731,-2.278,-2.2837,-2.2832,-2.2886,-2.2859,-2.2752,-2.2525,-2.2726,-2.2752,-2.2512,-2.2726,-2.2752,-2.2512,-2.2726,-2.2766,-2.2512,-2.2726,-2.2859,-2.2859,-2.2645,-2.2592,-2.2846,-2.2859,-2.2859,-2.2859,-2.2859,-2.2873,-2.2926,-2.2953,-2.2979,-2.3046,-2.3247,-2.3407,-2.3447,-2.3661,-2.3888,-2.3901,-2.3888,-2.3941,-2.4195,-2.4329,-2.4543,-2.493,-2.5104,-2.5251,-2.5398,-2.5478,-2.5531,-2.5571,-2.5585,-2.5611,-2.5705,-2.5665,-2.5598,-2.5384,-2.5398,-2.5291,-2.5251,-2.505,-2.4917,-2.5077,-2.497,-2.4783,-2.3154,-2.3525,-2.3809,-2.4267,-2.4636,-2.4636,-2.4636,-2.4536,-2.4289,-2.4142,-2.4142,-2.4142,-2.4289,-2.4516,-2.4516,-2.4516,-2.4516,-2.4516,-2.4516,-2.4516,-2.4516,-2.4516,-2.4516,-2.4516,-2.4516,-2.4516,-2.4556,-2.4569,-2.4583,-2.4609,-2.4636,-2.4636,-2.4636,-2.4442,-2.4289,-2.4222,-2.4062,-2.371,-2.3411,-2.3242,-2.3476,-2.3255,-2.3138,-2.3164,-2.3187,-2.3386,-2.3665,-2.316,-2.3094,-2.3585,-2.3386,-2.3227,-2.3187,-2.32,-2.3124,-2.2886,-2.2859,-2.2846,-2.2806,-2.2832,-2.2846,-2.2806,-2.2901,-2.2846,-2.2806,-2.2832,-2.2914,-2.2806,-2.2914,-2.2859,-2.2859,-2.2832,-2.2901,-2.2941,-2.2873,-2.2873,-2.2899,-2.2899,-2.2993,-2.3233,-2.326,-2.3367,-2.3554,-2.3661,-2.3701,-2.3754,-2.3995,-2.4235,-2.4422,-2.4302,-2.4275,-2.4529,-2.4796,-2.497,-2.5144,-2.5304,-2.5478,-2.5504,-2.5571,-2.5692,-2.5905,-2.5932,-2.5999,-2.6199,-2.6199,-2.6186,-2.6132,-2.6199,-2.6026,-2.5812,-2.5678,-2.5625,-2.5491,-2.5384,-2.5211,-2.3228,-2.3748,-2.3896,-2.4267,-2.4636,-2.4636,-2.4636,-2.4636,-2.4663,-2.4676,-2.4703,-2.485,-2.4903,-2.4877,-2.4877,-2.4783,-2.4636,-2.4636,-2.4636,-2.4636,-2.4636,-2.4636,-2.4636,-2.4636,-2.4636,-2.4636,-2.4636,-2.4636,-2.4636,-2.4636,-2.4636,-2.4636,-2.4636,-2.4569,-2.4449,-2.4436,-2.4289,-2.4008,-2.3545,-2.3311,-2.343,-2.3153,-2.3064,-2.3064,-2.307,-2.314,-2.3343,-2.3166,-2.3247,-2.3527,-2.3554,-2.3567,-2.3567,-2.3567,-2.35,-2.3367,-2.3423,-2.3354,-2.3354,-2.35,-2.3594,-2.3594,-2.3741,-2.3754,-2.3594,-2.33,-2.3046,-2.2954,-2.3006,-2.3113,-2.3113,-2.3113,-2.318,-2.334,-2.3423,-2.3354,-2.3423,-2.3423,-2.342,-2.3541,-2.3567,-2.3621,-2.3754,-2.3915,-2.4008,-2.4035,-2.4369,-2.477,-2.5037,-2.485,-2.4716,-2.4863,-2.4997,-2.5224,-2.5478,-2.5651,-2.5865,-2.6159,-2.6226,-2.6279,-2.6413,-2.6426,-2.6413,-2.6386,-2.64,-2.6319,-2.6213,-2.6146,-2.6079,-2.5999,-2.5812,-2.5705,-2.5705,-2.5638,-2.5424,-2.3302,-2.3883,-2.3957,-2.4267,-2.4562,-2.4636,-2.4636,-2.4663,-2.4943,-2.5077,-2.5117,-2.5317,-2.5251,-2.4997,-2.4983,-2.485,-2.4649,-2.4636,-2.4636,-2.4636,-2.4636,-2.4636,-2.4636,-2.4636,-2.4636,-2.4636,-2.4636,-2.4636,-2.4636,-2.4636,-2.4636,-2.4636,-2.4636,-2.4636,-2.4636,-2.4636,-2.4516,-2.4289,-2.3794,-2.3487,-2.342,-2.3126,-2.2993,-2.306,-2.3073,-2.3129,-2.3073,-2.33,-2.3434,-2.3434,-2.3647,-2.3781,-2.3781,-2.3781,-2.3781,-2.3781,-2.3781,-2.3781,-2.3781,-2.3981,-2.4115,-2.4115,-2.4315,-2.4342,-2.4102,-2.3701,-2.334,-2.314,-2.33,-2.342,-2.342,-2.3434,-2.3527,-2.3741,-2.3781,-2.3741,-2.3768,-2.3781,-2.3808,-2.3848,-2.3875,-2.3915,-2.4075,-2.4262,-2.4409,-2.4489,-2.481,-2.5144,-2.5264,-2.5104,-2.5024,-2.517,-2.5224,-2.5491,-2.5972,-2.6278,-2.644,-2.6881,-2.6827,-2.676,-2.676,-2.676,-2.6653,-2.644,-2.64,-2.6373,-2.6199,-2.6186,-2.6239,-2.6293,-2.6213,-2.6066,-2.6253,-2.6159,-2.5785,-2.3079,-2.3438,-2.3809,-2.4267,-2.4562,-2.4636,-2.4636,-2.4676,-2.4957,-2.5077,-2.5064,-2.5117,-2.497,-2.4703,-2.469,-2.4676,-2.4636,-2.4636,-2.4636,-2.4636,-2.4636,-2.4636,-2.4636,-2.4636,-2.4636,-2.4636,-2.4636,-2.4636,-2.4636,-2.4636,-2.4636,-2.4636,-2.4636,-2.4636,-2.4636,-2.4636,-2.4623,-2.4583,-2.4289,-2.3995,-2.3728,-2.3434,-2.342,-2.3688,-2.3688,-2.3688,-2.3647,-2.3714,-2.3728,-2.3728,-2.3768,-2.3781,-2.3781,-2.3781,-2.3781,-2.3794,-2.3781,-2.3781,-2.3781,-2.3866,-2.3861,-2.3808,-2.3915,-2.3941,-2.3888,-2.3808,-2.3728,-2.3714,-2.3741,-2.3714,-2.3728,-2.3728,-2.3754,-2.3834,-2.3848,-2.3781,-2.3834,-2.3781,-2.3875,-2.4142,-2.4235,-2.4356,-2.4796,-2.4917,-2.4957,-2.4957,-2.4997,-2.5064,-2.4983,-2.4877,-2.501,-2.5398,-2.5692,-2.5959,-2.6306,-2.6814,-2.6987,-2.7134,-2.6987,-2.6894,-2.6841,-2.668,-2.6426,-2.66,-2.6466,-2.652,-2.6667,-2.6747,-2.6814,-2.6961,-2.6987,-2.7068,-2.7134,-2.7028,-2.6653,-2.3079,-2.3438,-2.3809,-2.4193,-2.4562,-2.4636,-2.4636,-2.4663,-2.4957,-2.4983,-2.485,-2.4997,-2.501,-2.4903,-2.4903,-2.481,-2.4562,-2.4636,-2.4636,-2.4636,-2.4636,-2.4636,-2.4636,-2.4636,-2.4636,-2.4636,-2.4636,-2.4636,-2.4636,-2.4636,-2.4636,-2.4663,-2.4796,-2.481,-2.4676,-2.481,-2.473,-2.4382,-2.5177,-2.5052,-2.4152,-2.3741,-2.3647,-2.3754,-2.3781,-2.3781,-2.3794,-2.3928,-2.4022,-2.4035,-2.4182,-2.4275,-2.4289,-2.4275,-2.4289,-2.4289,-2.4275,-2.4275,-2.4289,-2.4436,-2.4543,-2.4543,-2.4703,-2.4796,-2.4796,-2.4796,-2.4796,-2.473,-2.4182,-2.3834,-2.4008,-2.4022,-2.4088,-2.4262,-2.4436,-2.4529,-2.4543,-2.469,-2.485,-2.497,-2.497,-2.5037,-2.5237,-2.5184,-2.517,-2.5251,-2.5211,-2.5144,-2.5317,-2.5277,-2.5411,-2.5879,-2.6146,-2.6239,-2.6413,-2.672,-2.6974,-2.7014,-2.7054,-2.7081,-2.7054,-2.7014,-2.6907,-2.6894,-2.6867,-2.6894,-2.7054,-2.7094,-2.7161,-2.7415,-2.7509,-2.7482,-2.739,-2.735,-2.6987,-2.3154,-2.3438,-2.3957,-2.4341,-2.4636,-2.4636,-2.4636,-2.4663,-2.4863,-2.4836,-2.4663,-2.4877,-2.4957,-2.4957,-2.4957,-2.4836,-2.4649,-2.4636,-2.4636,-2.4636,-2.4636,-2.4636,-2.4636,-2.4636,-2.4636,-2.4636,-2.4636,-2.4636,-2.4649,-2.473,-2.4756,-2.4796,-2.4983,-2.497,-2.4871,-2.5276,-2.5409,-2.5157,-2.643,-2.6717,-2.571,-2.5383,-2.4842,-2.4152,-2.4008,-2.4008,-2.4008,-2.4209,-2.4534,-2.497,-2.5103,-2.546,-2.5985,-2.6059,-2.588,-2.5593,-2.5533,-2.531,-2.4877,-2.5077,-2.5197,-2.5211,-2.5398,-2.5478,-2.5411,-2.5398,-2.5358,-2.517,-2.4502,-2.4168,-2.4502,-2.4569,-2.4663,-2.4863,-2.509,-2.5197,-2.5197,-2.5398,-2.5478,-2.5518,-2.5424,-2.5518,-2.5504,-2.5411,-2.5411,-2.5451,-2.5411,-2.5384,-2.5718,-2.5638,-2.5678,-2.6172,-2.6253,-2.6346,-2.648,-2.68,-2.6921,-2.7081,-2.7281,-2.7375,-2.7388,-2.7375,-2.7295,-2.7161,-2.7255,-2.7321,-2.7375,-2.7402,-2.7468,-2.7722,-2.7843,-2.7802,-2.7642,-2.7618,-2.7604,-2.3364,-2.3525,-2.4267,-2.4562,-2.4636,-2.4636,-2.4636,-2.4562,-2.4589,-2.4649,-2.4562,-2.4663,-2.4663,-2.4676,-2.469,-2.4649,-2.4636,-2.4636,-2.4636,-2.4636,-2.4636,-2.4636,-2.4636,-2.4636,-2.4636,-2.4636,-2.4636,-2.4649,-2.4676,-2.493,-2.5064,-2.5139,-2.5241,-2.5152,-2.5419,-2.6396,-2.6823,-2.6896,-2.8326,-2.8972,-2.89,-2.8884,-2.7518,-2.5171,-2.4656,-2.479,-2.4743,-2.4609,-2.5272,-2.6707,-2.6736,-2.7509,-2.9226,-2.9404,-2.8869,-2.7969,-2.7803,-2.714,-2.584,-2.5715,-2.5666,-2.5541,-2.5707,-2.5411,-2.5211,-2.5184,-2.5077,-2.4743,-2.4756,-2.489,-2.5317,-2.5251,-2.5277,-2.5331,-2.5424,-2.5451,-2.5464,-2.5541,-2.5504,-2.5621,-2.5661,-2.5688,-2.5648,-2.5758,-2.5795,-2.5728,-2.5809,-2.5903,-2.5715,-2.5558,-2.5718,-2.5959,-2.6106,-2.6186,-2.6694,-2.6987,-2.7281,-2.7415,-2.7442,-2.7642,-2.7669,-2.7655,-2.7509,-2.7415,-2.7415,-2.7495,-2.7629,-2.7736,-2.7816,-2.8003,-2.823,-2.8203,-2.8006,-2.8127,-2.81,-2.3674,-2.4193,-2.4488,-2.4636,-2.4636,-2.4636,-2.4636,-2.4636,-2.4636,-2.4636,-2.4636,-2.4636,-2.4636,-2.4636,-2.4636,-2.4636,-2.4636,-2.4636,-2.4636,-2.4636,-2.4636,-2.4636,-2.4636,-2.4636,-2.4636,-2.4636,-2.4636,-2.4743,-2.4943,-2.5211,-2.578,-2.6542,-2.6744,-2.7093,-2.7774,-2.8358,-2.8588,-2.8547,-3.0128,-3.0562,-2.9857,-3.0792,-3.0397,-2.8473,-2.8071,-2.8071,-2.8355,-2.7331,-2.7392,-2.8711,-2.7834,-2.7848,-2.9208,-2.9409,-2.9224,-2.8842,-2.8784,-2.8508,-2.8011,-2.8058,-2.7732,-2.688,-2.69,-2.6392,-2.5612,-2.5358,-2.5304,-2.5277,-2.5571,-2.5865,-2.5825,-2.5424,-2.4957,-2.4983,-2.537,-2.5696,-2.5731,-2.6006,-2.6336,-2.6529,-2.6566,-2.6547,-2.6662,-2.6635,-2.6462,-2.657,-2.6578,-2.6424,-2.6262,-2.6185,-2.6283,-2.6452,-2.652,-2.6653,-2.7014,-2.7175,-2.7403,-2.7415,-2.7509,-2.7642,-2.7709,-2.7762,-2.7669,-2.7776,-2.7749,-2.7749,-2.7923,-2.8083,-2.8234,-2.8083,-2.8337,-2.843,-2.8248,-2.8234,-2.8234,-2.3896,-2.4562,-2.4636,-2.4636,-2.4636,-2.4636,-2.4636,-2.4636,-2.4636,-2.4636,-2.4636,-2.4636,-2.4636,-2.4636,-2.4636,-2.4636,-2.4636,-2.4636,-2.4636,-2.4636,-2.4636,-2.4636,-2.4636,-2.4636,-2.4616,-2.4783,-2.4877,-2.5248,-2.604,-2.633,-2.7136,-2.8282,-2.8537,-2.8875,-2.9432,-2.9953,-3.0193,-3.0502,-3.1936,-3.2322,-3.1755,-3.2736,-3.3089,-3.2171,-3.1822,-3.1227,-3.0489,-2.9374,-2.9356,-3.0405,-2.9697,-2.9796,-3.1048,-3.1421,-3.1198,-3.0762,-3.0705,-3.0397,-2.9901,-2.9591,-2.9001,-2.7981,-2.7573,-2.6975,-2.5903,-2.5879,-2.597,-2.6087,-2.6354,-2.6637,-2.6646,-2.6139,-2.558,-2.5527,-2.5895,-2.6248,-2.6262,-2.6594,-2.6955,-2.7148,-2.7179,-2.7327,-2.7444,-2.7208,-2.7148,-2.7325,-2.7066,-2.6835,-2.6754,-2.667,-2.6648,-2.6734,-2.6881,-2.7054,-2.7308,-2.7442,-2.7482,-2.7562,-2.7709,-2.7789,-2.7829,-2.7869,-2.7936,-2.8083,-2.8234,-2.8234,-2.8315,-2.8489,-2.8449,-2.8328,-2.8404,-2.8604,-2.8364,-2.8234,-2.8234,-2.3896,-2.4562,-2.4636,-2.471,-2.4636,-2.4918,-2.477,-2.4844,-2.4784,-2.4844,-2.4918,-2.4636,-2.4636,-2.4636,-2.4636,-2.4636,-2.4562,-2.4663,-2.4663,-2.4562,-2.4636,-2.4649,-2.4676,-2.469,-2.4836,-2.5166,-2.5447,-2.6392,-2.7769,-2.8169,-2.8988,-3.0092,-3.0219,-3.0249,-2.9856,-3.1124,-3.1748,-3.2362,-3.3607,-3.4447,-3.4918,-3.4884,-3.5012,-3.5285,-3.5212,-3.3842,-3.085,-3.0553,-3.1236,-3.2509,-3.2492,-3.3559,-3.4738,-3.532,-3.5202,-3.3776,-3.3672,-3.2953,-3.1522,-3.0237,-2.9793,-2.9224,-2.7931,-2.756,-2.7273,-2.7021,-2.7089,-2.7291,-2.7203,-2.7258,-2.7574,-2.7611,-2.7457,-2.7311,-2.7136,-2.7216,-2.7257,-2.7337,-2.7391,-2.7432,-2.7579,-2.7483,-2.7575,-2.7643,-2.7684,-2.7776,-2.7541,-2.7319,-2.7337,-2.7185,-2.6948,-2.6907,-2.7121,-2.7375,-2.7562,-2.7709,-2.7722,-2.7762,-2.7936,-2.814,-2.807,-2.8096,-2.8096,-2.8288,-2.8355,-2.8368,-2.8484,-2.8631,-2.8684,-2.8631,-2.8764,-2.8724,-2.8484,-2.8257,-2.8248,-2.3883,-2.471,-2.5786,-2.558,-2.5005,-2.6852,-2.7215,-2.6225,-2.6152,-2.6225,-2.6005,-2.5065,-2.4636,-2.4636,-2.4636,-2.4636,-2.4649,-2.4823,-2.4836,-2.4676,-2.4649,-2.477,-2.4917,-2.4943,-2.509,-2.5612,-2.6878,-2.7693,-2.8379,-2.9443,-3.0616,-3.1572,-3.1582,-3.2049,-3.2806,-3.334,-3.3696,-3.4144,-3.4812,-3.532,-3.5467,-3.5705,-3.5889,-3.5999,-3.6017,-3.5409,-3.4394,-3.3334,-3.3438,-3.4628,-3.3639,-3.3734,-3.4921,-3.5339,-3.5103,-3.472,-3.4921,-3.4921,-3.4393,-3.3954,-3.3236,-3.2514,-3.2093,-3.1545,-3.0526,-2.9604,-2.9193,-2.9164,-2.8619,-2.8197,-2.8333,-2.8765,-2.8546,-2.7693,-2.7862,-2.796,-2.8043,-2.8434,-2.8702,-2.873,-2.8565,-2.8523,-2.8639,-2.8504,-2.8368,-2.8748,-2.8683,-2.8488,-2.8476,-2.8092,-2.7961,-2.7976,-2.7892,-2.7792,-2.7963,-2.815,-2.8203,-2.8123,-2.8177,-2.8243,-2.827,-2.8217,-2.8301,-2.8368,-2.835,-2.8484,-2.8698,-2.8885,-2.8978,-2.8871,-2.8845,-2.8698,-2.8511,-2.8377,-2.827,-2.4401,-2.4844,-2.6867,-2.694,-2.6027,-2.8397,-2.8982,-2.8289,-2.8172,-2.8231,-2.7952,-2.7217,-2.6774,-2.6774,-2.6788,-2.6418,-2.594,-2.6121,-2.6093,-2.5717,-2.5106,-2.5064,-2.5402,-2.6102,-2.6295,-2.6662,-2.8289,-2.9215,-2.917,-3.0585,-3.1762,-3.2304,-3.2852,-3.3465,-3.4369,-3.4568,-3.4844,-3.5229,-3.5631,-3.5907,-3.6073,-3.646,-3.6664,-3.6664,-3.6664,-3.6664,-3.659,-3.5662,-3.533,-3.565,-3.4931,-3.4953,-3.5631,-3.5867,-3.5903,-3.5903,-3.612,-3.6284,-3.6246,-3.5649,-3.5339,-3.4426,-3.4027,-3.3187,-3.1831,-3.0779,-3.0434,-2.9833,-2.9384,-2.9066,-2.93,-2.9656,-2.957,-2.893,-2.8807,-2.8736,-2.8844,-2.9148,-2.9358,-2.9334,-2.932,-2.9439,-2.9462,-2.9501,-2.929,-2.9705,-2.9472,-2.9348,-2.9191,-2.89,-2.8743,-2.8662,-2.8506,-2.8443,-2.8529,-2.8577,-2.8671,-2.8551,-2.8417,-2.8417,-2.8417,-2.8243,-2.8261,-2.8323,-2.8417,-2.8591,-2.8791,-2.9232,-2.9419,-2.9205,-2.8938,-2.8858,-2.8724,-2.8511,-2.8377,-2.5478,-2.5286,-2.8068,-2.8687,-2.788,-2.9492,-3.0397,-3.0409,-3.0441,-3.0409,-3.0425,-3.0008,-3.0039,-3.0219,-2.977,-2.9118,-2.8327,-2.8131,-2.8146,-2.7754,-2.6951,-2.6322,-2.6537,-2.7602,-2.7936,-2.811,-2.967,-3.0454,-3.0371,-3.195,-3.2574,-3.2763,-3.4001,-3.4772,-3.4678,-3.4899,-3.5265,-3.5741,-3.6053,-3.6385,-3.6756,-3.7089,-3.7329,-3.7347,-3.7255,-3.7255,-3.7255,-3.7107,-3.6812,-3.6423,-3.646,-3.6571,-3.6849,-3.7181,-3.7253,-3.7142,-3.7383,-3.7326,-3.7051,-3.6331,-3.5517,-3.5368,-3.4528,-3.2679,-3.2291,-3.2314,-3.1856,-3.0991,-3.0432,-3.0214,-3.0586,-3.0642,-3.0661,-3.0636,-2.9921,-2.9618,-2.9607,-2.9648,-2.9729,-2.9772,-2.9969,-3.0191,-3.0116,-3.0185,-3.0232,-3.0232,-2.9827,-2.9569,-2.952,-2.9502,-2.9174,-2.9076,-2.907,-2.8771,-2.8604,-2.8631,-2.8698,-2.8631,-2.8511,-2.847,-2.8417,-2.8243,-2.8315,-2.8377,-2.8497,-2.8671,-2.8951,-2.9379,-2.9513,-2.9272,-2.9125,-2.9085,-2.8885,-2.8591,-2.8404,-2.7707,-2.8213,-3.0075,-3.0216,-2.9654,-3.2001,-3.2728,-3.2166,-3.2143,-3.2177,-3.1906,-3.0859,-3.0595,-3.0415,-3.0505,-3.0118,-2.99,-3.0012,-3.0122,-3.0093,-2.9946,-2.9656,-2.926,-2.8949,-2.8743,-2.8887,-3.0436,-3.1125,-3.1225,-3.3189,-3.4288,-3.4667,-3.4521,-3.4862,-3.5229,-3.5394,-3.5815,-3.6368,-3.6571,-3.6829,-3.7217,-3.7329,-3.7402,-3.7402,-3.7402,-3.7421,-3.7421,-3.7402,-3.7329,-3.7107,-3.7181,-3.7274,-3.7274,-3.7459,-3.7571,-3.7571,-3.7754,-3.7881,-3.7808,-3.7715,-3.7604,-3.7623,-3.7259,-3.7483,-3.7438,-3.6534,-3.6149,-3.56,-3.4131,-3.2371,-3.232,-3.1505,-3.09,-3.0817,-3.0513,-3.043,-3.0401,-3.0484,-3.0484,-3.047,-3.0393,-3.0418,-3.0345,-3.0282,-3.0299,-3.0393,-3.0442,-3.0364,-3.0329,-3.021,-2.9902,-2.9589,-2.9484,-2.9001,-2.8657,-2.8671,-2.8671,-2.8631,-2.8537,-2.843,-2.8337,-2.8261,-2.8297,-2.8484,-2.8524,-2.8657,-2.9058,-2.9472,-2.9379,-2.9285,-2.9219,-2.9112,-2.8764,-2.847,-2.8377,-2.9075,-2.9218,-3.1508,-3.1887,-3.1337,-3.3625,-3.4469,-3.4244,-3.4168,-3.4168,-3.393,-3.3266,-3.2878,-3.2804,-3.2878,-3.2433,-3.1927,-3.205,-3.2133,-3.2241,-3.2953,-3.2086,-3.0712,-3.0238,-3.0546,-2.9962,-3.2005,-3.2492,-3.2384,-3.4031,-3.474,-3.4667,-3.4992,-3.5462,-3.605,-3.6329,-3.6551,-3.6996,-3.7181,-3.7421,-3.7642,-3.7843,-3.7916,-3.7916,-3.7936,-3.7974,-3.8147,-3.8185,-3.7961,-3.7644,-3.7701,-3.789,-3.7909,-3.8303,-3.8454,-3.8473,-3.8696,-3.879,-3.8844,-3.9067,-3.9141,-3.916,-3.9394,-3.8726,-3.7968,-3.7517,-3.76,-3.4555,-3.3662,-3.2946,-3.2109,-3.1309,-3.09,-3.0832,-3.0949,-3.0964,-3.0846,-3.0734,-3.0817,-3.0803,-3.0788,-3.0759,-3.0759,-3.0671,-3.0773,-3.0949,-3.1168,-3.1212,-3.1186,-3.0909,-3.0581,-3.0123,-2.9666,-2.9227,-2.8824,-2.8778,-2.8644,-2.8577,-2.8444,-2.835,-2.8283,-2.8234,-2.8315,-2.8377,-2.8511,-2.8698,-2.9032,-2.9312,-2.9339,-2.9259,-2.9219,-2.9165,-2.8911,-2.8657,-2.8524,-3.0004,-2.9449,-3.2456,-3.3393,-3.3099,-3.4342,-3.5303,-3.5943,-3.5961,-3.5979,-3.5979,-3.609,-3.5627,-3.6201,-3.5443,-3.5253,-3.4018,-3.3984,-3.4018,-3.4319,-3.4822,-3.3792,-3.0731,-3.2277,-3.2406,-3.1663,-3.4197,-3.3852,-3.3253,-3.4177,-3.4468,-3.4467,-3.5504,-3.6342,-3.6821,-3.7196,-3.7459,-3.7609,-3.7963,-3.8224,-3.8371,-3.8592,-3.874,-3.874,-3.872,-3.8856,-3.9125,-3.9184,-3.877,-3.7739,-3.836,-3.8682,-3.8834,-3.9537,-3.9749,-3.9729,-3.9671,-3.971,-3.9844,-3.9766,-3.9824,-3.9805,-3.9805,-3.8747,-3.7176,-3.7481,-3.6839,-3.3911,-3.2632,-3.2464,-3.1086,-3.0685,-3.0803,-3.0846,-3.1066,-3.1081,-3.092,-3.0876,-3.092,-3.0934,-3.1198,-3.1329,-3.1432,-3.1593,-3.1739,-3.1212,-3.1417,-3.1461,-3.1262,-3.0994,-3.061,-3.0153,-2.9769,-2.947,-2.9122,-2.8885,-2.8684,-2.8524,-2.8323,-2.8301,-2.8301,-2.8234,-2.8234,-2.8301,-2.835,-2.8537,-2.8818,-2.9018,-2.9179,-2.9339,-2.9366,-2.9392,-2.9339,-2.9085,-2.8911,-3.1965,-3.2403,-3.3121,-3.3671,-3.4106,-3.4737,-3.5302,-3.576,-3.6072,-3.6182,-3.6201,-3.6201,-3.6201,-3.6201,-3.6201,-3.5978,-3.5587,-3.5512,-3.5662,-3.5736,-3.5903,-3.5064,-3.307,-3.3676,-3.3473,-3.3238,-3.3706,-3.343,-3.301,-3.4439,-3.5504,-3.4984,-3.576,-3.6875,-3.7215,-3.7629,-3.8044,-3.8324,-3.8798,-3.9157,-3.9307,-3.9456,-3.9512,-3.9531,-3.9551,-3.9629,-3.9707,-3.9746,-3.9632,-3.9498,-3.9482,-3.9654,-3.9635,-3.9807,-3.998,-4.0,-3.9961,-3.9922,-3.9922,-3.998,-3.9902,-3.998,-4.0019,-3.9717,-3.9568,-3.9433,-3.9432,-3.8139,-3.6799,-3.3904,-3.1182,-3.0773,-3.0817,-3.0846,-3.092,-3.0949,-3.092,-3.1256,-3.1432,-3.152,-3.1563,-3.1681,-3.1681,-3.1695,-3.171,-3.152,-3.1534,-3.1607,-3.1308,-3.0909,-3.0425,-2.9942,-2.9531,-2.9135,-2.8906,-2.8631,-2.8511,-2.8404,-2.8341,-2.8315,-2.8301,-2.8217,-2.8243,-2.8301,-2.8261,-2.843,-2.8778,-2.8938,-2.9138,-2.9325,-2.9486,-2.9459,-2.9406,-2.9299,-2.9312,-3.2474,-3.2981,-3.3209,-3.3687,-3.4403,-3.466,-3.5064,-3.5577,-3.5834,-3.6036,-3.6182,-3.6201,-3.6201,-3.6201,-3.6201,-3.6201,-3.6201,-3.6201,-3.6201,-3.6126,-3.6201,-3.5736,-3.5214,-3.4672,-3.4371,-3.3297,-3.4597,-3.4296,-3.4001,-3.4588,-3.5463,-3.5345,-3.5944,-3.6479,-3.724,-3.8063,-3.8795,-3.9157,-3.9445,-3.9732,-3.9883,-3.9883,-3.9883,-3.9883,-3.9902,-3.9961,-4.0156,-4.0195,-4.0293,-4.043,-4.0488,-4.0391,-4.0273,-4.0371,-4.0469,-4.0488,-4.0508,-4.0488,-4.0508,-4.0488,-4.0508,-4.0469,-4.0488,-4.0048,-4.0125,-4.026,-3.9384,-3.8036,-3.6236,-3.462,-3.1301,-3.0817,-3.0817,-3.0861,-3.0964,-3.1037,-3.1081,-3.1242,-3.1344,-3.1373,-3.1417,-3.1505,-3.1578,-3.1724,-3.1754,-3.1622,-3.128,-3.1324,-3.0936,-3.0524,-3.0014,-2.952,-2.9097,-2.8703,-2.8507,-2.8323,-2.827,-2.8315,-2.8274,-2.8283,-2.839,-2.839,-2.839,-2.8377,-2.839,-2.8577,-2.8871,-2.8905,-2.9152,-2.9352,-2.9486,-2.9459,-2.9499,-2.9579,-2.9619,-3.2263,-3.2631,-3.3121,-3.3669,-3.4223,-3.4385,-3.4844,-3.5467,-3.5595,-3.587,-3.6146,-3.6201,-3.6201,-3.6182,-3.6109,-3.6109,-3.5999,-3.5981,-3.5889,-3.5889,-3.5889,-3.587,-3.5851,-3.5739,-3.4826,-3.2505,-3.4971,-3.5512,-3.4446,-3.4747,-3.516,-3.5345,-3.5809,-3.6253,-3.7053,-3.8479,-3.9273,-3.9336,-3.9833,-4.0215,-4.0195,-4.0176,-4.0195,-4.0195,-4.0215,-4.0351,-4.0566,-4.0644,-4.0762,-4.1133,-4.1172,-4.0976,-4.082,-4.0918,-4.1172,-4.1133,-4.1074,-4.1035,-4.1016,-4.1074,-4.1094,-4.1172,-4.1133,-4.0568,-3.9905,-4.0218,-3.9276,-3.7277,-3.5689,-3.4538,-3.1384,-3.0817,-3.0817,-3.0861,-3.1081,-3.1212,-3.1183,-3.0993,-3.0964,-3.1139,-3.1417,-3.1563,-3.1593,-3.1681,-3.1724,-3.1653,-3.1296,-3.0952,-3.0553,-3.0128,-2.9606,-2.9212,-2.8805,-2.8524,-2.8328,-2.827,-2.8261,-2.8297,-2.827,-2.843,-2.8591,-2.8644,-2.8671,-2.8671,-2.8724,-2.8885,-2.9018,-2.9165,-2.9325,-2.9472,-2.9579,-2.9646,-2.9753,-2.9887,-2.986,-3.2105,-3.2263,-3.2981,-3.3384,-3.3563,-3.4116,-3.466,-3.5137,-3.5449,-3.5834,-3.6164,-3.6201,-3.6201,-3.6127,-3.5834,-3.5559,-3.5394,-3.5357,-3.532,-3.532,-3.5339,-3.5594,-3.6108,-3.6237,-3.5372,-3.505,-3.5885,-3.5363,-3.3977,-3.4504,-3.4839,-3.4574,-3.5632,-3.647,-3.7141,-3.8766,-3.9204,-3.8759,-3.9855,-4.082,-4.0589,-4.0743,-4.0666,-4.0666,-4.0646,-4.0898,-4.0976,-4.1055,-4.1094,-4.1172,-4.1172,-4.1133,-4.1055,-4.1113,-4.1152,-4.1172,-4.1172,-4.1172,-4.1172,-4.1172,-4.1172,-4.1172,-4.1172,-4.1172,-4.0841,-4.086,-4.0118,-3.8901,-3.6477,-3.4376,-3.1233,-3.0817,-3.0817,-3.0846,-3.0876,-3.0949,-3.092,-3.0905,-3.1007,-3.1285,-3.152,-3.1607,-3.152,-3.1476,-3.1376,-3.1262,-3.0964,-3.0538,-3.0085,-2.9734,-2.9341,-2.8878,-2.8514,-2.8332,-2.8248,-2.8301,-2.8328,-2.8497,-2.8577,-2.8698,-2.8845,-2.8938,-2.8965,-2.9045,-2.9058,-2.9125,-2.9245,-2.9379,-2.9513,-2.9686,-2.978,-2.9847,-2.9887,-2.9913,-2.9913,-3.2175,-3.2474,-3.3051,-3.34,-3.3575,-3.3948,-3.433,-3.4733,-3.5137,-3.554,-3.587,-3.6091,-3.6072,-3.5907,-3.5742,-3.5412,-3.51,-3.5027,-3.5027,-3.5027,-3.5189,-3.5608,-3.616,-3.6415,-3.5852,-3.5404,-3.5662,-3.5121,-3.3129,-3.3977,-3.4365,-3.444,-3.5164,-3.564,-3.6338,-3.7973,-3.8149,-3.7765,-3.9516,-4.0685,-4.0118,-4.0588,-4.0763,-4.0197,-4.0763,-4.1172,-4.1172,-4.1172,-4.1172,-4.1172,-4.1172,-4.1172,-4.1172,-4.1172,-4.1172,-4.1172,-4.1172,-4.1172,-4.1172,-4.1172,-4.1172,-4.1172,-4.1172,-4.1172,-4.1172,-4.1094,-4.0431,-3.8249,-3.543,-3.269,-3.09,-3.0817,-3.0817,-3.0817,-3.0817,-3.0817,-3.0817,-3.0817,-3.1037,-3.13,-3.1227,-3.1198,-3.1198,-3.1084,-3.1015,-3.0887,-3.0576,-3.014,-2.9677,-2.9328,-2.8992,-2.871,-2.8399,-2.848,-2.8337,-2.839,-2.8484,-2.8724,-2.8871,-2.8991,-2.9125,-2.9232,-2.9392,-2.9513,-2.9499,-2.9392,-2.9539,-2.97,-2.9806,-2.9873,-2.9873,-2.9887,-2.99,-2.9913,-2.9913,-3.2263,-3.2631,-3.3121,-3.3469,-3.3678,-3.3817,-3.4037,-3.444,-3.4862,-3.5265,-3.5632,-3.5907,-3.5907,-3.5632,-3.5394,-3.5137,-3.4807,-3.4752,-3.4715,-3.4733,-3.5058,-3.5532,-3.6209,-3.6452,-3.6256,-3.5533,-3.5644,-3.4786,-3.3432,-3.3658,-3.3957,-3.429,-3.4274,-3.4649,-3.5748,-3.6938,-3.6614,-3.7329,-3.8822,-3.9786,-3.9295,-3.9786,-4.0099,-3.8803,-3.9943,-4.0763,-4.1172,-4.0607,-4.0841,-4.1016,-4.1172,-4.1172,-4.1172,-4.1172,-4.1172,-4.1172,-4.1172,-4.1172,-4.1172,-4.1172,-4.1172,-4.1172,-4.1172,-4.1172,-4.1016,-4.0529,-3.9393,-3.6155,-3.3576,-3.155,-3.0984,-3.0817,-3.0817,-3.0817,-3.0817,-3.0817,-3.0817,-3.0817,-3.0817,-3.092,-3.0817,-3.0792,-3.0811,-3.0894,-3.084,-3.042,-3.0195,-2.9775,-2.9328,-2.8908,-2.8669,-2.8511,-2.8422,-2.847,-2.8564,-2.8684,-2.8831,-2.9058,-2.9165,-2.9245,-2.9406,-2.9566,-2.97,-2.978,-2.9713,-2.9646,-2.9833,-2.9913,-2.99,-2.99,-2.9913,-2.9913,-2.9913,-2.9913,-2.9913,-3.2105,-3.2246,-3.2981,-3.3348,-3.34,-3.3678,-3.4037,-3.4422,-3.4844,-3.5247,-3.5614,-3.5669,-3.5687,-3.5412,-3.4825,-3.4367,-3.411,-3.4073,-3.4128,-3.429,-3.4652,-3.5358,-3.6213,-3.6607,-3.6529,-3.5961,-3.6015,-3.4971,-3.3919,-3.3768,-3.3898,-3.4256,-3.4693,-3.4974,-3.5163,-3.6057,-3.6104,-3.6316,-3.7914,-3.8724,-3.8548,-3.8724,-3.8724,-3.8645,-3.8961,-3.9707,-4.0607,-4.0118,-3.9943,-4.1094,-4.1172,-4.1172,-4.1172,-4.1172,-4.1172,-4.1172,-4.1172,-4.1172,-4.1172,-4.1172,-4.1172,-4.1172,-4.1172,-4.1172,-4.0919,-3.9786,-3.8329,-3.6316,-3.4066,-3.2293,-3.1067,-3.0817,-3.0817,-3.0817,-3.0817,-3.0817,-3.0817,-3.0817,-3.0817,-3.0817,-3.0817,-3.0582,-3.0389,-3.0527,-3.0582,-3.0165,-2.9747,-2.9411,-2.9117,-2.871,-2.8524,-2.8462,-2.8551,-2.8698,-2.8858,-2.8965,-2.9138,-2.9379,-2.9446,-2.9499,-2.9619,-2.9753,-2.9847,-2.99,-2.9833,-2.9847,-2.9967,-2.9993,-2.994,-3.0119,-3.0326,-3.0133,-2.9913,-2.9927,-2.9967,-3.2105,-3.2175,-3.2981,-3.3278,-3.3348,-3.3678,-3.4037,-3.444,-3.4844,-3.5247,-3.5559,-3.5614,-3.5394,-3.4899,-3.4312,-3.4,-3.3835,-3.3817,-3.4103,-3.4459,-3.4929,-3.5746,-3.6723,-3.7206,-3.7112,-3.6294,-3.6164,-3.5941,-3.4857,-3.4295,-3.4188,-3.4624,-3.4923,-3.476,-3.4725,-3.5507,-3.5251,-3.5268,-3.6075,-3.7037,-3.7117,-3.7117,-3.7117,-3.7197,-3.8073,-3.8961,-3.9531,-4.0275,-4.0275,-4.1172,-4.1172,-4.1172,-4.1172,-4.1172,-4.1172,-4.1172,-4.1172,-4.1172,-4.1172,-4.1172,-4.1172,-4.1172,-4.1172,-4.1172,-4.0841,-3.961,-3.7914,-3.6155,-3.4392,-3.269,-3.1233,-3.0817,-3.0817,-3.0817,-3.0817,-3.0817,-3.0817,-3.0817,-3.0817,-3.0817,-3.0734,-3.0499,-3.0346,-3.0499,-3.0415,-2.9998,-2.9593,-2.9342,-2.9017,-2.8703,-2.8601,-2.8537,-2.8751,-2.8965,-2.9138,-2.9299,-2.9432,-2.9619,-2.97,-2.9753,-2.9806,-2.9913,-2.9993,-3.002,-2.998,-3.002,-3.01,-3.0124,-3.0106,-3.0415,-3.0753,-3.0815,-3.0801,-3.0308,-3.0334,-3.2175,-3.2333,-3.2981,-3.3348,-3.3469,-3.3678,-3.4037,-3.444,-3.4862,-3.5247,-3.5504,-3.5485,-3.5009,-3.4348,-3.3982,-3.3853,-3.3817,-3.3886,-3.4334,-3.4944,-3.5576,-3.6327,-3.711,-3.7595,-3.7318,-3.6238,-3.6922,-3.6534,-3.5919,-3.5477,-3.5162,-3.5426,-3.5364,-3.5042,-3.4602,-3.4701,-3.4717,-3.4701,-3.4457,-3.4782,-3.5187,-3.5349,-3.5672,-3.6236,-3.7197,-3.8152,-3.8724,-3.961,-4.0353,-4.0431,-4.1016,-4.1172,-4.1172,-4.1172,-4.1172,-4.1172,-4.1172,-4.1172,-4.1172,-4.1172,-4.1172,-4.1172,-4.1172,-4.1172,-4.1016,-3.9629,-3.7914,-3.6155,-3.4392,-3.269,-3.1316,-3.0817,-3.0817,-3.0817,-3.0817,-3.0817,-3.0817,-3.0817,-3.0817,-3.0817,-3.0734,-3.0582,-3.0415,-3.0499,-3.0332,-2.983,-2.9509,-2.9201,-2.8944,-2.8708,-2.8824,-2.8871,-2.9018,-2.9259,-2.9459,-2.9619,-2.9766,-2.982,-2.99,-2.9927,-2.994,-3.0034,-3.0154,-3.014,-3.014,-3.0167,-3.0234,-3.0254,-3.0182,-3.0312,-3.0622,-3.1587,-3.1732,-3.1152,-3.0573,-3.2333,-3.2701,-3.3121,-3.3469,-3.3747,-3.3817,-3.4037,-3.4477,-3.4862,-3.5229,-3.5485,-3.5229,-3.4678,-3.4037,-3.3872,-3.3817,-3.3817,-3.4163,-3.4668,-3.5234,-3.5802,-3.6666,-3.7393,-3.772,-3.7547,-3.6849,-3.744,-3.7366,-3.6738,-3.6828,-3.6798,-3.6972,-3.6297,-3.5874,-3.5248,-3.4782,-3.4555,-3.4229,-3.3495,-3.3019,-3.3658,-3.4148,-3.4717,-3.5753,-3.6316,-3.6957,-3.8469,-3.9119,-3.9453,-3.955,-4.0529,-4.1172,-4.1172,-4.1172,-4.1172,-4.1172,-4.1172,-4.1172,-4.1172,-4.1172,-4.1172,-4.1172,-4.1172,-4.1172,-4.1094,-3.9688,-3.7914,-3.6477,-3.4944,-3.3019,-3.1715,-3.0817,-3.0817,-3.0817,-3.0817,-3.0817,-3.0817,-3.0817,-3.0817,-3.0817,-3.0665,-3.0415,-3.0153,-3.0167,-3.0126,-2.9719,-2.9521,-2.9223,-2.9059,-2.8918,-2.9085,-2.9259,-2.9366,-2.9553,-2.978,-2.9887,-2.986,-2.99,-2.998,-2.998,-2.998,-3.0114,-3.0368,-3.0381,-3.0408,-3.0381,-3.0392,-3.0191,-3.0057,-3.0016,-3.0326,-3.1091,-3.1637,-3.1193,-3.0768,-3.2841,-3.34,-3.3539,-3.3539,-3.3539,-3.3747,-3.4183,-3.4752,-3.4972,-3.51,-3.5247,-3.5064,-3.4587,-3.4,-3.3817,-3.3955,-3.42,-3.4599,-3.5247,-3.5996,-3.6699,-3.7408,-3.7991,-3.8166,-3.8136,-3.7901,-3.8569,-3.8817,-3.8265,-3.8216,-3.8823,-3.8725,-3.7576,-3.6606,-3.5874,-3.5187,-3.4457,-3.3495,-3.3658,-3.4066,-3.3347,-3.4555,-3.5349,-3.5914,-3.7277,-3.7755,-3.8724,-3.9707,-4.004,-4.0275,-4.0841,-4.1094,-4.1172,-4.1172,-4.1172,-4.1172,-4.1172,-4.1172,-4.1172,-4.1172,-4.1172,-4.1172,-4.1172,-4.1172,-4.1172,-4.0431,-3.9295,-3.7773,-3.5914,-3.4066,-3.269,-3.1467,-3.0817,-3.0817,-3.0817,-3.0817,-3.0734,-3.0734,-3.0665,-3.0582,-3.0415,-3.0165,-2.9929,-2.9677,-2.9649,-2.9549,-2.9432,-2.9254,-2.9085,-2.9098,-2.9352,-2.9513,-2.9606,-2.9673,-2.9887,-2.9913,-2.9913,-2.9993,-3.0074,-3.0127,-3.0181,-3.0434,-3.0635,-3.0662,-3.0635,-3.0555,-3.0408,-3.014,-3.0173,-3.0554,-3.0407,-3.0429,-3.0754,-3.113,-3.0804,-3.326,-3.3817,-3.3817,-3.3678,-3.3487,-3.3806,-3.4385,-3.4972,-3.5174,-3.5119,-3.5027,-3.4899,-3.4477,-3.3963,-3.3817,-3.4135,-3.4543,-3.5084,-3.5939,-3.6674,-3.7364,-3.7967,-3.8365,-3.8613,-3.8579,-3.8789,-3.9023,-3.9125,-3.9265,-3.9746,-3.9926,-3.9797,-3.9335,-3.8139,-3.7029,-3.5994,-3.4701,-3.3658,-3.4229,-3.5511,-3.4474,-3.5268,-3.6477,-3.6797,-3.7914,-3.8408,-3.904,-3.9943,-4.0431,-4.0509,-4.0685,-4.1172,-4.1172,-4.1172,-4.1172,-4.1172,-4.1172,-4.1172,-4.1172,-4.1172,-4.1172,-4.1172,-4.1172,-4.1172,-4.1172,-4.1094,-4.0021,-3.7675,-3.6396,-3.5106,-3.3183,-3.1399,-3.0817,-3.0817,-3.0817,-3.0817,-3.0749,-3.0665,-3.0499,-3.0332,-3.0095,-2.9887,-2.9774,-2.9487,-2.9439,-2.9435,-2.9471,-2.9346,-2.9367,-2.9379,-2.9579,-2.97,-2.9766,-2.9833,-2.9913,-2.9927,-2.9967,-3.0154,-3.0234,-3.0368,-3.0488,-3.0742,-3.0915,-3.0955,-3.0889,-3.0742,-3.0541,-3.0327,-3.0731,-3.1329,-3.0883,-3.0287,-3.0298,-3.0632,-3.0695,-3.3487,-3.3817,-3.3835,-3.3835,-3.3857,-3.4238,-3.4642,-3.51,-3.5412,-3.5339,-3.4935,-3.4623,-3.4238,-3.389,-3.3872,-3.4334,-3.5014,-3.5463,-3.6232,-3.7234,-3.7773,-3.815,-3.8437,-3.8613,-3.875,-3.9101,-3.9316,-3.9531,-3.9883,-3.9961,-4.0215,-4.0527,-4.0241,-3.9542,-3.8469,-3.6797,-3.5914,-3.5833,-3.5914,-3.5994,-3.5833,-3.6236,-3.7436,-3.7914,-3.8724,-3.9138,-3.9531,-4.0353,-4.0685,-4.0021,-4.0763,-4.1094,-4.1172,-4.1172,-4.1172,-4.1172,-4.1172,-4.1172,-4.1172,-4.1172,-4.1172,-4.1172,-4.1172,-4.1172,-4.1172,-4.0919,-4.004,-3.7675,-3.6316,-3.4457,-3.2525,-3.0915,-3.0817,-3.0817,-3.0817,-3.0734,-3.0749,-3.0499,-3.0346,-3.0111,-2.9761,-2.9467,-2.9457,-2.9412,-2.9313,-2.9333,-2.9352,-2.9446,-2.9499,-2.9593,-2.9766,-2.9806,-2.986,-2.9873,-2.9913,-2.9953,-3.0034,-3.0234,-3.0448,-3.0635,-3.0808,-3.1036,-3.1169,-3.1236,-3.1116,-3.0942,-3.0742,-3.0528,-3.075,-3.0822,-3.0655,-3.0247,-3.0231,-3.015,-3.0303,-3.3614,-3.4202,-3.4202,-3.4367,-3.4568,-3.444,-3.4788,-3.5375,-3.5504,-3.5247,-3.4697,-3.444,-3.4183,-3.3982,-3.4162,-3.4626,-3.5393,-3.6176,-3.6952,-3.7695,-3.8111,-3.8398,-3.8555,-3.8652,-3.8828,-3.9199,-3.9473,-3.9883,-4.0312,-4.0312,-4.0566,-4.0879,-4.0938,-4.0292,-3.8621,-3.7037,-3.5994,-3.6236,-3.6877,-3.7277,-3.6477,-3.8011,-3.9059,-3.8803,-3.9629,-4.0118,-4.0099,-4.0997,-4.0685,-4.0197,-4.1094,-4.1172,-4.1172,-4.1172,-4.1172,-4.1172,-4.1172,-4.1172,-4.1172,-4.1172,-4.1172,-4.1172,-4.1172,-4.1172,-4.1172,-4.1172,-3.9786,-3.8011,-3.6477,-3.4701,-3.3183,-3.1467,-3.09,-3.0817,-3.0817,-3.0817,-3.0749,-3.043,-3.0124,-2.9916,-2.9634,-2.9498,-2.9433,-2.9535,-2.9507,-2.9539,-2.9633,-2.9686,-2.974,-2.9766,-2.9873,-2.9873,-2.99,-2.99,-2.994,-3.0087,-3.0234,-3.0434,-3.0728,-3.1009,-3.1183,-3.1316,-3.141,-3.1476,-3.1303,-3.1129,-3.0822,-3.0515,-3.0167,-2.9993,-3.01,-3.0127,-3.0034,-2.998,-3.0043,-3.3955,-3.4403,-3.455,-3.4862,-3.5155,-3.4935,-3.5155,-3.554,-3.5467,-3.5027,-3.4477,-3.4275,-3.4055,-3.3982,-3.4412,-3.5027,-3.5882,-3.6632,-3.7436,-3.8072,-3.8418,-3.8535,-3.8594,-3.875,-3.9101,-3.9453,-3.9883,-4.0332,-4.0742,-4.0742,-4.0996,-4.1308,-4.1224,-4.0652,-3.951,-3.8823,-3.7837,-3.8004,-3.8408,-3.9138,-3.8901,-3.9629,-4.0509,-4.0197,-4.0431,-4.1094,-4.1172,-4.1172,-4.1172,-4.1172,-4.1172,-4.1172,-4.1172,-4.1172,-4.1172,-4.1172,-4.1172,-4.1172,-4.1172,-4.1172,-4.1172,-4.1172,-4.1172,-4.1172,-4.1172,-4.1172,-3.9629,-3.7993,-3.6717,-3.4701,-3.2772,-3.1218,-3.09,-3.0817,-3.0817,-3.0817,-3.0709,-3.0389,-3.0043,-2.983,-2.9566,-2.946,-2.948,-2.9641,-2.9686,-2.9793,-2.99,-2.9913,-2.9927,-2.9953,-2.9967,-2.9967,-3.0047,-3.0114,-3.0207,-3.0368,-3.0501,-3.0648,-3.0929,-3.1249,-3.141,-3.1517,-3.161,-3.1664,-3.1503,-3.1249,-3.0835,-3.0488,-3.0181,-2.9993,-2.9953,-2.9953,-2.9913,-2.994,-2.9953,-3.4422,-3.4495,-3.488,-3.5265,-3.5595,-3.5559,-3.5577,-3.5559,-3.5174,-3.477,-3.4348,-3.3982,-3.389,-3.4033,-3.4626,-3.544,-3.628,-3.7077,-3.7803,-3.8345,-3.8555,-3.8594,-3.8769,-3.8984,-3.9394,-3.9863,-4.0273,-4.0605,-4.1094,-4.1191,-4.1406,-4.1341,-4.1005,-4.0887,-4.0896,-4.0846,-3.9963,-3.9524,-3.9786,-4.0353,-4.0431,-4.0763,-4.0997,-4.086,-4.1152,-4.123,-4.123,-4.123,-4.123,-4.1211,-4.1172,-4.1172,-4.1172,-4.1172,-4.1172,-4.1172,-4.1172,-4.1172,-4.1172,-4.1172,-4.1172,-4.1172,-4.1172,-4.1172,-4.1172,-4.1094,-3.955,-3.7693,-3.6075,-3.3724,-3.1632,-3.1218,-3.0817,-3.0817,-3.0817,-3.0778,-3.0684,-3.0379,-3.0071,-2.9783,-2.9439,-2.9373,-2.9628,-2.9726,-2.982,-2.986,-2.9927,-2.9993,-3.002,-3.0047,-3.006,-3.0087,-3.0181,-3.0354,-3.0488,-3.0635,-3.0782,-3.0915,-3.1116,-3.1383,-3.1543,-3.1637,-3.1664,-3.1664,-3.1637,-3.1383,-3.0889,-3.0541,-3.0261,-3.01,-2.9993,-2.9953,-2.9953,-3.002,-3.006,-3.4752,-3.5265,-3.5412,-3.5687,-3.5981,-3.5742,-3.5467,-3.5174,-3.477,-3.4348,-3.3982,-3.3872,-3.3982,-3.4257,-3.5086,-3.5905,-3.666,-3.7421,-3.8035,-3.8409,-3.8428,-3.8769,-3.8965,-3.9125,-3.9593,-4.0137,-4.0508,-4.0781,-4.1172,-4.1406,-4.1005,-4.0341,-4.1504,-4.1642,-4.1509,-4.1721,-4.1163,-4.08,-4.0977,-4.1094,-4.1172,-4.1172,-4.1172,-4.1211,-4.1406,-4.1367,-4.125,-4.1426,-4.1406,-4.1211,-4.1172,-4.1172,-4.1172,-4.1172,-4.1172,-4.1172,-4.1172,-4.1172,-4.1172,-4.1172,-4.1172,-4.1172,-4.1172,-4.1172,-4.1172,-4.0763,-3.955,-3.7693,-3.6075,-3.4132,-3.2113,-3.1233,-3.0944,-3.0905,-3.0851,-3.0756,-3.0689,-3.0382,-2.9996,-2.9923,-2.9568,-2.9601,-2.974,-2.9793,-2.9873,-2.99,-2.9967,-3.006,-3.0127,-3.0154,-3.0221,-3.0261,-3.0434,-3.0635,-3.0768,-3.0915,-3.1049,-3.1209,-3.137,-3.149,-3.1583,-3.1664,-3.1664,-3.161,-3.1503,-3.1249,-3.0875,-3.0608,-3.0461,-3.0221,-3.01,-3.0047,-3.002,-3.0154,-3.0247,-3.5155,-3.5614,-3.5797,-3.5999,-3.6091,-3.5614,-3.5229,-3.4972,-3.4587,-3.4183,-3.3853,-3.3982,-3.4183,-3.4511,-3.5526,-3.6387,-3.6831,-3.774,-3.8409,-3.8409,-3.799,-3.8461,-3.8712,-3.8892,-3.9335,-4.0027,-4.0723,-4.0957,-4.1289,-4.1718,-4.1526,-4.1523,-4.2779,-4.239,-4.2053,-4.2075,-4.1971,-4.1523,-4.1308,-4.1191,-4.1172,-4.1172,-4.1172,-4.123,-4.1484,-4.1367,-4.125,-4.1504,-4.1387,-4.1211,-4.1172,-4.1172,-4.1172,-4.1172,-4.1172,-4.1172,-4.1172,-4.1172,-4.1172,-4.1172,-4.1172,-4.1172,-4.1191,-4.1172,-4.1172,-4.0997,-3.9471,-3.7852,-3.6477,-3.5025,-3.3019,-3.1331,-3.117,-3.1007,-3.0927,-3.0762,-3.0524,-3.0323,-3.0138,-2.9981,-2.9904,-2.9909,-2.99,-2.9913,-2.998,-3.0087,-3.0194,-3.0301,-3.0341,-3.0341,-3.0434,-3.0515,-3.0742,-3.0969,-3.1076,-3.1169,-3.1303,-3.1423,-3.1503,-3.161,-3.1677,-3.1677,-3.1677,-3.1517,-3.1316,-3.1102,-3.0942,-3.0875,-3.0728,-3.0528,-3.0515,-3.0675,-3.0648,-3.0515,-3.0568,-3.5632,-3.5705,-3.5906,-3.5885,-3.5868,-3.4866,-3.4523,-3.4756,-3.4,-3.385,-3.3633,-3.4009,-3.3926,-3.3929,-3.5247,-3.6141,-3.6657,-3.7378,-3.7897,-3.8375,-3.7275,-3.7427,-3.8216,-3.8235,-3.9089,-4.0202,-4.0898,-4.1152,-4.1445,-4.2012,-4.2595,-4.3105,-4.3457,-4.321,-4.2803,-4.2395,-4.2168,-4.1738,-4.1367,-4.1172,-4.1172,-4.1172,-4.1172,-4.1172,-4.125,-4.125,-4.1211,-4.1211,-4.1211,-4.1191,-4.1172,-4.1172,-4.1172,-4.1172,-4.1172,-4.1269,-4.1308,-4.1406,-4.1445,-4.1484,-4.1367,-4.1328,-4.123,-4.123,-4.123,-4.1172,-3.9864,-3.8249,-3.6877,-3.5187,-3.3249,-3.1518,-3.0898,-3.086,-3.0722,-3.0638,-3.0464,-3.0253,-3.0015,-2.9958,-2.9909,-2.9913,-2.994,-2.9953,-3.0114,-3.0274,-3.0421,-3.0528,-3.0635,-3.0621,-3.0675,-3.0808,-3.1049,-3.1249,-3.1303,-3.141,-3.1543,-3.165,-3.1664,-3.1664,-3.1677,-3.1677,-3.1677,-3.1623,-3.157,-3.1289,-3.1116,-3.1169,-3.1209,-3.1062,-3.1116,-3.1396,-3.1356,-3.1142,-3.0942,-3.5797,-3.5924,-3.4879,-3.4371,-3.4116,-3.2298,-3.2199,-3.3058,-3.1504,-3.1447,-3.2327,-3.252,-3.2326,-3.2271,-3.4133,-3.5136,-3.5611,-3.6515,-3.6756,-3.6831,-3.6289,-3.6787,-3.7666,-3.7576,-3.8871,-4.0434,-4.1172,-4.1387,-4.1777,-4.2422,-4.2949,-4.3105,-4.3437,-4.3418,-4.3008,-4.2578,-4.2168,-4.1797,-4.1426,-4.1191,-4.1172,-4.1172,-4.1172,-4.1269,-4.1348,-4.1367,-4.1367,-4.1465,-4.1367,-4.1269,-4.1191,-4.1172,-4.1172,-4.1172,-4.1348,-4.1562,-4.166,-4.1777,-4.1914,-4.1933,-4.1836,-4.168,-4.1582,-4.1406,-4.1308,-4.1211,-4.0431,-3.8724,-3.7055,-3.5302,-3.3672,-3.204,-3.0665,-3.0638,-3.061,-3.0548,-3.0378,-3.0185,-2.9985,-2.9949,-2.99,-2.994,-2.9967,-3.0087,-3.0234,-3.0421,-3.0608,-3.0768,-3.0982,-3.1049,-3.1036,-3.1156,-3.137,-3.153,-3.1557,-3.1557,-3.165,-3.1677,-3.1664,-3.1677,-3.169,-3.1744,-3.1797,-3.1931,-3.1891,-3.161,-3.153,-3.1797,-3.1784,-3.161,-3.1744,-3.2038,-3.2078,-3.1917,-3.1583,-3.4338,-3.396,-3.307,-3.2667,-3.2208,-3.0878,-3.0875,-3.1179,-2.9535,-2.9272,-3.0409,-3.1048,-3.1244,-3.1065,-3.2817,-3.3794,-3.4336,-3.5625,-3.5713,-3.5575,-3.562,-3.6489,-3.6808,-3.6603,-3.8494,-4.0101,-4.1152,-4.1699,-4.2148,-4.2637,-4.3066,-4.3105,-4.332,-4.3223,-4.2793,-4.2383,-4.2051,-4.1797,-4.1367,-4.1211,-4.1172,-4.1172,-4.1172,-4.1289,-4.1308,-4.1348,-4.1348,-4.1426,-4.1348,-4.123,-4.1172,-4.1348,-4.1406,-4.1484,-4.1699,-4.1953,-4.2109,-4.2187,-4.2363,-4.2422,-4.2285,-4.2031,-4.1816,-4.1621,-4.125,-4.1172,-4.1172,-3.949,-3.74,-3.557,-3.4373,-3.28,-3.1351,-3.0793,-3.0472,-3.0216,-3.0172,-3.0034,-2.9873,-2.9887,-2.9953,-3.002,-3.0087,-3.0207,-3.0408,-3.0808,-3.0969,-3.1076,-3.1276,-3.1343,-3.137,-3.141,-3.1557,-3.165,-3.1623,-3.1623,-3.1664,-3.1677,-3.1704,-3.1784,-3.1864,-3.1877,-3.1931,-3.2131,-3.2158,-3.1917,-3.1944,-3.2238,-3.2291,-3.2118,-3.2358,-3.2679,-3.2652,-3.2585,-3.2291,-3.2093,-3.1004,-3.0961,-3.0804,-3.0473,-2.995,-2.9841,-2.9719,-2.8059,-2.7485,-2.8133,-2.9519,-3.04,-3.089,-3.1918,-3.2396,-3.3146,-3.4053,-3.426,-3.4137,-3.3983,-3.5279,-3.5504,-3.5117,-3.7258,-3.9621,-4.1285,-4.201,-4.2539,-4.2988,-4.3223,-4.3105,-4.2969,-4.2832,-4.2383,-4.2051,-4.1777,-4.1601,-4.1348,-4.1191,-4.1172,-4.1172,-4.1172,-4.1172,-4.1172,-4.1172,-4.1172,-4.1172,-4.1172,-4.1172,-4.1191,-4.1406,-4.1601,-4.1719,-4.209,-4.2324,-4.2519,-4.2578,-4.2695,-4.2754,-4.2461,-4.2168,-4.1992,-4.1777,-4.1445,-4.1191,-4.1211,-4.0113,-3.7944,-3.6365,-3.5063,-3.346,-3.2087,-3.0696,-3.0354,-3.0097,-3.002,-2.9913,-2.994,-2.994,-3.0047,-3.014,-3.0287,-3.0408,-3.0688,-3.1089,-3.1316,-3.1463,-3.1543,-3.1503,-3.1476,-3.149,-3.1557,-3.1623,-3.1664,-3.169,-3.1704,-3.181,-3.1864,-3.1957,-3.2051,-3.2131,-3.2251,-3.2438,-3.2398,-3.2305,-3.2385,-3.2639,-3.2625,-3.2612,-3.2812,-3.304,-3.3013,-3.2946,-3.2879,-3.0037,-2.8641,-2.9162,-2.9207,-2.868,-2.7472,-2.7535,-2.8347,-2.7018,-2.633,-2.6763,-2.7217,-2.7784,-2.8019,-3.0222,-3.1117,-3.1408,-3.2419,-3.2479,-3.2291,-3.2787,-3.425,-3.5157,-3.508,-3.6339,-3.8704,-4.1295,-4.242,-4.2793,-4.3242,-4.3379,-4.3047,-4.3008,-4.2676,-4.1992,-4.1738,-4.1601,-4.1426,-4.1308,-4.1172,-4.1172,-4.1172,-4.1172,-4.1172,-4.1172,-4.1172,-4.1172,-4.1172,-4.1172,-4.1172,-4.123,-4.1484,-4.1738,-4.1973,-4.2344,-4.2773,-4.2949,-4.3086,-4.3164,-4.3223,-4.2988,-4.2695,-4.2558,-4.2344,-4.1932,-4.1364,-4.1129,-4.0681,-3.8821,-3.7404,-3.5925,-3.384,-3.2193,-3.0835,-3.0076,-3.0007,-2.9873,-2.998,-3.0034,-3.014,-3.0274,-3.0448,-3.0662,-3.0808,-3.0982,-3.1303,-3.1463,-3.1597,-3.1623,-3.161,-3.1583,-3.1597,-3.1597,-3.1623,-3.1677,-3.173,-3.177,-3.1904,-3.2064,-3.2238,-3.2372,-3.2536,-3.267,-3.2772,-3.2893,-3.2866,-3.2986,-3.2986,-3.308,-3.3093,-3.32,-3.3334,-3.332,-3.3267,-3.3146]}]]